<?xml version="1.0" encoding="UTF-8" standalone="no" ?>
<gpx xmlns="http://www.topografix.com/GPX/1/1" xmlns:xsi="http://www.w3.org/2001/XMLSchema-instance" xsi:schemaLocation="http://www.topografix.com/GPX/1/1 http://www.topografix.com/GPX/1/1/gpx.xsd" version="1.1" creator="VisuGPX - https://www.visugpx.com">
  <metadata>
    <name>2020-08-18 08:53</name>
    <desc><![CDATA[
<p>Heure de départ: 08:54 18 août 2020<br/>Heure d'arrivée: 11:17 18 août 2020<br/>Distance: 39,7 km (02:23)<br/>Temps déplacement: 02:06<br/>Vitesse moyenne: 16,58 km/h<br/>Vitesse moyenne mouv.: 18,78 km/h<br/>Vitesse Max.: 69,77 km/h<br/>Altitude minimale: 356 m<br/>Altitude maximale: 865 m<br/>Vitesse de montée: 914,6 m/h<br/>Vitesse de descente: -1309,7 m/h<br/>Gain d'altitude: 1278 m<br/>Perte d'altitude: -1278 m<br/>Temps de montée: 01:23<br/>Temps de descente: 00:58<br/></p><hr align="center" width="480" style="height: 2px; width: 517px"/>]]></desc>
  </metadata>
  <trk>
    <name><![CDATA[2020-08-18 08:53]]></name>
    <desc><![CDATA[<p>Heure de départ: 08:54 18 août 2020<br/>Heure d'arrivée: 11:17 18 août 2020<br/>Distance: 39,7 km (02:23)<br/>Temps déplacement: 02:06<br/>Vitesse moyenne: 16,58 km/h<br/>Vitesse moyenne mouv.: 18,78 km/h<br/>Vitesse Max.: 69,77 km/h<br/>Altitude minimale: 356 m<br/>Altitude maximale: 865 m<br/>Vitesse de montée: 914,6 m/h<br/>Vitesse de descente: -1309,7 m/h<br/>Gain d'altitude: 1278 m<br/>Perte d'altitude: -1278 m<br/>Temps de montée: 01:23<br/>Temps de descente: 00:58<br/></p><hr align="center" width="480" style="height: 2px; width: 517px"/>]]></desc>
    <trkseg>
      <trkpt lat="47.95795" lon="6.83215">
        <ele>499.67</ele>
        <time>2020-08-18T06:54:03Z</time>
      </trkpt>
      <trkpt lat="47.95754" lon="6.83212">
        <ele>499.67</ele>
        <time>2020-08-18T06:54:05Z</time>
      </trkpt>
      <trkpt lat="47.95782" lon="6.832">
        <ele>499.65</ele>
        <time>2020-08-18T06:54:09Z</time>
      </trkpt>
      <trkpt lat="47.95802" lon="6.83194">
        <ele>499.43</ele>
        <time>2020-08-18T06:54:13Z</time>
      </trkpt>
      <trkpt lat="47.95777" lon="6.8319">
        <ele>498.95</ele>
        <time>2020-08-18T06:54:15Z</time>
      </trkpt>
      <trkpt lat="47.9577" lon="6.8322">
        <ele>498.4</ele>
        <time>2020-08-18T06:54:21Z</time>
      </trkpt>
      <trkpt lat="47.95792" lon="6.83233">
        <ele>498.98</ele>
        <time>2020-08-18T06:54:26Z</time>
      </trkpt>
      <trkpt lat="47.95766" lon="6.83235">
        <ele>499</ele>
        <time>2020-08-18T06:54:34Z</time>
      </trkpt>
      <trkpt lat="47.95745" lon="6.83247">
        <ele>501.04</ele>
        <time>2020-08-18T06:54:41Z</time>
      </trkpt>
      <trkpt lat="47.95734" lon="6.83269">
        <ele>506.77</ele>
        <time>2020-08-18T06:54:54Z</time>
      </trkpt>
      <trkpt lat="47.95739" lon="6.83296">
        <ele>510.01</ele>
        <time>2020-08-18T06:55:02Z</time>
      </trkpt>
      <trkpt lat="47.95748" lon="6.8332">
        <ele>514.09</ele>
        <time>2020-08-18T06:55:10Z</time>
      </trkpt>
      <trkpt lat="47.95757" lon="6.83345">
        <ele>519.29</ele>
        <time>2020-08-18T06:55:17Z</time>
      </trkpt>
      <trkpt lat="47.95768" lon="6.83369">
        <ele>528.46</ele>
        <time>2020-08-18T06:55:27Z</time>
      </trkpt>
      <trkpt lat="47.95779" lon="6.8339">
        <ele>539.2</ele>
        <time>2020-08-18T06:55:39Z</time>
      </trkpt>
      <trkpt lat="47.95796" lon="6.83408">
        <ele>539.46</ele>
        <time>2020-08-18T06:55:45Z</time>
      </trkpt>
      <trkpt lat="47.95813" lon="6.83426">
        <ele>537.7</ele>
        <time>2020-08-18T06:55:50Z</time>
      </trkpt>
      <trkpt lat="47.9583" lon="6.83441">
        <ele>537.44</ele>
        <time>2020-08-18T06:55:55Z</time>
      </trkpt>
      <trkpt lat="47.95846" lon="6.83456">
        <ele>536.33</ele>
        <time>2020-08-18T06:55:59Z</time>
      </trkpt>
      <trkpt lat="47.95863" lon="6.83476">
        <ele>536.06</ele>
        <time>2020-08-18T06:56:04Z</time>
      </trkpt>
      <trkpt lat="47.95879" lon="6.83489">
        <ele>536.85</ele>
        <time>2020-08-18T06:56:09Z</time>
      </trkpt>
      <trkpt lat="47.95899" lon="6.83498">
        <ele>537.4</ele>
        <time>2020-08-18T06:56:14Z</time>
      </trkpt>
      <trkpt lat="47.95919" lon="6.83501">
        <ele>537.24</ele>
        <time>2020-08-18T06:56:19Z</time>
      </trkpt>
      <trkpt lat="47.95939" lon="6.83509">
        <ele>533.25</ele>
        <time>2020-08-18T06:56:24Z</time>
      </trkpt>
      <trkpt lat="47.9596" lon="6.8351">
        <ele>524.78</ele>
        <time>2020-08-18T06:56:29Z</time>
      </trkpt>
      <trkpt lat="47.95978" lon="6.83506">
        <ele>518.29</ele>
        <time>2020-08-18T06:56:35Z</time>
      </trkpt>
      <trkpt lat="47.95966" lon="6.83485">
        <ele>499.46</ele>
        <time>2020-08-18T06:56:48Z</time>
      </trkpt>
      <trkpt lat="47.95951" lon="6.83461">
        <ele>496.85</ele>
        <time>2020-08-18T06:56:53Z</time>
      </trkpt>
      <trkpt lat="47.95948" lon="6.83429">
        <ele>492.91</ele>
        <time>2020-08-18T06:56:57Z</time>
      </trkpt>
      <trkpt lat="47.95948" lon="6.83397">
        <ele>488.45</ele>
        <time>2020-08-18T06:57:02Z</time>
      </trkpt>
      <trkpt lat="47.95966" lon="6.8338">
        <ele>483.16</ele>
        <time>2020-08-18T06:57:07Z</time>
      </trkpt>
      <trkpt lat="47.95985" lon="6.83376">
        <ele>477.97</ele>
        <time>2020-08-18T06:57:12Z</time>
      </trkpt>
      <trkpt lat="47.96004" lon="6.83377">
        <ele>470.55</ele>
        <time>2020-08-18T06:57:17Z</time>
      </trkpt>
      <trkpt lat="47.95961" lon="6.83034">
        <ele>467.89</ele>
        <time>2020-08-18T06:58:48Z</time>
      </trkpt>
      <trkpt lat="47.95965" lon="6.83003">
        <ele>458.69</ele>
        <time>2020-08-18T06:58:50Z</time>
      </trkpt>
      <trkpt lat="47.95969" lon="6.82968">
        <ele>452.16</ele>
        <time>2020-08-18T06:58:53Z</time>
      </trkpt>
      <trkpt lat="47.95971" lon="6.82938">
        <ele>450.44</ele>
        <time>2020-08-18T06:58:56Z</time>
      </trkpt>
      <trkpt lat="47.95965" lon="6.82909">
        <ele>443.39</ele>
        <time>2020-08-18T06:58:59Z</time>
      </trkpt>
      <trkpt lat="47.95969" lon="6.82881">
        <ele>448.59</ele>
        <time>2020-08-18T06:59:03Z</time>
      </trkpt>
      <trkpt lat="47.95967" lon="6.82854">
        <ele>451.22</ele>
        <time>2020-08-18T06:59:07Z</time>
      </trkpt>
      <trkpt lat="47.95965" lon="6.82824">
        <ele>452.64</ele>
        <time>2020-08-18T06:59:11Z</time>
      </trkpt>
      <trkpt lat="47.95962" lon="6.82796">
        <ele>455.15</ele>
        <time>2020-08-18T06:59:15Z</time>
      </trkpt>
      <trkpt lat="47.95958" lon="6.82767">
        <ele>457.3</ele>
        <time>2020-08-18T06:59:19Z</time>
      </trkpt>
      <trkpt lat="47.95959" lon="6.82739">
        <ele>458.84</ele>
        <time>2020-08-18T06:59:22Z</time>
      </trkpt>
      <trkpt lat="47.95957" lon="6.82708">
        <ele>459.04</ele>
        <time>2020-08-18T06:59:26Z</time>
      </trkpt>
      <trkpt lat="47.95957" lon="6.82681">
        <ele>460.89</ele>
        <time>2020-08-18T06:59:30Z</time>
      </trkpt>
      <trkpt lat="47.95945" lon="6.82657">
        <ele>466.6</ele>
        <time>2020-08-18T06:59:37Z</time>
      </trkpt>
      <trkpt lat="47.95933" lon="6.82637">
        <ele>472.47</ele>
        <time>2020-08-18T06:59:43Z</time>
      </trkpt>
      <trkpt lat="47.95913" lon="6.82629">
        <ele>471.12</ele>
        <time>2020-08-18T06:59:49Z</time>
      </trkpt>
      <trkpt lat="47.95894" lon="6.82638">
        <ele>468.88</ele>
        <time>2020-08-18T06:59:53Z</time>
      </trkpt>
      <trkpt lat="47.95878" lon="6.82653">
        <ele>467.53</ele>
        <time>2020-08-18T06:59:57Z</time>
      </trkpt>
      <trkpt lat="47.95861" lon="6.82672">
        <ele>465.36</ele>
        <time>2020-08-18T07:00:02Z</time>
      </trkpt>
      <trkpt lat="47.95846" lon="6.82688">
        <ele>462.75</ele>
        <time>2020-08-18T07:00:07Z</time>
      </trkpt>
      <trkpt lat="47.95831" lon="6.82711">
        <ele>465.59</ele>
        <time>2020-08-18T07:00:13Z</time>
      </trkpt>
      <trkpt lat="47.95812" lon="6.82723">
        <ele>465.8</ele>
        <time>2020-08-18T07:00:19Z</time>
      </trkpt>
      <trkpt lat="47.95799" lon="6.82699">
        <ele>463.72</ele>
        <time>2020-08-18T07:00:25Z</time>
      </trkpt>
      <trkpt lat="47.95789" lon="6.82675">
        <ele>460.34</ele>
        <time>2020-08-18T07:00:28Z</time>
      </trkpt>
      <trkpt lat="47.95782" lon="6.82648">
        <ele>458.11</ele>
        <time>2020-08-18T07:00:31Z</time>
      </trkpt>
      <trkpt lat="47.95777" lon="6.82621">
        <ele>456.97</ele>
        <time>2020-08-18T07:00:34Z</time>
      </trkpt>
      <trkpt lat="47.95769" lon="6.82596">
        <ele>455.69</ele>
        <time>2020-08-18T07:00:37Z</time>
      </trkpt>
      <trkpt lat="47.9576" lon="6.82568">
        <ele>455</ele>
        <time>2020-08-18T07:00:40Z</time>
      </trkpt>
      <trkpt lat="47.95752" lon="6.82538">
        <ele>451.72</ele>
        <time>2020-08-18T07:00:43Z</time>
      </trkpt>
      <trkpt lat="47.95745" lon="6.82512">
        <ele>449.87</ele>
        <time>2020-08-18T07:00:46Z</time>
      </trkpt>
      <trkpt lat="47.95732" lon="6.82484">
        <ele>448.54</ele>
        <time>2020-08-18T07:00:50Z</time>
      </trkpt>
      <trkpt lat="47.95712" lon="6.82477">
        <ele>447.83</ele>
        <time>2020-08-18T07:00:54Z</time>
      </trkpt>
      <trkpt lat="47.95695" lon="6.82484">
        <ele>448.28</ele>
        <time>2020-08-18T07:00:57Z</time>
      </trkpt>
      <trkpt lat="47.95673" lon="6.82495">
        <ele>448.3</ele>
        <time>2020-08-18T07:01:01Z</time>
      </trkpt>
      <trkpt lat="47.95654" lon="6.82488">
        <ele>450.32</ele>
        <time>2020-08-18T07:01:07Z</time>
      </trkpt>
      <trkpt lat="47.95642" lon="6.82459">
        <ele>452</ele>
        <time>2020-08-18T07:01:12Z</time>
      </trkpt>
      <trkpt lat="47.95633" lon="6.82431">
        <ele>453.52</ele>
        <time>2020-08-18T07:01:16Z</time>
      </trkpt>
      <trkpt lat="47.95624" lon="6.82399">
        <ele>453.94</ele>
        <time>2020-08-18T07:01:20Z</time>
      </trkpt>
      <trkpt lat="47.95617" lon="6.82373">
        <ele>452.83</ele>
        <time>2020-08-18T07:01:23Z</time>
      </trkpt>
      <trkpt lat="47.95616" lon="6.8234">
        <ele>453.02</ele>
        <time>2020-08-18T07:01:27Z</time>
      </trkpt>
      <trkpt lat="47.95613" lon="6.8231">
        <ele>453.89</ele>
        <time>2020-08-18T07:01:31Z</time>
      </trkpt>
      <trkpt lat="47.95602" lon="6.82278">
        <ele>453.82</ele>
        <time>2020-08-18T07:01:35Z</time>
      </trkpt>
      <trkpt lat="47.95593" lon="6.82252">
        <ele>454.39</ele>
        <time>2020-08-18T07:01:38Z</time>
      </trkpt>
      <trkpt lat="47.95583" lon="6.82223">
        <ele>454.26</ele>
        <time>2020-08-18T07:01:41Z</time>
      </trkpt>
      <trkpt lat="47.95574" lon="6.82197">
        <ele>453.77</ele>
        <time>2020-08-18T07:01:44Z</time>
      </trkpt>
      <trkpt lat="47.95563" lon="6.82174">
        <ele>452.93</ele>
        <time>2020-08-18T07:01:47Z</time>
      </trkpt>
      <trkpt lat="47.95553" lon="6.82148">
        <ele>452.3</ele>
        <time>2020-08-18T07:01:50Z</time>
      </trkpt>
      <trkpt lat="47.95547" lon="6.8212">
        <ele>451.92</ele>
        <time>2020-08-18T07:01:53Z</time>
      </trkpt>
      <trkpt lat="47.95544" lon="6.8209">
        <ele>451.64</ele>
        <time>2020-08-18T07:01:57Z</time>
      </trkpt>
      <trkpt lat="47.95539" lon="6.82063">
        <ele>451.55</ele>
        <time>2020-08-18T07:02:01Z</time>
      </trkpt>
      <trkpt lat="47.95535" lon="6.8203">
        <ele>452.4</ele>
        <time>2020-08-18T07:02:05Z</time>
      </trkpt>
      <trkpt lat="47.95528" lon="6.81999">
        <ele>452.55</ele>
        <time>2020-08-18T07:02:08Z</time>
      </trkpt>
      <trkpt lat="47.95524" lon="6.8197">
        <ele>451.66</ele>
        <time>2020-08-18T07:02:11Z</time>
      </trkpt>
      <trkpt lat="47.95519" lon="6.81942">
        <ele>451.63</ele>
        <time>2020-08-18T07:02:14Z</time>
      </trkpt>
      <trkpt lat="47.95514" lon="6.81907">
        <ele>449.08</ele>
        <time>2020-08-18T07:02:17Z</time>
      </trkpt>
      <trkpt lat="47.95507" lon="6.81875">
        <ele>448.25</ele>
        <time>2020-08-18T07:02:20Z</time>
      </trkpt>
      <trkpt lat="47.955" lon="6.81846">
        <ele>448.51</ele>
        <time>2020-08-18T07:02:23Z</time>
      </trkpt>
      <trkpt lat="47.9549" lon="6.81821">
        <ele>449.74</ele>
        <time>2020-08-18T07:02:26Z</time>
      </trkpt>
      <trkpt lat="47.95481" lon="6.81794">
        <ele>450.39</ele>
        <time>2020-08-18T07:02:29Z</time>
      </trkpt>
      <trkpt lat="47.95471" lon="6.81767">
        <ele>450.76</ele>
        <time>2020-08-18T07:02:32Z</time>
      </trkpt>
      <trkpt lat="47.95459" lon="6.8174">
        <ele>450.56</ele>
        <time>2020-08-18T07:02:35Z</time>
      </trkpt>
      <trkpt lat="47.95447" lon="6.81713">
        <ele>450.64</ele>
        <time>2020-08-18T07:02:38Z</time>
      </trkpt>
      <trkpt lat="47.95433" lon="6.81689">
        <ele>449.42</ele>
        <time>2020-08-18T07:02:41Z</time>
      </trkpt>
      <trkpt lat="47.9542" lon="6.81663">
        <ele>448.62</ele>
        <time>2020-08-18T07:02:44Z</time>
      </trkpt>
      <trkpt lat="47.95406" lon="6.81641">
        <ele>449.21</ele>
        <time>2020-08-18T07:02:47Z</time>
      </trkpt>
      <trkpt lat="47.9539" lon="6.81624">
        <ele>450.07</ele>
        <time>2020-08-18T07:02:50Z</time>
      </trkpt>
      <trkpt lat="47.95374" lon="6.81606">
        <ele>450.05</ele>
        <time>2020-08-18T07:02:53Z</time>
      </trkpt>
      <trkpt lat="47.95356" lon="6.81589">
        <ele>449.54</ele>
        <time>2020-08-18T07:02:56Z</time>
      </trkpt>
      <trkpt lat="47.95338" lon="6.81569">
        <ele>449.91</ele>
        <time>2020-08-18T07:02:59Z</time>
      </trkpt>
      <trkpt lat="47.95322" lon="6.8155">
        <ele>450.8</ele>
        <time>2020-08-18T07:03:02Z</time>
      </trkpt>
      <trkpt lat="47.95307" lon="6.81532">
        <ele>451.35</ele>
        <time>2020-08-18T07:03:05Z</time>
      </trkpt>
      <trkpt lat="47.9529" lon="6.81513">
        <ele>451.29</ele>
        <time>2020-08-18T07:03:08Z</time>
      </trkpt>
      <trkpt lat="47.95273" lon="6.81493">
        <ele>449.73</ele>
        <time>2020-08-18T07:03:11Z</time>
      </trkpt>
      <trkpt lat="47.9526" lon="6.81472">
        <ele>448.62</ele>
        <time>2020-08-18T07:03:14Z</time>
      </trkpt>
      <trkpt lat="47.95248" lon="6.81447">
        <ele>446.66</ele>
        <time>2020-08-18T07:03:17Z</time>
      </trkpt>
      <trkpt lat="47.95234" lon="6.8142">
        <ele>443.75</ele>
        <time>2020-08-18T07:03:21Z</time>
      </trkpt>
      <trkpt lat="47.95217" lon="6.81411">
        <ele>446.14</ele>
        <time>2020-08-18T07:03:29Z</time>
      </trkpt>
      <trkpt lat="47.95194" lon="6.81404">
        <ele>448.11</ele>
        <time>2020-08-18T07:03:34Z</time>
      </trkpt>
      <trkpt lat="47.95178" lon="6.81384">
        <ele>449.6</ele>
        <time>2020-08-18T07:03:38Z</time>
      </trkpt>
      <trkpt lat="47.95164" lon="6.81366">
        <ele>451.99</ele>
        <time>2020-08-18T07:03:41Z</time>
      </trkpt>
      <trkpt lat="47.95145" lon="6.81345">
        <ele>455.41</ele>
        <time>2020-08-18T07:03:45Z</time>
      </trkpt>
      <trkpt lat="47.95134" lon="6.81314">
        <ele>454.02</ele>
        <time>2020-08-18T07:03:48Z</time>
      </trkpt>
      <trkpt lat="47.95123" lon="6.81284">
        <ele>449.94</ele>
        <time>2020-08-18T07:03:51Z</time>
      </trkpt>
      <trkpt lat="47.95112" lon="6.81257">
        <ele>446.45</ele>
        <time>2020-08-18T07:03:54Z</time>
      </trkpt>
      <trkpt lat="47.95101" lon="6.8123">
        <ele>445.31</ele>
        <time>2020-08-18T07:03:57Z</time>
      </trkpt>
      <trkpt lat="47.95091" lon="6.81204">
        <ele>447.04</ele>
        <time>2020-08-18T07:04:00Z</time>
      </trkpt>
      <trkpt lat="47.95081" lon="6.8118">
        <ele>447.48</ele>
        <time>2020-08-18T07:04:03Z</time>
      </trkpt>
      <trkpt lat="47.95067" lon="6.81155">
        <ele>448.55</ele>
        <time>2020-08-18T07:04:07Z</time>
      </trkpt>
      <trkpt lat="47.95056" lon="6.81127">
        <ele>450.31</ele>
        <time>2020-08-18T07:04:11Z</time>
      </trkpt>
      <trkpt lat="47.95045" lon="6.811">
        <ele>452.32</ele>
        <time>2020-08-18T07:04:14Z</time>
      </trkpt>
      <trkpt lat="47.95035" lon="6.81073">
        <ele>454.7</ele>
        <time>2020-08-18T07:04:17Z</time>
      </trkpt>
      <trkpt lat="47.95028" lon="6.81044">
        <ele>456.53</ele>
        <time>2020-08-18T07:04:20Z</time>
      </trkpt>
      <trkpt lat="47.95023" lon="6.81015">
        <ele>456.68</ele>
        <time>2020-08-18T07:04:23Z</time>
      </trkpt>
      <trkpt lat="47.95019" lon="6.80986">
        <ele>455.84</ele>
        <time>2020-08-18T07:04:25Z</time>
      </trkpt>
      <trkpt lat="47.95026" lon="6.80956">
        <ele>454.67</ele>
        <time>2020-08-18T07:04:26Z</time>
      </trkpt>
      <trkpt lat="47.95042" lon="6.80923">
        <ele>454.18</ele>
        <time>2020-08-18T07:04:27Z</time>
      </trkpt>
      <trkpt lat="47.95056" lon="6.80892">
        <ele>453.76</ele>
        <time>2020-08-18T07:04:28Z</time>
      </trkpt>
      <trkpt lat="47.95076" lon="6.80867">
        <ele>453.42</ele>
        <time>2020-08-18T07:04:29Z</time>
      </trkpt>
      <trkpt lat="47.95086" lon="6.80831">
        <ele>451.38</ele>
        <time>2020-08-18T07:04:31Z</time>
      </trkpt>
      <trkpt lat="47.95067" lon="6.80821">
        <ele>449.56</ele>
        <time>2020-08-18T07:04:32Z</time>
      </trkpt>
      <trkpt lat="47.95051" lon="6.80793">
        <ele>447.12</ele>
        <time>2020-08-18T07:04:34Z</time>
      </trkpt>
      <trkpt lat="47.9502" lon="6.80801">
        <ele>444.74</ele>
        <time>2020-08-18T07:04:36Z</time>
      </trkpt>
      <trkpt lat="47.95005" lon="6.80821">
        <ele>444.83</ele>
        <time>2020-08-18T07:04:37Z</time>
      </trkpt>
      <trkpt lat="47.94983" lon="6.80812">
        <ele>442.36</ele>
        <time>2020-08-18T07:04:40Z</time>
      </trkpt>
      <trkpt lat="47.94975" lon="6.80783">
        <ele>438.73</ele>
        <time>2020-08-18T07:04:44Z</time>
      </trkpt>
      <trkpt lat="47.94965" lon="6.80756">
        <ele>437.72</ele>
        <time>2020-08-18T07:04:47Z</time>
      </trkpt>
      <trkpt lat="47.94958" lon="6.80726">
        <ele>436.96</ele>
        <time>2020-08-18T07:04:50Z</time>
      </trkpt>
      <trkpt lat="47.94951" lon="6.80696">
        <ele>436.25</ele>
        <time>2020-08-18T07:04:53Z</time>
      </trkpt>
      <trkpt lat="47.94942" lon="6.80666">
        <ele>436.12</ele>
        <time>2020-08-18T07:04:56Z</time>
      </trkpt>
      <trkpt lat="47.94933" lon="6.80637">
        <ele>437.15</ele>
        <time>2020-08-18T07:04:59Z</time>
      </trkpt>
      <trkpt lat="47.94927" lon="6.8061">
        <ele>442.37</ele>
        <time>2020-08-18T07:05:02Z</time>
      </trkpt>
      <trkpt lat="47.94918" lon="6.80579">
        <ele>441.95</ele>
        <time>2020-08-18T07:05:06Z</time>
      </trkpt>
      <trkpt lat="47.94913" lon="6.80547">
        <ele>445.64</ele>
        <time>2020-08-18T07:05:09Z</time>
      </trkpt>
      <trkpt lat="47.94896" lon="6.80521">
        <ele>449.01</ele>
        <time>2020-08-18T07:05:12Z</time>
      </trkpt>
      <trkpt lat="47.94881" lon="6.80487">
        <ele>452.33</ele>
        <time>2020-08-18T07:05:15Z</time>
      </trkpt>
      <trkpt lat="47.94873" lon="6.8046">
        <ele>454.99</ele>
        <time>2020-08-18T07:05:17Z</time>
      </trkpt>
      <trkpt lat="47.94871" lon="6.80429">
        <ele>457.12</ele>
        <time>2020-08-18T07:05:19Z</time>
      </trkpt>
      <trkpt lat="47.94861" lon="6.80404">
        <ele>458.44</ele>
        <time>2020-08-18T07:05:21Z</time>
      </trkpt>
      <trkpt lat="47.94853" lon="6.80373">
        <ele>460.95</ele>
        <time>2020-08-18T07:05:24Z</time>
      </trkpt>
      <trkpt lat="47.94846" lon="6.80345">
        <ele>461.82</ele>
        <time>2020-08-18T07:05:27Z</time>
      </trkpt>
      <trkpt lat="47.94836" lon="6.80321">
        <ele>462.81</ele>
        <time>2020-08-18T07:05:30Z</time>
      </trkpt>
      <trkpt lat="47.94823" lon="6.80291">
        <ele>465.17</ele>
        <time>2020-08-18T07:05:36Z</time>
      </trkpt>
      <trkpt lat="47.94796" lon="6.80303">
        <ele>467.3</ele>
        <time>2020-08-18T07:05:39Z</time>
      </trkpt>
      <trkpt lat="47.94791" lon="6.80261">
        <ele>467.77</ele>
        <time>2020-08-18T07:05:41Z</time>
      </trkpt>
      <trkpt lat="47.94788" lon="6.80227">
        <ele>466.58</ele>
        <time>2020-08-18T07:05:43Z</time>
      </trkpt>
      <trkpt lat="47.94781" lon="6.80201">
        <ele>466.1</ele>
        <time>2020-08-18T07:05:45Z</time>
      </trkpt>
      <trkpt lat="47.94769" lon="6.8017">
        <ele>466.12</ele>
        <time>2020-08-18T07:05:48Z</time>
      </trkpt>
      <trkpt lat="47.94757" lon="6.8014">
        <ele>467.02</ele>
        <time>2020-08-18T07:05:51Z</time>
      </trkpt>
      <trkpt lat="47.94743" lon="6.80112">
        <ele>468.08</ele>
        <time>2020-08-18T07:05:54Z</time>
      </trkpt>
      <trkpt lat="47.94729" lon="6.8009">
        <ele>467.71</ele>
        <time>2020-08-18T07:05:56Z</time>
      </trkpt>
      <trkpt lat="47.94715" lon="6.80066">
        <ele>467.99</ele>
        <time>2020-08-18T07:05:58Z</time>
      </trkpt>
      <trkpt lat="47.94703" lon="6.80044">
        <ele>467.21</ele>
        <time>2020-08-18T07:06:00Z</time>
      </trkpt>
      <trkpt lat="47.94697" lon="6.80018">
        <ele>465.87</ele>
        <time>2020-08-18T07:06:02Z</time>
      </trkpt>
      <trkpt lat="47.94695" lon="6.79987">
        <ele>464.42</ele>
        <time>2020-08-18T07:06:04Z</time>
      </trkpt>
      <trkpt lat="47.94692" lon="6.79958">
        <ele>461.8</ele>
        <time>2020-08-18T07:06:06Z</time>
      </trkpt>
      <trkpt lat="47.94688" lon="6.7992">
        <ele>458.58</ele>
        <time>2020-08-18T07:06:09Z</time>
      </trkpt>
      <trkpt lat="47.94685" lon="6.79879">
        <ele>455.2</ele>
        <time>2020-08-18T07:06:12Z</time>
      </trkpt>
      <trkpt lat="47.94681" lon="6.79851">
        <ele>453.57</ele>
        <time>2020-08-18T07:06:14Z</time>
      </trkpt>
      <trkpt lat="47.94674" lon="6.79815">
        <ele>451</ele>
        <time>2020-08-18T07:06:17Z</time>
      </trkpt>
      <trkpt lat="47.94669" lon="6.79783">
        <ele>449.68</ele>
        <time>2020-08-18T07:06:20Z</time>
      </trkpt>
      <trkpt lat="47.94662" lon="6.79749">
        <ele>448.05</ele>
        <time>2020-08-18T07:06:23Z</time>
      </trkpt>
      <trkpt lat="47.9466" lon="6.79712">
        <ele>446.3</ele>
        <time>2020-08-18T07:06:26Z</time>
      </trkpt>
      <trkpt lat="47.94656" lon="6.79676">
        <ele>444.17</ele>
        <time>2020-08-18T07:06:29Z</time>
      </trkpt>
      <trkpt lat="47.94653" lon="6.7964">
        <ele>440.98</ele>
        <time>2020-08-18T07:06:32Z</time>
      </trkpt>
      <trkpt lat="47.94648" lon="6.79605">
        <ele>436.11</ele>
        <time>2020-08-18T07:06:35Z</time>
      </trkpt>
      <trkpt lat="47.94643" lon="6.79576">
        <ele>433.6</ele>
        <time>2020-08-18T07:06:39Z</time>
      </trkpt>
      <trkpt lat="47.94643" lon="6.79546">
        <ele>434.39</ele>
        <time>2020-08-18T07:06:42Z</time>
      </trkpt>
      <trkpt lat="47.94642" lon="6.79518">
        <ele>435.3</ele>
        <time>2020-08-18T07:06:45Z</time>
      </trkpt>
      <trkpt lat="47.94643" lon="6.79484">
        <ele>435.24</ele>
        <time>2020-08-18T07:06:48Z</time>
      </trkpt>
      <trkpt lat="47.94644" lon="6.79452">
        <ele>434.68</ele>
        <time>2020-08-18T07:06:51Z</time>
      </trkpt>
      <trkpt lat="47.9464" lon="6.79418">
        <ele>432.83</ele>
        <time>2020-08-18T07:06:54Z</time>
      </trkpt>
      <trkpt lat="47.94636" lon="6.79383">
        <ele>431.93</ele>
        <time>2020-08-18T07:06:57Z</time>
      </trkpt>
      <trkpt lat="47.94631" lon="6.79348">
        <ele>430.76</ele>
        <time>2020-08-18T07:07:00Z</time>
      </trkpt>
      <trkpt lat="47.94621" lon="6.79314">
        <ele>430.15</ele>
        <time>2020-08-18T07:07:03Z</time>
      </trkpt>
      <trkpt lat="47.94614" lon="6.79284">
        <ele>430.2</ele>
        <time>2020-08-18T07:07:06Z</time>
      </trkpt>
      <trkpt lat="47.94605" lon="6.79249">
        <ele>424.18</ele>
        <time>2020-08-18T07:07:09Z</time>
      </trkpt>
      <trkpt lat="47.94597" lon="6.7921">
        <ele>421.87</ele>
        <time>2020-08-18T07:07:12Z</time>
      </trkpt>
      <trkpt lat="47.94591" lon="6.79173">
        <ele>418.7</ele>
        <time>2020-08-18T07:07:15Z</time>
      </trkpt>
      <trkpt lat="47.94586" lon="6.79137">
        <ele>417.17</ele>
        <time>2020-08-18T07:07:18Z</time>
      </trkpt>
      <trkpt lat="47.94583" lon="6.79102">
        <ele>416.87</ele>
        <time>2020-08-18T07:07:21Z</time>
      </trkpt>
      <trkpt lat="47.94581" lon="6.79067">
        <ele>418.34</ele>
        <time>2020-08-18T07:07:24Z</time>
      </trkpt>
      <trkpt lat="47.94577" lon="6.79033">
        <ele>419.5</ele>
        <time>2020-08-18T07:07:27Z</time>
      </trkpt>
      <trkpt lat="47.94574" lon="6.78996">
        <ele>419.72</ele>
        <time>2020-08-18T07:07:30Z</time>
      </trkpt>
      <trkpt lat="47.9457" lon="6.78962">
        <ele>419</ele>
        <time>2020-08-18T07:07:33Z</time>
      </trkpt>
      <trkpt lat="47.94567" lon="6.78934">
        <ele>417.3</ele>
        <time>2020-08-18T07:07:35Z</time>
      </trkpt>
      <trkpt lat="47.94564" lon="6.78899">
        <ele>419.15</ele>
        <time>2020-08-18T07:07:38Z</time>
      </trkpt>
      <trkpt lat="47.94557" lon="6.78866">
        <ele>421.27</ele>
        <time>2020-08-18T07:07:41Z</time>
      </trkpt>
      <trkpt lat="47.94553" lon="6.78833">
        <ele>423.94</ele>
        <time>2020-08-18T07:07:44Z</time>
      </trkpt>
      <trkpt lat="47.94549" lon="6.78798">
        <ele>425.02</ele>
        <time>2020-08-18T07:07:47Z</time>
      </trkpt>
      <trkpt lat="47.94546" lon="6.78763">
        <ele>424.75</ele>
        <time>2020-08-18T07:07:50Z</time>
      </trkpt>
      <trkpt lat="47.94544" lon="6.78732">
        <ele>425.55</ele>
        <time>2020-08-18T07:07:53Z</time>
      </trkpt>
      <trkpt lat="47.94542" lon="6.78702">
        <ele>426.41</ele>
        <time>2020-08-18T07:07:56Z</time>
      </trkpt>
      <trkpt lat="47.94543" lon="6.78671">
        <ele>426.46</ele>
        <time>2020-08-18T07:07:59Z</time>
      </trkpt>
      <trkpt lat="47.94546" lon="6.78642">
        <ele>426.22</ele>
        <time>2020-08-18T07:08:03Z</time>
      </trkpt>
      <trkpt lat="47.94546" lon="6.78613">
        <ele>425.75</ele>
        <time>2020-08-18T07:08:07Z</time>
      </trkpt>
      <trkpt lat="47.94544" lon="6.78578">
        <ele>424</ele>
        <time>2020-08-18T07:08:11Z</time>
      </trkpt>
      <trkpt lat="47.94542" lon="6.78547">
        <ele>421.09</ele>
        <time>2020-08-18T07:08:14Z</time>
      </trkpt>
      <trkpt lat="47.9454" lon="6.78515">
        <ele>418.66</ele>
        <time>2020-08-18T07:08:17Z</time>
      </trkpt>
      <trkpt lat="47.94538" lon="6.78482">
        <ele>418.01</ele>
        <time>2020-08-18T07:08:20Z</time>
      </trkpt>
      <trkpt lat="47.94538" lon="6.78447">
        <ele>418.27</ele>
        <time>2020-08-18T07:08:23Z</time>
      </trkpt>
      <trkpt lat="47.94539" lon="6.78409">
        <ele>417.51</ele>
        <time>2020-08-18T07:08:26Z</time>
      </trkpt>
      <trkpt lat="47.94539" lon="6.7837">
        <ele>415.54</ele>
        <time>2020-08-18T07:08:29Z</time>
      </trkpt>
      <trkpt lat="47.94539" lon="6.78334">
        <ele>411.3</ele>
        <time>2020-08-18T07:08:32Z</time>
      </trkpt>
      <trkpt lat="47.94536" lon="6.78302">
        <ele>409.27</ele>
        <time>2020-08-18T07:08:35Z</time>
      </trkpt>
      <trkpt lat="47.94533" lon="6.78269">
        <ele>409.2</ele>
        <time>2020-08-18T07:08:38Z</time>
      </trkpt>
      <trkpt lat="47.94533" lon="6.78234">
        <ele>408.61</ele>
        <time>2020-08-18T07:08:41Z</time>
      </trkpt>
      <trkpt lat="47.94535" lon="6.78205">
        <ele>407.15</ele>
        <time>2020-08-18T07:08:44Z</time>
      </trkpt>
      <trkpt lat="47.94536" lon="6.78177">
        <ele>406.34</ele>
        <time>2020-08-18T07:08:48Z</time>
      </trkpt>
      <trkpt lat="47.94536" lon="6.78143">
        <ele>406.87</ele>
        <time>2020-08-18T07:08:53Z</time>
      </trkpt>
      <trkpt lat="47.94534" lon="6.7811">
        <ele>407.67</ele>
        <time>2020-08-18T07:08:57Z</time>
      </trkpt>
      <trkpt lat="47.94529" lon="6.78077">
        <ele>410.97</ele>
        <time>2020-08-18T07:09:01Z</time>
      </trkpt>
      <trkpt lat="47.94527" lon="6.78046">
        <ele>412.84</ele>
        <time>2020-08-18T07:09:04Z</time>
      </trkpt>
      <trkpt lat="47.94524" lon="6.78015">
        <ele>413.98</ele>
        <time>2020-08-18T07:09:07Z</time>
      </trkpt>
      <trkpt lat="47.94521" lon="6.77988">
        <ele>415.92</ele>
        <time>2020-08-18T07:09:10Z</time>
      </trkpt>
      <trkpt lat="47.9452" lon="6.77956">
        <ele>416.82</ele>
        <time>2020-08-18T07:09:13Z</time>
      </trkpt>
      <trkpt lat="47.94519" lon="6.77922">
        <ele>417.13</ele>
        <time>2020-08-18T07:09:16Z</time>
      </trkpt>
      <trkpt lat="47.94519" lon="6.77889">
        <ele>418.62</ele>
        <time>2020-08-18T07:09:19Z</time>
      </trkpt>
      <trkpt lat="47.94518" lon="6.77857">
        <ele>420.65</ele>
        <time>2020-08-18T07:09:22Z</time>
      </trkpt>
      <trkpt lat="47.9452" lon="6.77822">
        <ele>421.41</ele>
        <time>2020-08-18T07:09:25Z</time>
      </trkpt>
      <trkpt lat="47.94521" lon="6.77786">
        <ele>420.8</ele>
        <time>2020-08-18T07:09:28Z</time>
      </trkpt>
      <trkpt lat="47.94523" lon="6.77748">
        <ele>418.36</ele>
        <time>2020-08-18T07:09:31Z</time>
      </trkpt>
      <trkpt lat="47.94523" lon="6.7771">
        <ele>416.73</ele>
        <time>2020-08-18T07:09:34Z</time>
      </trkpt>
      <trkpt lat="47.94526" lon="6.7767">
        <ele>414.06</ele>
        <time>2020-08-18T07:09:37Z</time>
      </trkpt>
      <trkpt lat="47.94529" lon="6.7764">
        <ele>408.23</ele>
        <time>2020-08-18T07:09:39Z</time>
      </trkpt>
      <trkpt lat="47.9453" lon="6.77608">
        <ele>407.52</ele>
        <time>2020-08-18T07:09:42Z</time>
      </trkpt>
      <trkpt lat="47.9453" lon="6.77574">
        <ele>409.36</ele>
        <time>2020-08-18T07:09:45Z</time>
      </trkpt>
      <trkpt lat="47.94531" lon="6.77539">
        <ele>411.17</ele>
        <time>2020-08-18T07:09:48Z</time>
      </trkpt>
      <trkpt lat="47.94533" lon="6.77504">
        <ele>412.92</ele>
        <time>2020-08-18T07:09:51Z</time>
      </trkpt>
      <trkpt lat="47.94534" lon="6.77466">
        <ele>414.47</ele>
        <time>2020-08-18T07:09:54Z</time>
      </trkpt>
      <trkpt lat="47.94534" lon="6.77432">
        <ele>414.3</ele>
        <time>2020-08-18T07:09:57Z</time>
      </trkpt>
      <trkpt lat="47.94537" lon="6.77397">
        <ele>415.04</ele>
        <time>2020-08-18T07:10:00Z</time>
      </trkpt>
      <trkpt lat="47.94546" lon="6.77365">
        <ele>415.9</ele>
        <time>2020-08-18T07:10:03Z</time>
      </trkpt>
      <trkpt lat="47.94559" lon="6.77333">
        <ele>415.89</ele>
        <time>2020-08-18T07:10:06Z</time>
      </trkpt>
      <trkpt lat="47.94568" lon="6.77297">
        <ele>415.59</ele>
        <time>2020-08-18T07:10:09Z</time>
      </trkpt>
      <trkpt lat="47.94573" lon="6.77262">
        <ele>415.15</ele>
        <time>2020-08-18T07:10:12Z</time>
      </trkpt>
      <trkpt lat="47.94576" lon="6.77227">
        <ele>414.29</ele>
        <time>2020-08-18T07:10:15Z</time>
      </trkpt>
      <trkpt lat="47.94579" lon="6.77193">
        <ele>413.47</ele>
        <time>2020-08-18T07:10:18Z</time>
      </trkpt>
      <trkpt lat="47.94582" lon="6.7716">
        <ele>412.33</ele>
        <time>2020-08-18T07:10:21Z</time>
      </trkpt>
      <trkpt lat="47.94584" lon="6.77125">
        <ele>411.45</ele>
        <time>2020-08-18T07:10:24Z</time>
      </trkpt>
      <trkpt lat="47.94585" lon="6.77089">
        <ele>407.81</ele>
        <time>2020-08-18T07:10:27Z</time>
      </trkpt>
      <trkpt lat="47.94587" lon="6.77053">
        <ele>405.11</ele>
        <time>2020-08-18T07:10:30Z</time>
      </trkpt>
      <trkpt lat="47.94587" lon="6.77018">
        <ele>403.01</ele>
        <time>2020-08-18T07:10:33Z</time>
      </trkpt>
      <trkpt lat="47.94586" lon="6.7699">
        <ele>403.92</ele>
        <time>2020-08-18T07:10:36Z</time>
      </trkpt>
      <trkpt lat="47.94573" lon="6.76966">
        <ele>406.61</ele>
        <time>2020-08-18T07:10:40Z</time>
      </trkpt>
      <trkpt lat="47.94554" lon="6.76963">
        <ele>407.07</ele>
        <time>2020-08-18T07:10:43Z</time>
      </trkpt>
      <trkpt lat="47.94545" lon="6.76939">
        <ele>407.07</ele>
        <time>2020-08-18T07:10:47Z</time>
      </trkpt>
      <trkpt lat="47.9455" lon="6.76909">
        <ele>410.65</ele>
        <time>2020-08-18T07:10:52Z</time>
      </trkpt>
      <trkpt lat="47.94559" lon="6.76883">
        <ele>412.68</ele>
        <time>2020-08-18T07:10:57Z</time>
      </trkpt>
      <trkpt lat="47.94562" lon="6.76855">
        <ele>414.13</ele>
        <time>2020-08-18T07:11:01Z</time>
      </trkpt>
      <trkpt lat="47.94563" lon="6.76819">
        <ele>412.98</ele>
        <time>2020-08-18T07:11:05Z</time>
      </trkpt>
      <trkpt lat="47.94564" lon="6.7679">
        <ele>412.74</ele>
        <time>2020-08-18T07:11:08Z</time>
      </trkpt>
      <trkpt lat="47.94564" lon="6.76756">
        <ele>412.26</ele>
        <time>2020-08-18T07:11:11Z</time>
      </trkpt>
      <trkpt lat="47.94564" lon="6.76722">
        <ele>412.06</ele>
        <time>2020-08-18T07:11:14Z</time>
      </trkpt>
      <trkpt lat="47.94563" lon="6.76688">
        <ele>411.98</ele>
        <time>2020-08-18T07:11:17Z</time>
      </trkpt>
      <trkpt lat="47.94563" lon="6.76652">
        <ele>408.93</ele>
        <time>2020-08-18T07:11:20Z</time>
      </trkpt>
      <trkpt lat="47.94563" lon="6.76615">
        <ele>407.05</ele>
        <time>2020-08-18T07:11:23Z</time>
      </trkpt>
      <trkpt lat="47.94563" lon="6.76583">
        <ele>407.42</ele>
        <time>2020-08-18T07:11:26Z</time>
      </trkpt>
      <trkpt lat="47.94564" lon="6.76547">
        <ele>408.35</ele>
        <time>2020-08-18T07:11:29Z</time>
      </trkpt>
      <trkpt lat="47.94563" lon="6.76514">
        <ele>408.63</ele>
        <time>2020-08-18T07:11:32Z</time>
      </trkpt>
      <trkpt lat="47.94565" lon="6.76479">
        <ele>411.12</ele>
        <time>2020-08-18T07:11:35Z</time>
      </trkpt>
      <trkpt lat="47.94565" lon="6.76448">
        <ele>413.86</ele>
        <time>2020-08-18T07:11:38Z</time>
      </trkpt>
      <trkpt lat="47.94567" lon="6.76417">
        <ele>415.24</ele>
        <time>2020-08-18T07:11:41Z</time>
      </trkpt>
      <trkpt lat="47.9457" lon="6.76383">
        <ele>417.05</ele>
        <time>2020-08-18T07:11:44Z</time>
      </trkpt>
      <trkpt lat="47.94573" lon="6.76355">
        <ele>419.09</ele>
        <time>2020-08-18T07:11:47Z</time>
      </trkpt>
      <trkpt lat="47.94581" lon="6.76329">
        <ele>420.68</ele>
        <time>2020-08-18T07:11:50Z</time>
      </trkpt>
      <trkpt lat="47.94587" lon="6.76296">
        <ele>419.52</ele>
        <time>2020-08-18T07:11:53Z</time>
      </trkpt>
      <trkpt lat="47.94591" lon="6.76266">
        <ele>419.44</ele>
        <time>2020-08-18T07:11:56Z</time>
      </trkpt>
      <trkpt lat="47.94594" lon="6.76237">
        <ele>420.08</ele>
        <time>2020-08-18T07:11:59Z</time>
      </trkpt>
      <trkpt lat="47.94597" lon="6.76204">
        <ele>420.55</ele>
        <time>2020-08-18T07:12:02Z</time>
      </trkpt>
      <trkpt lat="47.94598" lon="6.76169">
        <ele>419.98</ele>
        <time>2020-08-18T07:12:05Z</time>
      </trkpt>
      <trkpt lat="47.94597" lon="6.76137">
        <ele>420.09</ele>
        <time>2020-08-18T07:12:08Z</time>
      </trkpt>
      <trkpt lat="47.94597" lon="6.76098">
        <ele>419.59</ele>
        <time>2020-08-18T07:12:11Z</time>
      </trkpt>
      <trkpt lat="47.94592" lon="6.76061">
        <ele>419.78</ele>
        <time>2020-08-18T07:12:14Z</time>
      </trkpt>
      <trkpt lat="47.94593" lon="6.76027">
        <ele>419.37</ele>
        <time>2020-08-18T07:12:17Z</time>
      </trkpt>
      <trkpt lat="47.94594" lon="6.75991">
        <ele>418.2</ele>
        <time>2020-08-18T07:12:20Z</time>
      </trkpt>
      <trkpt lat="47.94598" lon="6.75954">
        <ele>417.1</ele>
        <time>2020-08-18T07:12:23Z</time>
      </trkpt>
      <trkpt lat="47.94602" lon="6.75916">
        <ele>415.43</ele>
        <time>2020-08-18T07:12:26Z</time>
      </trkpt>
      <trkpt lat="47.94609" lon="6.75881">
        <ele>414.63</ele>
        <time>2020-08-18T07:12:29Z</time>
      </trkpt>
      <trkpt lat="47.94618" lon="6.75849">
        <ele>413.75</ele>
        <time>2020-08-18T07:12:32Z</time>
      </trkpt>
      <trkpt lat="47.94628" lon="6.75819">
        <ele>413.44</ele>
        <time>2020-08-18T07:12:35Z</time>
      </trkpt>
      <trkpt lat="47.9464" lon="6.7579">
        <ele>412.83</ele>
        <time>2020-08-18T07:12:38Z</time>
      </trkpt>
      <trkpt lat="47.94653" lon="6.75762">
        <ele>412.86</ele>
        <time>2020-08-18T07:12:41Z</time>
      </trkpt>
      <trkpt lat="47.94668" lon="6.75734">
        <ele>413.36</ele>
        <time>2020-08-18T07:12:44Z</time>
      </trkpt>
      <trkpt lat="47.94684" lon="6.75706">
        <ele>413.74</ele>
        <time>2020-08-18T07:12:47Z</time>
      </trkpt>
      <trkpt lat="47.94701" lon="6.75679">
        <ele>414.48</ele>
        <time>2020-08-18T07:12:50Z</time>
      </trkpt>
      <trkpt lat="47.94718" lon="6.7565">
        <ele>414.28</ele>
        <time>2020-08-18T07:12:53Z</time>
      </trkpt>
      <trkpt lat="47.94733" lon="6.75625">
        <ele>412.93</ele>
        <time>2020-08-18T07:12:56Z</time>
      </trkpt>
      <trkpt lat="47.9475" lon="6.75598">
        <ele>411.87</ele>
        <time>2020-08-18T07:12:59Z</time>
      </trkpt>
      <trkpt lat="47.94768" lon="6.75575">
        <ele>411.75</ele>
        <time>2020-08-18T07:13:02Z</time>
      </trkpt>
      <trkpt lat="47.94785" lon="6.7555">
        <ele>410.55</ele>
        <time>2020-08-18T07:13:05Z</time>
      </trkpt>
      <trkpt lat="47.948" lon="6.75525">
        <ele>411.05</ele>
        <time>2020-08-18T07:13:08Z</time>
      </trkpt>
      <trkpt lat="47.94814" lon="6.75503">
        <ele>412.2</ele>
        <time>2020-08-18T07:13:11Z</time>
      </trkpt>
      <trkpt lat="47.94824" lon="6.75481">
        <ele>412.36</ele>
        <time>2020-08-18T07:13:14Z</time>
      </trkpt>
      <trkpt lat="47.94836" lon="6.75456">
        <ele>411.52</ele>
        <time>2020-08-18T07:13:18Z</time>
      </trkpt>
      <trkpt lat="47.94851" lon="6.75439">
        <ele>412.1</ele>
        <time>2020-08-18T07:13:23Z</time>
      </trkpt>
      <trkpt lat="47.94864" lon="6.75416">
        <ele>409.94</ele>
        <time>2020-08-18T07:13:29Z</time>
      </trkpt>
      <trkpt lat="47.94878" lon="6.75389">
        <ele>408.02</ele>
        <time>2020-08-18T07:13:34Z</time>
      </trkpt>
      <trkpt lat="47.94891" lon="6.75362">
        <ele>407.67</ele>
        <time>2020-08-18T07:13:38Z</time>
      </trkpt>
      <trkpt lat="47.94901" lon="6.75339">
        <ele>408.6</ele>
        <time>2020-08-18T07:13:41Z</time>
      </trkpt>
      <trkpt lat="47.94912" lon="6.75317">
        <ele>408.92</ele>
        <time>2020-08-18T07:13:44Z</time>
      </trkpt>
      <trkpt lat="47.94921" lon="6.75292">
        <ele>409.79</ele>
        <time>2020-08-18T07:13:47Z</time>
      </trkpt>
      <trkpt lat="47.94935" lon="6.75268">
        <ele>408.84</ele>
        <time>2020-08-18T07:13:50Z</time>
      </trkpt>
      <trkpt lat="47.94943" lon="6.75243">
        <ele>406.78</ele>
        <time>2020-08-18T07:13:53Z</time>
      </trkpt>
      <trkpt lat="47.94951" lon="6.75212">
        <ele>404.26</ele>
        <time>2020-08-18T07:13:56Z</time>
      </trkpt>
      <trkpt lat="47.9496" lon="6.75182">
        <ele>401.45</ele>
        <time>2020-08-18T07:13:59Z</time>
      </trkpt>
      <trkpt lat="47.94968" lon="6.7515">
        <ele>398.94</ele>
        <time>2020-08-18T07:14:02Z</time>
      </trkpt>
      <trkpt lat="47.94976" lon="6.75119">
        <ele>397.2</ele>
        <time>2020-08-18T07:14:05Z</time>
      </trkpt>
      <trkpt lat="47.94985" lon="6.75086">
        <ele>395.19</ele>
        <time>2020-08-18T07:14:08Z</time>
      </trkpt>
      <trkpt lat="47.94995" lon="6.75051">
        <ele>391.75</ele>
        <time>2020-08-18T07:14:11Z</time>
      </trkpt>
      <trkpt lat="47.95001" lon="6.75016">
        <ele>392.07</ele>
        <time>2020-08-18T07:14:14Z</time>
      </trkpt>
      <trkpt lat="47.95008" lon="6.74983">
        <ele>394.81</ele>
        <time>2020-08-18T07:14:17Z</time>
      </trkpt>
      <trkpt lat="47.95016" lon="6.7495">
        <ele>397.25</ele>
        <time>2020-08-18T07:14:20Z</time>
      </trkpt>
      <trkpt lat="47.95024" lon="6.74917">
        <ele>398.53</ele>
        <time>2020-08-18T07:14:23Z</time>
      </trkpt>
      <trkpt lat="47.95034" lon="6.74884">
        <ele>398.59</ele>
        <time>2020-08-18T07:14:26Z</time>
      </trkpt>
      <trkpt lat="47.95046" lon="6.74851">
        <ele>398.65</ele>
        <time>2020-08-18T07:14:29Z</time>
      </trkpt>
      <trkpt lat="47.95058" lon="6.74821">
        <ele>399.32</ele>
        <time>2020-08-18T07:14:32Z</time>
      </trkpt>
      <trkpt lat="47.95071" lon="6.74792">
        <ele>400.96</ele>
        <time>2020-08-18T07:14:35Z</time>
      </trkpt>
      <trkpt lat="47.95084" lon="6.74767">
        <ele>402.5</ele>
        <time>2020-08-18T07:14:38Z</time>
      </trkpt>
      <trkpt lat="47.95099" lon="6.74742">
        <ele>397.46</ele>
        <time>2020-08-18T07:14:41Z</time>
      </trkpt>
      <trkpt lat="47.95113" lon="6.7472">
        <ele>394.6</ele>
        <time>2020-08-18T07:14:44Z</time>
      </trkpt>
      <trkpt lat="47.95129" lon="6.747">
        <ele>391.13</ele>
        <time>2020-08-18T07:14:47Z</time>
      </trkpt>
      <trkpt lat="47.95147" lon="6.74681">
        <ele>387.43</ele>
        <time>2020-08-18T07:14:50Z</time>
      </trkpt>
      <trkpt lat="47.95166" lon="6.74665">
        <ele>385.85</ele>
        <time>2020-08-18T07:14:53Z</time>
      </trkpt>
      <trkpt lat="47.95186" lon="6.74648">
        <ele>385.32</ele>
        <time>2020-08-18T07:14:56Z</time>
      </trkpt>
      <trkpt lat="47.95204" lon="6.7463">
        <ele>386.41</ele>
        <time>2020-08-18T07:14:59Z</time>
      </trkpt>
      <trkpt lat="47.95223" lon="6.74611">
        <ele>388.64</ele>
        <time>2020-08-18T07:15:02Z</time>
      </trkpt>
      <trkpt lat="47.95241" lon="6.74593">
        <ele>391.28</ele>
        <time>2020-08-18T07:15:05Z</time>
      </trkpt>
      <trkpt lat="47.95259" lon="6.74575">
        <ele>395.15</ele>
        <time>2020-08-18T07:15:08Z</time>
      </trkpt>
      <trkpt lat="47.95275" lon="6.74555">
        <ele>398.95</ele>
        <time>2020-08-18T07:15:11Z</time>
      </trkpt>
      <trkpt lat="47.95293" lon="6.74541">
        <ele>401.56</ele>
        <time>2020-08-18T07:15:14Z</time>
      </trkpt>
      <trkpt lat="47.95313" lon="6.74534">
        <ele>405.41</ele>
        <time>2020-08-18T07:15:17Z</time>
      </trkpt>
      <trkpt lat="47.95333" lon="6.74528">
        <ele>407.17</ele>
        <time>2020-08-18T07:15:20Z</time>
      </trkpt>
      <trkpt lat="47.95353" lon="6.74525">
        <ele>407.6</ele>
        <time>2020-08-18T07:15:23Z</time>
      </trkpt>
      <trkpt lat="47.95375" lon="6.74518">
        <ele>404.95</ele>
        <time>2020-08-18T07:15:27Z</time>
      </trkpt>
      <trkpt lat="47.95379" lon="6.74486">
        <ele>402.78</ele>
        <time>2020-08-18T07:15:31Z</time>
      </trkpt>
      <trkpt lat="47.95357" lon="6.74487">
        <ele>401.48</ele>
        <time>2020-08-18T07:15:36Z</time>
      </trkpt>
      <trkpt lat="47.95338" lon="6.74495">
        <ele>402.63</ele>
        <time>2020-08-18T07:15:40Z</time>
      </trkpt>
      <trkpt lat="47.95317" lon="6.74495">
        <ele>406.56</ele>
        <time>2020-08-18T07:15:45Z</time>
      </trkpt>
      <trkpt lat="47.95324" lon="6.7447">
        <ele>407.24</ele>
        <time>2020-08-18T07:15:50Z</time>
      </trkpt>
      <trkpt lat="47.95336" lon="6.74444">
        <ele>408.11</ele>
        <time>2020-08-18T07:15:54Z</time>
      </trkpt>
      <trkpt lat="47.95347" lon="6.74416">
        <ele>408.81</ele>
        <time>2020-08-18T07:15:58Z</time>
      </trkpt>
      <trkpt lat="47.95358" lon="6.74387">
        <ele>409.36</ele>
        <time>2020-08-18T07:16:02Z</time>
      </trkpt>
      <trkpt lat="47.95369" lon="6.74355">
        <ele>410.92</ele>
        <time>2020-08-18T07:16:06Z</time>
      </trkpt>
      <trkpt lat="47.95381" lon="6.74334">
        <ele>408.55</ele>
        <time>2020-08-18T07:16:09Z</time>
      </trkpt>
      <trkpt lat="47.95394" lon="6.74311">
        <ele>407.6</ele>
        <time>2020-08-18T07:16:12Z</time>
      </trkpt>
      <trkpt lat="47.95405" lon="6.74283">
        <ele>405.7</ele>
        <time>2020-08-18T07:16:16Z</time>
      </trkpt>
      <trkpt lat="47.95418" lon="6.74259">
        <ele>402.85</ele>
        <time>2020-08-18T07:16:21Z</time>
      </trkpt>
      <trkpt lat="47.9543" lon="6.74235">
        <ele>400.93</ele>
        <time>2020-08-18T07:16:27Z</time>
      </trkpt>
      <trkpt lat="47.95446" lon="6.74209">
        <ele>400.73</ele>
        <time>2020-08-18T07:16:32Z</time>
      </trkpt>
      <trkpt lat="47.95462" lon="6.74182">
        <ele>401.21</ele>
        <time>2020-08-18T07:16:36Z</time>
      </trkpt>
      <trkpt lat="47.95474" lon="6.7416">
        <ele>402.25</ele>
        <time>2020-08-18T07:16:39Z</time>
      </trkpt>
      <trkpt lat="47.9549" lon="6.74137">
        <ele>402.86</ele>
        <time>2020-08-18T07:16:42Z</time>
      </trkpt>
      <trkpt lat="47.95508" lon="6.74116">
        <ele>402.29</ele>
        <time>2020-08-18T07:16:45Z</time>
      </trkpt>
      <trkpt lat="47.95522" lon="6.74095">
        <ele>401.39</ele>
        <time>2020-08-18T07:16:48Z</time>
      </trkpt>
      <trkpt lat="47.95538" lon="6.74072">
        <ele>400.61</ele>
        <time>2020-08-18T07:16:51Z</time>
      </trkpt>
      <trkpt lat="47.95555" lon="6.74049">
        <ele>399.4</ele>
        <time>2020-08-18T07:16:54Z</time>
      </trkpt>
      <trkpt lat="47.95571" lon="6.74026">
        <ele>398.49</ele>
        <time>2020-08-18T07:16:57Z</time>
      </trkpt>
      <trkpt lat="47.95588" lon="6.74004">
        <ele>398.09</ele>
        <time>2020-08-18T07:17:00Z</time>
      </trkpt>
      <trkpt lat="47.95605" lon="6.73983">
        <ele>397.37</ele>
        <time>2020-08-18T07:17:03Z</time>
      </trkpt>
      <trkpt lat="47.95622" lon="6.73962">
        <ele>396.66</ele>
        <time>2020-08-18T07:17:06Z</time>
      </trkpt>
      <trkpt lat="47.95638" lon="6.73942">
        <ele>396.39</ele>
        <time>2020-08-18T07:17:09Z</time>
      </trkpt>
      <trkpt lat="47.95657" lon="6.73921">
        <ele>395.6</ele>
        <time>2020-08-18T07:17:12Z</time>
      </trkpt>
      <trkpt lat="47.95674" lon="6.739">
        <ele>394.79</ele>
        <time>2020-08-18T07:17:15Z</time>
      </trkpt>
      <trkpt lat="47.95691" lon="6.7388">
        <ele>395.41</ele>
        <time>2020-08-18T07:17:18Z</time>
      </trkpt>
      <trkpt lat="47.95708" lon="6.73862">
        <ele>394.83</ele>
        <time>2020-08-18T07:17:21Z</time>
      </trkpt>
      <trkpt lat="47.95723" lon="6.73845">
        <ele>395.8</ele>
        <time>2020-08-18T07:17:24Z</time>
      </trkpt>
      <trkpt lat="47.95738" lon="6.73827">
        <ele>395.12</ele>
        <time>2020-08-18T07:17:27Z</time>
      </trkpt>
      <trkpt lat="47.95751" lon="6.73809">
        <ele>393.33</ele>
        <time>2020-08-18T07:17:31Z</time>
      </trkpt>
      <trkpt lat="47.95766" lon="6.73791">
        <ele>394.28</ele>
        <time>2020-08-18T07:17:36Z</time>
      </trkpt>
      <trkpt lat="47.95781" lon="6.73774">
        <ele>399.15</ele>
        <time>2020-08-18T07:17:40Z</time>
      </trkpt>
      <trkpt lat="47.95801" lon="6.73757">
        <ele>398.86</ele>
        <time>2020-08-18T07:17:44Z</time>
      </trkpt>
      <trkpt lat="47.95818" lon="6.73742">
        <ele>397.4</ele>
        <time>2020-08-18T07:17:47Z</time>
      </trkpt>
      <trkpt lat="47.95836" lon="6.73724">
        <ele>397.05</ele>
        <time>2020-08-18T07:17:50Z</time>
      </trkpt>
      <trkpt lat="47.95853" lon="6.73705">
        <ele>395.15</ele>
        <time>2020-08-18T07:17:53Z</time>
      </trkpt>
      <trkpt lat="47.95871" lon="6.73687">
        <ele>394.16</ele>
        <time>2020-08-18T07:17:56Z</time>
      </trkpt>
      <trkpt lat="47.9589" lon="6.73667">
        <ele>392.38</ele>
        <time>2020-08-18T07:17:59Z</time>
      </trkpt>
      <trkpt lat="47.95907" lon="6.73656">
        <ele>389.89</ele>
        <time>2020-08-18T07:18:01Z</time>
      </trkpt>
      <trkpt lat="47.95925" lon="6.73637">
        <ele>383.96</ele>
        <time>2020-08-18T07:18:04Z</time>
      </trkpt>
      <trkpt lat="47.95944" lon="6.73618">
        <ele>383.98</ele>
        <time>2020-08-18T07:18:07Z</time>
      </trkpt>
      <trkpt lat="47.95961" lon="6.73599">
        <ele>386.36</ele>
        <time>2020-08-18T07:18:10Z</time>
      </trkpt>
      <trkpt lat="47.95977" lon="6.7358">
        <ele>387.76</ele>
        <time>2020-08-18T07:18:13Z</time>
      </trkpt>
      <trkpt lat="47.95994" lon="6.73562">
        <ele>388.09</ele>
        <time>2020-08-18T07:18:16Z</time>
      </trkpt>
      <trkpt lat="47.9601" lon="6.73544">
        <ele>389.38</ele>
        <time>2020-08-18T07:18:19Z</time>
      </trkpt>
      <trkpt lat="47.96027" lon="6.73529">
        <ele>390.26</ele>
        <time>2020-08-18T07:18:22Z</time>
      </trkpt>
      <trkpt lat="47.96044" lon="6.73513">
        <ele>391.27</ele>
        <time>2020-08-18T07:18:25Z</time>
      </trkpt>
      <trkpt lat="47.96061" lon="6.73495">
        <ele>393.78</ele>
        <time>2020-08-18T07:18:28Z</time>
      </trkpt>
      <trkpt lat="47.96081" lon="6.73478">
        <ele>394.53</ele>
        <time>2020-08-18T07:18:31Z</time>
      </trkpt>
      <trkpt lat="47.96099" lon="6.73457">
        <ele>393.88</ele>
        <time>2020-08-18T07:18:34Z</time>
      </trkpt>
      <trkpt lat="47.9612" lon="6.73439">
        <ele>393.66</ele>
        <time>2020-08-18T07:18:37Z</time>
      </trkpt>
      <trkpt lat="47.9614" lon="6.73425">
        <ele>391.15</ele>
        <time>2020-08-18T07:18:40Z</time>
      </trkpt>
      <trkpt lat="47.96159" lon="6.73411">
        <ele>391.81</ele>
        <time>2020-08-18T07:18:43Z</time>
      </trkpt>
      <trkpt lat="47.96182" lon="6.734">
        <ele>393.25</ele>
        <time>2020-08-18T07:18:46Z</time>
      </trkpt>
      <trkpt lat="47.96204" lon="6.73392">
        <ele>394.17</ele>
        <time>2020-08-18T07:18:49Z</time>
      </trkpt>
      <trkpt lat="47.96226" lon="6.73384">
        <ele>396.45</ele>
        <time>2020-08-18T07:18:52Z</time>
      </trkpt>
      <trkpt lat="47.96246" lon="6.73378">
        <ele>397.49</ele>
        <time>2020-08-18T07:18:55Z</time>
      </trkpt>
      <trkpt lat="47.96266" lon="6.73363">
        <ele>396.17</ele>
        <time>2020-08-18T07:18:59Z</time>
      </trkpt>
      <trkpt lat="47.96285" lon="6.73352">
        <ele>395.99</ele>
        <time>2020-08-18T07:19:02Z</time>
      </trkpt>
      <trkpt lat="47.96312" lon="6.73356">
        <ele>394.9</ele>
        <time>2020-08-18T07:19:05Z</time>
      </trkpt>
      <trkpt lat="47.96334" lon="6.73354">
        <ele>392.41</ele>
        <time>2020-08-18T07:19:08Z</time>
      </trkpt>
      <trkpt lat="47.96352" lon="6.73352">
        <ele>389.81</ele>
        <time>2020-08-18T07:19:11Z</time>
      </trkpt>
      <trkpt lat="47.96371" lon="6.73352">
        <ele>387.76</ele>
        <time>2020-08-18T07:19:14Z</time>
      </trkpt>
      <trkpt lat="47.96391" lon="6.73352">
        <ele>386.9</ele>
        <time>2020-08-18T07:19:17Z</time>
      </trkpt>
      <trkpt lat="47.96409" lon="6.73338">
        <ele>385.42</ele>
        <time>2020-08-18T07:19:20Z</time>
      </trkpt>
      <trkpt lat="47.96431" lon="6.7333">
        <ele>385.95</ele>
        <time>2020-08-18T07:19:24Z</time>
      </trkpt>
      <trkpt lat="47.96454" lon="6.73322">
        <ele>385.45</ele>
        <time>2020-08-18T07:19:28Z</time>
      </trkpt>
      <trkpt lat="47.96476" lon="6.73312">
        <ele>384.61</ele>
        <time>2020-08-18T07:19:31Z</time>
      </trkpt>
      <trkpt lat="47.9649" lon="6.73296">
        <ele>383.75</ele>
        <time>2020-08-18T07:19:34Z</time>
      </trkpt>
      <trkpt lat="47.96509" lon="6.73285">
        <ele>384.55</ele>
        <time>2020-08-18T07:19:38Z</time>
      </trkpt>
      <trkpt lat="47.96536" lon="6.73273">
        <ele>382.78</ele>
        <time>2020-08-18T07:19:41Z</time>
      </trkpt>
      <trkpt lat="47.96553" lon="6.73254">
        <ele>382.11</ele>
        <time>2020-08-18T07:19:43Z</time>
      </trkpt>
      <trkpt lat="47.96573" lon="6.7323">
        <ele>381.17</ele>
        <time>2020-08-18T07:19:46Z</time>
      </trkpt>
      <trkpt lat="47.96582" lon="6.73203">
        <ele>379.54</ele>
        <time>2020-08-18T07:19:49Z</time>
      </trkpt>
      <trkpt lat="47.96595" lon="6.73177">
        <ele>377.93</ele>
        <time>2020-08-18T07:19:52Z</time>
      </trkpt>
      <trkpt lat="47.96603" lon="6.73148">
        <ele>376.69</ele>
        <time>2020-08-18T07:19:55Z</time>
      </trkpt>
      <trkpt lat="47.96613" lon="6.7312">
        <ele>375.63</ele>
        <time>2020-08-18T07:19:58Z</time>
      </trkpt>
      <trkpt lat="47.96624" lon="6.73099">
        <ele>374.43</ele>
        <time>2020-08-18T07:20:01Z</time>
      </trkpt>
      <trkpt lat="47.96639" lon="6.73078">
        <ele>372.66</ele>
        <time>2020-08-18T07:20:04Z</time>
      </trkpt>
      <trkpt lat="47.96655" lon="6.7305">
        <ele>372.01</ele>
        <time>2020-08-18T07:20:07Z</time>
      </trkpt>
      <trkpt lat="47.96663" lon="6.73026">
        <ele>376.64</ele>
        <time>2020-08-18T07:20:09Z</time>
      </trkpt>
      <trkpt lat="47.96665" lon="6.72995">
        <ele>377.3</ele>
        <time>2020-08-18T07:20:11Z</time>
      </trkpt>
      <trkpt lat="47.9667" lon="6.72969">
        <ele>380.07</ele>
        <time>2020-08-18T07:20:13Z</time>
      </trkpt>
      <trkpt lat="47.9668" lon="6.72933">
        <ele>386.26</ele>
        <time>2020-08-18T07:20:16Z</time>
      </trkpt>
      <trkpt lat="47.9669" lon="6.72899">
        <ele>392.71</ele>
        <time>2020-08-18T07:20:19Z</time>
      </trkpt>
      <trkpt lat="47.96702" lon="6.72866">
        <ele>395.69</ele>
        <time>2020-08-18T07:20:22Z</time>
      </trkpt>
      <trkpt lat="47.96713" lon="6.72835">
        <ele>398.43</ele>
        <time>2020-08-18T07:20:25Z</time>
      </trkpt>
      <trkpt lat="47.96724" lon="6.72805">
        <ele>397.89</ele>
        <time>2020-08-18T07:20:28Z</time>
      </trkpt>
      <trkpt lat="47.96738" lon="6.72774">
        <ele>396.02</ele>
        <time>2020-08-18T07:20:31Z</time>
      </trkpt>
      <trkpt lat="47.9675" lon="6.72753">
        <ele>391.12</ele>
        <time>2020-08-18T07:20:33Z</time>
      </trkpt>
      <trkpt lat="47.96767" lon="6.72728">
        <ele>382.78</ele>
        <time>2020-08-18T07:20:36Z</time>
      </trkpt>
      <trkpt lat="47.96786" lon="6.72704">
        <ele>378.45</ele>
        <time>2020-08-18T07:20:39Z</time>
      </trkpt>
      <trkpt lat="47.96803" lon="6.7268">
        <ele>374.45</ele>
        <time>2020-08-18T07:20:42Z</time>
      </trkpt>
      <trkpt lat="47.96821" lon="6.72656">
        <ele>369.65</ele>
        <time>2020-08-18T07:20:45Z</time>
      </trkpt>
      <trkpt lat="47.96838" lon="6.72633">
        <ele>366.1</ele>
        <time>2020-08-18T07:20:48Z</time>
      </trkpt>
      <trkpt lat="47.96856" lon="6.72608">
        <ele>363.85</ele>
        <time>2020-08-18T07:20:51Z</time>
      </trkpt>
      <trkpt lat="47.96872" lon="6.72581">
        <ele>365.24</ele>
        <time>2020-08-18T07:20:54Z</time>
      </trkpt>
      <trkpt lat="47.96885" lon="6.72548">
        <ele>362.26</ele>
        <time>2020-08-18T07:20:57Z</time>
      </trkpt>
      <trkpt lat="47.96888" lon="6.72517">
        <ele>359.22</ele>
        <time>2020-08-18T07:21:00Z</time>
      </trkpt>
      <trkpt lat="47.9691" lon="6.725">
        <ele>357.53</ele>
        <time>2020-08-18T07:21:03Z</time>
      </trkpt>
      <trkpt lat="47.96927" lon="6.72491">
        <ele>356.87</ele>
        <time>2020-08-18T07:21:05Z</time>
      </trkpt>
      <trkpt lat="47.96946" lon="6.72483">
        <ele>357.44</ele>
        <time>2020-08-18T07:21:07Z</time>
      </trkpt>
      <trkpt lat="47.96963" lon="6.72462">
        <ele>359.08</ele>
        <time>2020-08-18T07:21:10Z</time>
      </trkpt>
      <trkpt lat="47.96976" lon="6.7248">
        <ele>371.6</ele>
        <time>2020-08-18T07:21:19Z</time>
      </trkpt>
      <trkpt lat="47.96984" lon="6.72506">
        <ele>372.98</ele>
        <time>2020-08-18T07:21:22Z</time>
      </trkpt>
      <trkpt lat="47.96988" lon="6.7254">
        <ele>373.49</ele>
        <time>2020-08-18T07:21:25Z</time>
      </trkpt>
      <trkpt lat="47.9699" lon="6.72568">
        <ele>376.02</ele>
        <time>2020-08-18T07:21:28Z</time>
      </trkpt>
      <trkpt lat="47.96991" lon="6.72605">
        <ele>380.43</ele>
        <time>2020-08-18T07:21:31Z</time>
      </trkpt>
      <trkpt lat="47.96981" lon="6.72641">
        <ele>383.07</ele>
        <time>2020-08-18T07:21:34Z</time>
      </trkpt>
      <trkpt lat="47.9697" lon="6.72679">
        <ele>384.66</ele>
        <time>2020-08-18T07:21:37Z</time>
      </trkpt>
      <trkpt lat="47.96962" lon="6.72703">
        <ele>386.27</ele>
        <time>2020-08-18T07:21:39Z</time>
      </trkpt>
      <trkpt lat="47.96952" lon="6.72734">
        <ele>390.96</ele>
        <time>2020-08-18T07:21:42Z</time>
      </trkpt>
      <trkpt lat="47.96935" lon="6.7276">
        <ele>394.01</ele>
        <time>2020-08-18T07:21:45Z</time>
      </trkpt>
      <trkpt lat="47.96918" lon="6.72784">
        <ele>394.44</ele>
        <time>2020-08-18T07:21:48Z</time>
      </trkpt>
      <trkpt lat="47.96901" lon="6.72798">
        <ele>391.67</ele>
        <time>2020-08-18T07:21:50Z</time>
      </trkpt>
      <trkpt lat="47.9688" lon="6.72815">
        <ele>387.22</ele>
        <time>2020-08-18T07:21:53Z</time>
      </trkpt>
      <trkpt lat="47.96863" lon="6.72835">
        <ele>383.91</ele>
        <time>2020-08-18T07:21:56Z</time>
      </trkpt>
      <trkpt lat="47.96849" lon="6.72856">
        <ele>381.96</ele>
        <time>2020-08-18T07:21:59Z</time>
      </trkpt>
      <trkpt lat="47.96842" lon="6.72883">
        <ele>376.24</ele>
        <time>2020-08-18T07:22:02Z</time>
      </trkpt>
      <trkpt lat="47.96853" lon="6.72917">
        <ele>372.64</ele>
        <time>2020-08-18T07:22:05Z</time>
      </trkpt>
      <trkpt lat="47.96869" lon="6.72937">
        <ele>367.85</ele>
        <time>2020-08-18T07:22:09Z</time>
      </trkpt>
      <trkpt lat="47.96881" lon="6.72958">
        <ele>363.78</ele>
        <time>2020-08-18T07:22:12Z</time>
      </trkpt>
      <trkpt lat="47.96897" lon="6.72983">
        <ele>361.59</ele>
        <time>2020-08-18T07:22:16Z</time>
      </trkpt>
      <trkpt lat="47.96913" lon="6.73005">
        <ele>360.63</ele>
        <time>2020-08-18T07:22:20Z</time>
      </trkpt>
      <trkpt lat="47.96932" lon="6.73018">
        <ele>363.12</ele>
        <time>2020-08-18T07:22:24Z</time>
      </trkpt>
      <trkpt lat="47.9695" lon="6.73036">
        <ele>366.57</ele>
        <time>2020-08-18T07:22:28Z</time>
      </trkpt>
      <trkpt lat="47.96968" lon="6.73044">
        <ele>371.34</ele>
        <time>2020-08-18T07:22:33Z</time>
      </trkpt>
      <trkpt lat="47.96986" lon="6.73063">
        <ele>375.72</ele>
        <time>2020-08-18T07:22:38Z</time>
      </trkpt>
      <trkpt lat="47.97002" lon="6.73077">
        <ele>377.3</ele>
        <time>2020-08-18T07:22:43Z</time>
      </trkpt>
      <trkpt lat="47.9702" lon="6.73089">
        <ele>377.45</ele>
        <time>2020-08-18T07:22:49Z</time>
      </trkpt>
      <trkpt lat="47.9704" lon="6.73093">
        <ele>379.54</ele>
        <time>2020-08-18T07:23:12Z</time>
      </trkpt>
      <trkpt lat="47.97053" lon="6.73115">
        <ele>379.59</ele>
        <time>2020-08-18T07:23:17Z</time>
      </trkpt>
      <trkpt lat="47.97062" lon="6.7314">
        <ele>380.32</ele>
        <time>2020-08-18T07:23:24Z</time>
      </trkpt>
      <trkpt lat="47.97061" lon="6.73167">
        <ele>382.12</ele>
        <time>2020-08-18T07:23:30Z</time>
      </trkpt>
      <trkpt lat="47.97048" lon="6.73187">
        <ele>386.35</ele>
        <time>2020-08-18T07:23:38Z</time>
      </trkpt>
      <trkpt lat="47.97037" lon="6.73215">
        <ele>384.03</ele>
        <time>2020-08-18T07:23:42Z</time>
      </trkpt>
      <trkpt lat="47.97028" lon="6.73245">
        <ele>377.76</ele>
        <time>2020-08-18T07:23:46Z</time>
      </trkpt>
      <trkpt lat="47.97026" lon="6.73273">
        <ele>374.24</ele>
        <time>2020-08-18T07:23:55Z</time>
      </trkpt>
      <trkpt lat="47.97015" lon="6.73294">
        <ele>370.5</ele>
        <time>2020-08-18T07:24:02Z</time>
      </trkpt>
      <trkpt lat="47.97011" lon="6.73321">
        <ele>370.81</ele>
        <time>2020-08-18T07:24:09Z</time>
      </trkpt>
      <trkpt lat="47.97" lon="6.73342">
        <ele>381.84</ele>
        <time>2020-08-18T07:24:19Z</time>
      </trkpt>
      <trkpt lat="47.96991" lon="6.73367">
        <ele>374.09</ele>
        <time>2020-08-18T07:24:23Z</time>
      </trkpt>
      <trkpt lat="47.96987" lon="6.73395">
        <ele>365.62</ele>
        <time>2020-08-18T07:24:30Z</time>
      </trkpt>
      <trkpt lat="47.96994" lon="6.7342">
        <ele>371.62</ele>
        <time>2020-08-18T07:24:39Z</time>
      </trkpt>
      <trkpt lat="47.97005" lon="6.73442">
        <ele>377.03</ele>
        <time>2020-08-18T07:24:51Z</time>
      </trkpt>
      <trkpt lat="47.97011" lon="6.73474">
        <ele>378.65</ele>
        <time>2020-08-18T07:25:01Z</time>
      </trkpt>
      <trkpt lat="47.97019" lon="6.735">
        <ele>384.34</ele>
        <time>2020-08-18T07:25:11Z</time>
      </trkpt>
      <trkpt lat="47.97031" lon="6.73523">
        <ele>390.66</ele>
        <time>2020-08-18T07:25:20Z</time>
      </trkpt>
      <trkpt lat="47.97049" lon="6.7351">
        <ele>400.03</ele>
        <time>2020-08-18T07:25:28Z</time>
      </trkpt>
      <trkpt lat="47.97067" lon="6.73504">
        <ele>409.05</ele>
        <time>2020-08-18T07:25:38Z</time>
      </trkpt>
      <trkpt lat="47.97085" lon="6.73511">
        <ele>415.73</ele>
        <time>2020-08-18T07:25:48Z</time>
      </trkpt>
      <trkpt lat="47.97088" lon="6.73539">
        <ele>423.53</ele>
        <time>2020-08-18T07:25:59Z</time>
      </trkpt>
      <trkpt lat="47.97088" lon="6.73566">
        <ele>428.8</ele>
        <time>2020-08-18T07:26:08Z</time>
      </trkpt>
      <trkpt lat="47.97085" lon="6.73593">
        <ele>432.82</ele>
        <time>2020-08-18T07:26:17Z</time>
      </trkpt>
      <trkpt lat="47.97082" lon="6.7362">
        <ele>431.14</ele>
        <time>2020-08-18T07:26:27Z</time>
      </trkpt>
      <trkpt lat="47.9708" lon="6.73648">
        <ele>433.41</ele>
        <time>2020-08-18T07:26:34Z</time>
      </trkpt>
      <trkpt lat="47.97075" lon="6.73675">
        <ele>426.81</ele>
        <time>2020-08-18T07:26:40Z</time>
      </trkpt>
      <trkpt lat="47.97068" lon="6.73701">
        <ele>421.84</ele>
        <time>2020-08-18T07:26:51Z</time>
      </trkpt>
      <trkpt lat="47.97055" lon="6.73722">
        <ele>423.59</ele>
        <time>2020-08-18T07:27:01Z</time>
      </trkpt>
      <trkpt lat="47.97045" lon="6.73745">
        <ele>427.42</ele>
        <time>2020-08-18T07:27:11Z</time>
      </trkpt>
      <trkpt lat="47.97034" lon="6.73767">
        <ele>429.56</ele>
        <time>2020-08-18T07:27:18Z</time>
      </trkpt>
      <trkpt lat="47.97021" lon="6.73787">
        <ele>433.39</ele>
        <time>2020-08-18T07:27:26Z</time>
      </trkpt>
      <trkpt lat="47.97008" lon="6.73808">
        <ele>436.31</ele>
        <time>2020-08-18T07:27:35Z</time>
      </trkpt>
      <trkpt lat="47.96994" lon="6.73825">
        <ele>437.26</ele>
        <time>2020-08-18T07:27:43Z</time>
      </trkpt>
      <trkpt lat="47.96983" lon="6.73847">
        <ele>441.35</ele>
        <time>2020-08-18T07:27:54Z</time>
      </trkpt>
      <trkpt lat="47.96969" lon="6.73866">
        <ele>444.74</ele>
        <time>2020-08-18T07:28:02Z</time>
      </trkpt>
      <trkpt lat="47.96954" lon="6.73883">
        <ele>451.06</ele>
        <time>2020-08-18T07:28:10Z</time>
      </trkpt>
      <trkpt lat="47.96942" lon="6.73908">
        <ele>453.99</ele>
        <time>2020-08-18T07:28:17Z</time>
      </trkpt>
      <trkpt lat="47.96932" lon="6.73931">
        <ele>452.94</ele>
        <time>2020-08-18T07:28:25Z</time>
      </trkpt>
      <trkpt lat="47.96926" lon="6.73959">
        <ele>455.96</ele>
        <time>2020-08-18T07:28:34Z</time>
      </trkpt>
      <trkpt lat="47.96919" lon="6.73989">
        <ele>460.23</ele>
        <time>2020-08-18T07:28:45Z</time>
      </trkpt>
      <trkpt lat="47.96911" lon="6.74015">
        <ele>459.68</ele>
        <time>2020-08-18T07:28:53Z</time>
      </trkpt>
      <trkpt lat="47.969" lon="6.74037">
        <ele>461.53</ele>
        <time>2020-08-18T07:29:04Z</time>
      </trkpt>
      <trkpt lat="47.96891" lon="6.74064">
        <ele>464.44</ele>
        <time>2020-08-18T07:29:12Z</time>
      </trkpt>
      <trkpt lat="47.96881" lon="6.74087">
        <ele>468.64</ele>
        <time>2020-08-18T07:29:20Z</time>
      </trkpt>
      <trkpt lat="47.96875" lon="6.74114">
        <ele>474.28</ele>
        <time>2020-08-18T07:29:28Z</time>
      </trkpt>
      <trkpt lat="47.9686" lon="6.74133">
        <ele>479.38</ele>
        <time>2020-08-18T07:29:35Z</time>
      </trkpt>
      <trkpt lat="47.96848" lon="6.74159">
        <ele>476.25</ele>
        <time>2020-08-18T07:29:41Z</time>
      </trkpt>
      <trkpt lat="47.96833" lon="6.7418">
        <ele>476.38</ele>
        <time>2020-08-18T07:29:47Z</time>
      </trkpt>
      <trkpt lat="47.96826" lon="6.74206">
        <ele>475.6</ele>
        <time>2020-08-18T07:29:54Z</time>
      </trkpt>
      <trkpt lat="47.96817" lon="6.7423">
        <ele>469.46</ele>
        <time>2020-08-18T07:30:00Z</time>
      </trkpt>
      <trkpt lat="47.96811" lon="6.74258">
        <ele>466.71</ele>
        <time>2020-08-18T07:30:11Z</time>
      </trkpt>
      <trkpt lat="47.96809" lon="6.74286">
        <ele>466.64</ele>
        <time>2020-08-18T07:30:19Z</time>
      </trkpt>
      <trkpt lat="47.96809" lon="6.74315">
        <ele>468.57</ele>
        <time>2020-08-18T07:30:27Z</time>
      </trkpt>
      <trkpt lat="47.96811" lon="6.74343">
        <ele>470.71</ele>
        <time>2020-08-18T07:30:35Z</time>
      </trkpt>
      <trkpt lat="47.96813" lon="6.74372">
        <ele>470.33</ele>
        <time>2020-08-18T07:30:44Z</time>
      </trkpt>
      <trkpt lat="47.96809" lon="6.744">
        <ele>471.48</ele>
        <time>2020-08-18T07:30:50Z</time>
      </trkpt>
      <trkpt lat="47.96813" lon="6.74427">
        <ele>464.98</ele>
        <time>2020-08-18T07:30:56Z</time>
      </trkpt>
      <trkpt lat="47.96817" lon="6.74455">
        <ele>453.34</ele>
        <time>2020-08-18T07:31:14Z</time>
      </trkpt>
      <trkpt lat="47.96814" lon="6.74486">
        <ele>452.05</ele>
        <time>2020-08-18T07:31:25Z</time>
      </trkpt>
      <trkpt lat="47.96812" lon="6.74514">
        <ele>454.95</ele>
        <time>2020-08-18T07:31:34Z</time>
      </trkpt>
      <trkpt lat="47.968" lon="6.74541">
        <ele>457.15</ele>
        <time>2020-08-18T07:31:42Z</time>
      </trkpt>
      <trkpt lat="47.96791" lon="6.74567">
        <ele>460.71</ele>
        <time>2020-08-18T07:31:49Z</time>
      </trkpt>
      <trkpt lat="47.96781" lon="6.74589">
        <ele>466.99</ele>
        <time>2020-08-18T07:31:58Z</time>
      </trkpt>
      <trkpt lat="47.96771" lon="6.74615">
        <ele>479.06</ele>
        <time>2020-08-18T07:32:09Z</time>
      </trkpt>
      <trkpt lat="47.96784" lon="6.74636">
        <ele>485.13</ele>
        <time>2020-08-18T07:32:19Z</time>
      </trkpt>
      <trkpt lat="47.968" lon="6.74625">
        <ele>490.45</ele>
        <time>2020-08-18T07:32:29Z</time>
      </trkpt>
      <trkpt lat="47.96816" lon="6.74608">
        <ele>488.82</ele>
        <time>2020-08-18T07:32:37Z</time>
      </trkpt>
      <trkpt lat="47.96826" lon="6.74585">
        <ele>488.83</ele>
        <time>2020-08-18T07:32:49Z</time>
      </trkpt>
      <trkpt lat="47.96838" lon="6.74565">
        <ele>488.36</ele>
        <time>2020-08-18T07:32:53Z</time>
      </trkpt>
      <trkpt lat="47.96845" lon="6.74539">
        <ele>491.54</ele>
        <time>2020-08-18T07:33:07Z</time>
      </trkpt>
      <trkpt lat="47.96864" lon="6.74543">
        <ele>492.79</ele>
        <time>2020-08-18T07:33:21Z</time>
      </trkpt>
      <trkpt lat="47.96881" lon="6.74557">
        <ele>497.76</ele>
        <time>2020-08-18T07:33:31Z</time>
      </trkpt>
      <trkpt lat="47.96899" lon="6.74551">
        <ele>500.49</ele>
        <time>2020-08-18T07:33:44Z</time>
      </trkpt>
      <trkpt lat="47.96914" lon="6.74533">
        <ele>504.15</ele>
        <time>2020-08-18T07:33:54Z</time>
      </trkpt>
      <trkpt lat="47.96929" lon="6.74515">
        <ele>505.48</ele>
        <time>2020-08-18T07:34:03Z</time>
      </trkpt>
      <trkpt lat="47.96946" lon="6.74501">
        <ele>507.58</ele>
        <time>2020-08-18T07:34:12Z</time>
      </trkpt>
      <trkpt lat="47.96964" lon="6.74495">
        <ele>509.65</ele>
        <time>2020-08-18T07:34:20Z</time>
      </trkpt>
      <trkpt lat="47.96982" lon="6.74487">
        <ele>510.44</ele>
        <time>2020-08-18T07:34:29Z</time>
      </trkpt>
      <trkpt lat="47.96993" lon="6.74465">
        <ele>513.3</ele>
        <time>2020-08-18T07:34:38Z</time>
      </trkpt>
      <trkpt lat="47.97008" lon="6.74447">
        <ele>513.84</ele>
        <time>2020-08-18T07:34:48Z</time>
      </trkpt>
      <trkpt lat="47.97023" lon="6.7443">
        <ele>515.78</ele>
        <time>2020-08-18T07:34:56Z</time>
      </trkpt>
      <trkpt lat="47.97036" lon="6.74412">
        <ele>517.22</ele>
        <time>2020-08-18T07:35:05Z</time>
      </trkpt>
      <trkpt lat="47.97051" lon="6.74394">
        <ele>518.04</ele>
        <time>2020-08-18T07:35:13Z</time>
      </trkpt>
      <trkpt lat="47.97064" lon="6.74374">
        <ele>521.59</ele>
        <time>2020-08-18T07:35:22Z</time>
      </trkpt>
      <trkpt lat="47.97079" lon="6.74358">
        <ele>526.74</ele>
        <time>2020-08-18T07:35:31Z</time>
      </trkpt>
      <trkpt lat="47.97096" lon="6.74341">
        <ele>530.6</ele>
        <time>2020-08-18T07:35:40Z</time>
      </trkpt>
      <trkpt lat="47.97111" lon="6.74326">
        <ele>532.64</ele>
        <time>2020-08-18T07:35:50Z</time>
      </trkpt>
      <trkpt lat="47.97129" lon="6.74313">
        <ele>521.85</ele>
        <time>2020-08-18T07:35:56Z</time>
      </trkpt>
      <trkpt lat="47.97144" lon="6.74296">
        <ele>517.68</ele>
        <time>2020-08-18T07:36:04Z</time>
      </trkpt>
      <trkpt lat="47.9716" lon="6.74283">
        <ele>523.17</ele>
        <time>2020-08-18T07:36:13Z</time>
      </trkpt>
      <trkpt lat="47.97176" lon="6.74299">
        <ele>528.38</ele>
        <time>2020-08-18T07:36:26Z</time>
      </trkpt>
      <trkpt lat="47.97172" lon="6.74328">
        <ele>532.56</ele>
        <time>2020-08-18T07:36:36Z</time>
      </trkpt>
      <trkpt lat="47.97162" lon="6.74353">
        <ele>535.63</ele>
        <time>2020-08-18T07:36:45Z</time>
      </trkpt>
      <trkpt lat="47.97158" lon="6.74384">
        <ele>538.77</ele>
        <time>2020-08-18T07:36:54Z</time>
      </trkpt>
      <trkpt lat="47.97149" lon="6.74408">
        <ele>536</ele>
        <time>2020-08-18T07:37:06Z</time>
      </trkpt>
      <trkpt lat="47.97142" lon="6.74433">
        <ele>537.55</ele>
        <time>2020-08-18T07:37:16Z</time>
      </trkpt>
      <trkpt lat="47.97135" lon="6.74461">
        <ele>541.4</ele>
        <time>2020-08-18T07:37:28Z</time>
      </trkpt>
      <trkpt lat="47.97125" lon="6.74488">
        <ele>543.44</ele>
        <time>2020-08-18T07:37:36Z</time>
      </trkpt>
      <trkpt lat="47.97113" lon="6.74508">
        <ele>543.3</ele>
        <time>2020-08-18T07:37:45Z</time>
      </trkpt>
      <trkpt lat="47.97107" lon="6.74536">
        <ele>547.52</ele>
        <time>2020-08-18T07:37:58Z</time>
      </trkpt>
      <trkpt lat="47.97101" lon="6.74562">
        <ele>553.22</ele>
        <time>2020-08-18T07:38:12Z</time>
      </trkpt>
      <trkpt lat="47.97092" lon="6.74586">
        <ele>554.12</ele>
        <time>2020-08-18T07:38:19Z</time>
      </trkpt>
      <trkpt lat="47.9711" lon="6.74593">
        <ele>552.97</ele>
        <time>2020-08-18T07:38:36Z</time>
      </trkpt>
      <trkpt lat="47.97119" lon="6.74569">
        <ele>555.08</ele>
        <time>2020-08-18T07:38:46Z</time>
      </trkpt>
      <trkpt lat="47.97132" lon="6.74546">
        <ele>558.64</ele>
        <time>2020-08-18T07:38:53Z</time>
      </trkpt>
      <trkpt lat="47.9714" lon="6.74521">
        <ele>558.7</ele>
        <time>2020-08-18T07:39:01Z</time>
      </trkpt>
      <trkpt lat="47.97153" lon="6.74501">
        <ele>557.58</ele>
        <time>2020-08-18T07:39:10Z</time>
      </trkpt>
      <trkpt lat="47.97168" lon="6.74484">
        <ele>558.56</ele>
        <time>2020-08-18T07:39:19Z</time>
      </trkpt>
      <trkpt lat="47.97183" lon="6.74465">
        <ele>557.57</ele>
        <time>2020-08-18T07:39:28Z</time>
      </trkpt>
      <trkpt lat="47.972" lon="6.74451">
        <ele>557.92</ele>
        <time>2020-08-18T07:39:35Z</time>
      </trkpt>
      <trkpt lat="47.97211" lon="6.74426">
        <ele>558.04</ele>
        <time>2020-08-18T07:39:44Z</time>
      </trkpt>
      <trkpt lat="47.97225" lon="6.74406">
        <ele>560.38</ele>
        <time>2020-08-18T07:39:53Z</time>
      </trkpt>
      <trkpt lat="47.9724" lon="6.74389">
        <ele>562.32</ele>
        <time>2020-08-18T07:40:01Z</time>
      </trkpt>
      <trkpt lat="47.97253" lon="6.74367">
        <ele>560.87</ele>
        <time>2020-08-18T07:40:12Z</time>
      </trkpt>
      <trkpt lat="47.97272" lon="6.74373">
        <ele>571.34</ele>
        <time>2020-08-18T07:40:26Z</time>
      </trkpt>
      <trkpt lat="47.97274" lon="6.744">
        <ele>572.3</ele>
        <time>2020-08-18T07:40:32Z</time>
      </trkpt>
      <trkpt lat="47.97264" lon="6.74424">
        <ele>574.55</ele>
        <time>2020-08-18T07:40:41Z</time>
      </trkpt>
      <trkpt lat="47.97254" lon="6.74446">
        <ele>578.97</ele>
        <time>2020-08-18T07:40:53Z</time>
      </trkpt>
      <trkpt lat="47.9724" lon="6.74469">
        <ele>572.78</ele>
        <time>2020-08-18T07:40:58Z</time>
      </trkpt>
      <trkpt lat="47.97228" lon="6.74496">
        <ele>564.6</ele>
        <time>2020-08-18T07:41:06Z</time>
      </trkpt>
      <trkpt lat="47.97221" lon="6.74523">
        <ele>561.8</ele>
        <time>2020-08-18T07:41:14Z</time>
      </trkpt>
      <trkpt lat="47.97213" lon="6.74549">
        <ele>564.2</ele>
        <time>2020-08-18T07:41:20Z</time>
      </trkpt>
      <trkpt lat="47.97206" lon="6.74573">
        <ele>566.15</ele>
        <time>2020-08-18T07:41:27Z</time>
      </trkpt>
      <trkpt lat="47.97199" lon="6.74601">
        <ele>570.28</ele>
        <time>2020-08-18T07:41:34Z</time>
      </trkpt>
      <trkpt lat="47.97194" lon="6.74629">
        <ele>574.73</ele>
        <time>2020-08-18T07:41:40Z</time>
      </trkpt>
      <trkpt lat="47.97189" lon="6.74656">
        <ele>576.72</ele>
        <time>2020-08-18T07:41:45Z</time>
      </trkpt>
      <trkpt lat="47.97187" lon="6.74683">
        <ele>577.47</ele>
        <time>2020-08-18T07:41:51Z</time>
      </trkpt>
      <trkpt lat="47.97185" lon="6.74711">
        <ele>582.03</ele>
        <time>2020-08-18T07:41:57Z</time>
      </trkpt>
      <trkpt lat="47.97186" lon="6.74742">
        <ele>585.13</ele>
        <time>2020-08-18T07:42:04Z</time>
      </trkpt>
      <trkpt lat="47.9718" lon="6.74771">
        <ele>592.56</ele>
        <time>2020-08-18T07:42:12Z</time>
      </trkpt>
      <trkpt lat="47.97175" lon="6.74797">
        <ele>599.65</ele>
        <time>2020-08-18T07:42:19Z</time>
      </trkpt>
      <trkpt lat="47.97172" lon="6.74825">
        <ele>602.78</ele>
        <time>2020-08-18T07:42:26Z</time>
      </trkpt>
      <trkpt lat="47.97169" lon="6.74857">
        <ele>606.17</ele>
        <time>2020-08-18T07:42:33Z</time>
      </trkpt>
      <trkpt lat="47.97161" lon="6.74884">
        <ele>607.89</ele>
        <time>2020-08-18T07:42:36Z</time>
      </trkpt>
      <trkpt lat="47.97143" lon="6.74898">
        <ele>608.14</ele>
        <time>2020-08-18T07:42:38Z</time>
      </trkpt>
      <trkpt lat="47.97154" lon="6.7492">
        <ele>605.35</ele>
        <time>2020-08-18T07:42:52Z</time>
      </trkpt>
      <trkpt lat="47.97152" lon="6.7495">
        <ele>604.4</ele>
        <time>2020-08-18T07:42:57Z</time>
      </trkpt>
      <trkpt lat="47.97149" lon="6.74979">
        <ele>603.47</ele>
        <time>2020-08-18T07:43:02Z</time>
      </trkpt>
      <trkpt lat="47.9715" lon="6.75006">
        <ele>598.81</ele>
        <time>2020-08-18T07:43:08Z</time>
      </trkpt>
      <trkpt lat="47.97168" lon="6.74999">
        <ele>596.85</ele>
        <time>2020-08-18T07:43:19Z</time>
      </trkpt>
      <trkpt lat="47.97183" lon="6.74983">
        <ele>600.27</ele>
        <time>2020-08-18T07:43:27Z</time>
      </trkpt>
      <trkpt lat="47.97191" lon="6.74958">
        <ele>603.61</ele>
        <time>2020-08-18T07:43:37Z</time>
      </trkpt>
      <trkpt lat="47.97196" lon="6.74932">
        <ele>606.98</ele>
        <time>2020-08-18T07:43:47Z</time>
      </trkpt>
      <trkpt lat="47.97211" lon="6.74914">
        <ele>599.34</ele>
        <time>2020-08-18T07:43:52Z</time>
      </trkpt>
      <trkpt lat="47.97216" lon="6.74889">
        <ele>597.7</ele>
        <time>2020-08-18T07:44:00Z</time>
      </trkpt>
      <trkpt lat="47.97226" lon="6.74864">
        <ele>595.17</ele>
        <time>2020-08-18T07:44:09Z</time>
      </trkpt>
      <trkpt lat="47.97242" lon="6.74848">
        <ele>595.79</ele>
        <time>2020-08-18T07:44:16Z</time>
      </trkpt>
      <trkpt lat="47.97255" lon="6.74829">
        <ele>591.04</ele>
        <time>2020-08-18T07:44:22Z</time>
      </trkpt>
      <trkpt lat="47.97269" lon="6.74811">
        <ele>587.07</ele>
        <time>2020-08-18T07:44:30Z</time>
      </trkpt>
      <trkpt lat="47.97287" lon="6.74799">
        <ele>590.82</ele>
        <time>2020-08-18T07:44:42Z</time>
      </trkpt>
      <trkpt lat="47.97304" lon="6.74821">
        <ele>598.38</ele>
        <time>2020-08-18T07:44:54Z</time>
      </trkpt>
      <trkpt lat="47.97318" lon="6.74844">
        <ele>598.02</ele>
        <time>2020-08-18T07:45:04Z</time>
      </trkpt>
      <trkpt lat="47.97327" lon="6.74867">
        <ele>603.07</ele>
        <time>2020-08-18T07:45:19Z</time>
      </trkpt>
      <trkpt lat="47.97334" lon="6.749">
        <ele>607.05</ele>
        <time>2020-08-18T07:45:34Z</time>
      </trkpt>
      <trkpt lat="47.97333" lon="6.74933">
        <ele>602.67</ele>
        <time>2020-08-18T07:45:39Z</time>
      </trkpt>
      <trkpt lat="47.97322" lon="6.74954">
        <ele>599.86</ele>
        <time>2020-08-18T07:45:48Z</time>
      </trkpt>
      <trkpt lat="47.97312" lon="6.74978">
        <ele>594.2</ele>
        <time>2020-08-18T07:45:54Z</time>
      </trkpt>
      <trkpt lat="47.97302" lon="6.75006">
        <ele>591.03</ele>
        <time>2020-08-18T07:46:02Z</time>
      </trkpt>
      <trkpt lat="47.97295" lon="6.75034">
        <ele>595.2</ele>
        <time>2020-08-18T07:46:10Z</time>
      </trkpt>
      <trkpt lat="47.97289" lon="6.75062">
        <ele>606.36</ele>
        <time>2020-08-18T07:46:19Z</time>
      </trkpt>
      <trkpt lat="47.97291" lon="6.75092">
        <ele>612.73</ele>
        <time>2020-08-18T07:46:30Z</time>
      </trkpt>
      <trkpt lat="47.97292" lon="6.7512">
        <ele>623.96</ele>
        <time>2020-08-18T07:46:36Z</time>
      </trkpt>
      <trkpt lat="47.97295" lon="6.75146">
        <ele>633.01</ele>
        <time>2020-08-18T07:46:43Z</time>
      </trkpt>
      <trkpt lat="47.97296" lon="6.75183">
        <ele>639.14</ele>
        <time>2020-08-18T07:46:51Z</time>
      </trkpt>
      <trkpt lat="47.9729" lon="6.75217">
        <ele>637.04</ele>
        <time>2020-08-18T07:46:53Z</time>
      </trkpt>
      <trkpt lat="47.97304" lon="6.75241">
        <ele>630.26</ele>
        <time>2020-08-18T07:46:59Z</time>
      </trkpt>
      <trkpt lat="47.97309" lon="6.75269">
        <ele>632.83</ele>
        <time>2020-08-18T07:47:24Z</time>
      </trkpt>
      <trkpt lat="47.97321" lon="6.7529">
        <ele>637.21</ele>
        <time>2020-08-18T07:47:28Z</time>
      </trkpt>
      <trkpt lat="47.97327" lon="6.7532">
        <ele>642.58</ele>
        <time>2020-08-18T07:47:35Z</time>
      </trkpt>
      <trkpt lat="47.97319" lon="6.75349">
        <ele>656.1</ele>
        <time>2020-08-18T07:47:48Z</time>
      </trkpt>
      <trkpt lat="47.97313" lon="6.75375">
        <ele>662.6</ele>
        <time>2020-08-18T07:47:52Z</time>
      </trkpt>
      <trkpt lat="47.973" lon="6.75404">
        <ele>668.1</ele>
        <time>2020-08-18T07:47:56Z</time>
      </trkpt>
      <trkpt lat="47.97304" lon="6.75435">
        <ele>671.4</ele>
        <time>2020-08-18T07:48:00Z</time>
      </trkpt>
      <trkpt lat="47.97309" lon="6.75465">
        <ele>674.15</ele>
        <time>2020-08-18T07:48:05Z</time>
      </trkpt>
      <trkpt lat="47.97319" lon="6.75496">
        <ele>676.75</ele>
        <time>2020-08-18T07:48:09Z</time>
      </trkpt>
      <trkpt lat="47.97306" lon="6.75519">
        <ele>677.54</ele>
        <time>2020-08-18T07:48:20Z</time>
      </trkpt>
      <trkpt lat="47.97307" lon="6.75548">
        <ele>680.95</ele>
        <time>2020-08-18T07:48:27Z</time>
      </trkpt>
      <trkpt lat="47.97309" lon="6.75577">
        <ele>681.7</ele>
        <time>2020-08-18T07:48:33Z</time>
      </trkpt>
      <trkpt lat="47.97311" lon="6.75608">
        <ele>678.89</ele>
        <time>2020-08-18T07:48:40Z</time>
      </trkpt>
      <trkpt lat="47.97315" lon="6.75634">
        <ele>675.42</ele>
        <time>2020-08-18T07:48:47Z</time>
      </trkpt>
      <trkpt lat="47.97313" lon="6.75665">
        <ele>676.25</ele>
        <time>2020-08-18T07:48:53Z</time>
      </trkpt>
      <trkpt lat="47.9731" lon="6.75706">
        <ele>674.27</ele>
        <time>2020-08-18T07:48:56Z</time>
      </trkpt>
      <trkpt lat="47.97301" lon="6.75735">
        <ele>673.01</ele>
        <time>2020-08-18T07:48:58Z</time>
      </trkpt>
      <trkpt lat="47.97306" lon="6.75762">
        <ele>672.29</ele>
        <time>2020-08-18T07:48:59Z</time>
      </trkpt>
      <trkpt lat="47.97303" lon="6.75811">
        <ele>669.91</ele>
        <time>2020-08-18T07:49:01Z</time>
      </trkpt>
      <trkpt lat="47.97303" lon="6.75775">
        <ele>669.67</ele>
        <time>2020-08-18T07:49:02Z</time>
      </trkpt>
      <trkpt lat="47.97291" lon="6.75799">
        <ele>667.39</ele>
        <time>2020-08-18T07:49:05Z</time>
      </trkpt>
      <trkpt lat="47.97317" lon="6.75802">
        <ele>661.01</ele>
        <time>2020-08-18T07:49:11Z</time>
      </trkpt>
      <trkpt lat="47.97303" lon="6.7582">
        <ele>662</ele>
        <time>2020-08-18T07:49:23Z</time>
      </trkpt>
      <trkpt lat="47.97316" lon="6.75848">
        <ele>663.87</ele>
        <time>2020-08-18T07:49:30Z</time>
      </trkpt>
      <trkpt lat="47.9732" lon="6.7588">
        <ele>669.61</ele>
        <time>2020-08-18T07:49:42Z</time>
      </trkpt>
      <trkpt lat="47.97321" lon="6.75907">
        <ele>668.74</ele>
        <time>2020-08-18T07:49:45Z</time>
      </trkpt>
      <trkpt lat="47.9733" lon="6.75936">
        <ele>657.84</ele>
        <time>2020-08-18T07:49:58Z</time>
      </trkpt>
      <trkpt lat="47.97334" lon="6.75963">
        <ele>658.46</ele>
        <time>2020-08-18T07:50:09Z</time>
      </trkpt>
      <trkpt lat="47.97334" lon="6.75992">
        <ele>660.66</ele>
        <time>2020-08-18T07:50:22Z</time>
      </trkpt>
      <trkpt lat="47.97328" lon="6.76018">
        <ele>667.06</ele>
        <time>2020-08-18T07:50:29Z</time>
      </trkpt>
      <trkpt lat="47.97326" lon="6.76045">
        <ele>676.41</ele>
        <time>2020-08-18T07:50:41Z</time>
      </trkpt>
      <trkpt lat="47.97325" lon="6.76074">
        <ele>685.65</ele>
        <time>2020-08-18T07:50:52Z</time>
      </trkpt>
      <trkpt lat="47.97343" lon="6.76094">
        <ele>685.46</ele>
        <time>2020-08-18T07:50:55Z</time>
      </trkpt>
      <trkpt lat="47.97347" lon="6.76121">
        <ele>675.74</ele>
        <time>2020-08-18T07:51:15Z</time>
      </trkpt>
      <trkpt lat="47.97353" lon="6.76148">
        <ele>676.89</ele>
        <time>2020-08-18T07:51:29Z</time>
      </trkpt>
      <trkpt lat="47.97356" lon="6.76176">
        <ele>686.06</ele>
        <time>2020-08-18T07:51:43Z</time>
      </trkpt>
      <trkpt lat="47.97363" lon="6.76202">
        <ele>691.43</ele>
        <time>2020-08-18T07:51:50Z</time>
      </trkpt>
      <trkpt lat="47.97372" lon="6.76242">
        <ele>699.98</ele>
        <time>2020-08-18T07:52:12Z</time>
      </trkpt>
      <trkpt lat="47.97371" lon="6.76272">
        <ele>705.67</ele>
        <time>2020-08-18T07:52:25Z</time>
      </trkpt>
      <trkpt lat="47.97379" lon="6.76296">
        <ele>709.99</ele>
        <time>2020-08-18T07:52:32Z</time>
      </trkpt>
      <trkpt lat="47.97386" lon="6.76328">
        <ele>713.27</ele>
        <time>2020-08-18T07:52:38Z</time>
      </trkpt>
      <trkpt lat="47.97397" lon="6.76353">
        <ele>718.69</ele>
        <time>2020-08-18T07:52:48Z</time>
      </trkpt>
      <trkpt lat="47.97415" lon="6.76393">
        <ele>719.36</ele>
        <time>2020-08-18T07:52:51Z</time>
      </trkpt>
      <trkpt lat="47.97423" lon="6.76443">
        <ele>719.96</ele>
        <time>2020-08-18T07:52:53Z</time>
      </trkpt>
      <trkpt lat="47.97442" lon="6.7647">
        <ele>718.06</ele>
        <time>2020-08-18T07:52:56Z</time>
      </trkpt>
      <trkpt lat="47.97433" lon="6.76445">
        <ele>718.14</ele>
        <time>2020-08-18T07:52:57Z</time>
      </trkpt>
      <trkpt lat="47.97414" lon="6.76435">
        <ele>715.76</ele>
        <time>2020-08-18T07:53:03Z</time>
      </trkpt>
      <trkpt lat="47.97396" lon="6.76447">
        <ele>716.22</ele>
        <time>2020-08-18T07:53:10Z</time>
      </trkpt>
      <trkpt lat="47.97404" lon="6.76473">
        <ele>716.03</ele>
        <time>2020-08-18T07:53:19Z</time>
      </trkpt>
      <trkpt lat="47.97408" lon="6.76501">
        <ele>715.92</ele>
        <time>2020-08-18T07:53:25Z</time>
      </trkpt>
      <trkpt lat="47.97409" lon="6.7653">
        <ele>713.92</ele>
        <time>2020-08-18T07:53:30Z</time>
      </trkpt>
      <trkpt lat="47.9741" lon="6.76559">
        <ele>711.54</ele>
        <time>2020-08-18T07:53:39Z</time>
      </trkpt>
      <trkpt lat="47.97405" lon="6.76588">
        <ele>714.78</ele>
        <time>2020-08-18T07:53:47Z</time>
      </trkpt>
      <trkpt lat="47.97401" lon="6.76631">
        <ele>714.9</ele>
        <time>2020-08-18T07:53:50Z</time>
      </trkpt>
      <trkpt lat="47.97408" lon="6.76669">
        <ele>712.88</ele>
        <time>2020-08-18T07:53:52Z</time>
      </trkpt>
      <trkpt lat="47.97413" lon="6.76697">
        <ele>710.44</ele>
        <time>2020-08-18T07:53:54Z</time>
      </trkpt>
      <trkpt lat="47.97383" lon="6.76665">
        <ele>710.39</ele>
        <time>2020-08-18T07:53:55Z</time>
      </trkpt>
      <trkpt lat="47.974" lon="6.76679">
        <ele>706.62</ele>
        <time>2020-08-18T07:53:59Z</time>
      </trkpt>
      <trkpt lat="47.97375" lon="6.76686">
        <ele>704.71</ele>
        <time>2020-08-18T07:54:02Z</time>
      </trkpt>
      <trkpt lat="47.97352" lon="6.76694">
        <ele>702.17</ele>
        <time>2020-08-18T07:54:05Z</time>
      </trkpt>
      <trkpt lat="47.9739" lon="6.76699">
        <ele>700.7</ele>
        <time>2020-08-18T07:54:06Z</time>
      </trkpt>
      <trkpt lat="47.9737" lon="6.76693">
        <ele>697.76</ele>
        <time>2020-08-18T07:54:09Z</time>
      </trkpt>
      <trkpt lat="47.97356" lon="6.7671">
        <ele>696.74</ele>
        <time>2020-08-18T07:54:38Z</time>
      </trkpt>
      <trkpt lat="47.97338" lon="6.76718">
        <ele>704.64</ele>
        <time>2020-08-18T07:54:50Z</time>
      </trkpt>
      <trkpt lat="47.97324" lon="6.76738">
        <ele>719.12</ele>
        <time>2020-08-18T07:55:03Z</time>
      </trkpt>
      <trkpt lat="47.9731" lon="6.76758">
        <ele>727.8</ele>
        <time>2020-08-18T07:55:14Z</time>
      </trkpt>
      <trkpt lat="47.97292" lon="6.76768">
        <ele>733.29</ele>
        <time>2020-08-18T07:55:26Z</time>
      </trkpt>
      <trkpt lat="47.97273" lon="6.76776">
        <ele>735.47</ele>
        <time>2020-08-18T07:55:32Z</time>
      </trkpt>
      <trkpt lat="47.97252" lon="6.7679">
        <ele>732.79</ele>
        <time>2020-08-18T07:55:35Z</time>
      </trkpt>
      <trkpt lat="47.97232" lon="6.76794">
        <ele>717.48</ele>
        <time>2020-08-18T07:55:51Z</time>
      </trkpt>
      <trkpt lat="47.97219" lon="6.76771">
        <ele>729.91</ele>
        <time>2020-08-18T07:56:00Z</time>
      </trkpt>
      <trkpt lat="47.9721" lon="6.76744">
        <ele>743.33</ele>
        <time>2020-08-18T07:56:11Z</time>
      </trkpt>
      <trkpt lat="47.97204" lon="6.76717">
        <ele>753.11</ele>
        <time>2020-08-18T07:56:19Z</time>
      </trkpt>
      <trkpt lat="47.97182" lon="6.76714">
        <ele>750.83</ele>
        <time>2020-08-18T07:57:39Z</time>
      </trkpt>
      <trkpt lat="47.97156" lon="6.76723">
        <ele>753.72</ele>
        <time>2020-08-18T07:57:46Z</time>
      </trkpt>
      <trkpt lat="47.97137" lon="6.76734">
        <ele>756.35</ele>
        <time>2020-08-18T07:57:49Z</time>
      </trkpt>
      <trkpt lat="47.97121" lon="6.76749">
        <ele>757.88</ele>
        <time>2020-08-18T07:57:51Z</time>
      </trkpt>
      <trkpt lat="47.97103" lon="6.76762">
        <ele>759.16</ele>
        <time>2020-08-18T07:57:53Z</time>
      </trkpt>
      <trkpt lat="47.9708" lon="6.7678">
        <ele>759.73</ele>
        <time>2020-08-18T07:57:56Z</time>
      </trkpt>
      <trkpt lat="47.97058" lon="6.76794">
        <ele>761.69</ele>
        <time>2020-08-18T07:57:59Z</time>
      </trkpt>
      <trkpt lat="47.97034" lon="6.76809">
        <ele>757.74</ele>
        <time>2020-08-18T07:58:02Z</time>
      </trkpt>
      <trkpt lat="47.97019" lon="6.76825">
        <ele>757.18</ele>
        <time>2020-08-18T07:58:05Z</time>
      </trkpt>
      <trkpt lat="47.97001" lon="6.76836">
        <ele>760.98</ele>
        <time>2020-08-18T07:58:09Z</time>
      </trkpt>
      <trkpt lat="47.96988" lon="6.76861">
        <ele>759.34</ele>
        <time>2020-08-18T07:58:13Z</time>
      </trkpt>
      <trkpt lat="47.96979" lon="6.76895">
        <ele>756.15</ele>
        <time>2020-08-18T07:58:16Z</time>
      </trkpt>
      <trkpt lat="47.96961" lon="6.76925">
        <ele>749.9</ele>
        <time>2020-08-18T07:58:19Z</time>
      </trkpt>
      <trkpt lat="47.96949" lon="6.76947">
        <ele>745.92</ele>
        <time>2020-08-18T07:58:21Z</time>
      </trkpt>
      <trkpt lat="47.96936" lon="6.76966">
        <ele>741.85</ele>
        <time>2020-08-18T07:58:23Z</time>
      </trkpt>
      <trkpt lat="47.96921" lon="6.76985">
        <ele>740.61</ele>
        <time>2020-08-18T07:58:25Z</time>
      </trkpt>
      <trkpt lat="47.96904" lon="6.77006">
        <ele>739.93</ele>
        <time>2020-08-18T07:58:28Z</time>
      </trkpt>
      <trkpt lat="47.96892" lon="6.77033">
        <ele>740.75</ele>
        <time>2020-08-18T07:58:31Z</time>
      </trkpt>
      <trkpt lat="47.9688" lon="6.77057">
        <ele>741.83</ele>
        <time>2020-08-18T07:58:34Z</time>
      </trkpt>
      <trkpt lat="47.96858" lon="6.77074">
        <ele>740.81</ele>
        <time>2020-08-18T07:58:37Z</time>
      </trkpt>
      <trkpt lat="47.96844" lon="6.77096">
        <ele>738.89</ele>
        <time>2020-08-18T07:58:41Z</time>
      </trkpt>
      <trkpt lat="47.96847" lon="6.77141">
        <ele>739.88</ele>
        <time>2020-08-18T07:58:44Z</time>
      </trkpt>
      <trkpt lat="47.96852" lon="6.77177">
        <ele>740.03</ele>
        <time>2020-08-18T07:58:47Z</time>
      </trkpt>
      <trkpt lat="47.96846" lon="6.77206">
        <ele>738.8</ele>
        <time>2020-08-18T07:58:50Z</time>
      </trkpt>
      <trkpt lat="47.96831" lon="6.77233">
        <ele>738.23</ele>
        <time>2020-08-18T07:58:53Z</time>
      </trkpt>
      <trkpt lat="47.96816" lon="6.77254">
        <ele>734.19</ele>
        <time>2020-08-18T07:58:56Z</time>
      </trkpt>
      <trkpt lat="47.96799" lon="6.77272">
        <ele>731.19</ele>
        <time>2020-08-18T07:58:58Z</time>
      </trkpt>
      <trkpt lat="47.96776" lon="6.77272">
        <ele>727.86</ele>
        <time>2020-08-18T07:59:00Z</time>
      </trkpt>
      <trkpt lat="47.96756" lon="6.77268">
        <ele>718.88</ele>
        <time>2020-08-18T07:59:05Z</time>
      </trkpt>
      <trkpt lat="47.96737" lon="6.77266">
        <ele>715.79</ele>
        <time>2020-08-18T07:59:09Z</time>
      </trkpt>
      <trkpt lat="47.96719" lon="6.77264">
        <ele>718.98</ele>
        <time>2020-08-18T07:59:12Z</time>
      </trkpt>
      <trkpt lat="47.96698" lon="6.77266">
        <ele>718.7</ele>
        <time>2020-08-18T07:59:15Z</time>
      </trkpt>
      <trkpt lat="47.96675" lon="6.77269">
        <ele>721.31</ele>
        <time>2020-08-18T07:59:19Z</time>
      </trkpt>
      <trkpt lat="47.96657" lon="6.77281">
        <ele>723.52</ele>
        <time>2020-08-18T07:59:22Z</time>
      </trkpt>
      <trkpt lat="47.96642" lon="6.77299">
        <ele>725.41</ele>
        <time>2020-08-18T07:59:25Z</time>
      </trkpt>
      <trkpt lat="47.96627" lon="6.77322">
        <ele>727.4</ele>
        <time>2020-08-18T07:59:28Z</time>
      </trkpt>
      <trkpt lat="47.96612" lon="6.77345">
        <ele>729.75</ele>
        <time>2020-08-18T07:59:31Z</time>
      </trkpt>
      <trkpt lat="47.96601" lon="6.77371">
        <ele>730.85</ele>
        <time>2020-08-18T07:59:34Z</time>
      </trkpt>
      <trkpt lat="47.96594" lon="6.77398">
        <ele>730.25</ele>
        <time>2020-08-18T07:59:37Z</time>
      </trkpt>
      <trkpt lat="47.96592" lon="6.77429">
        <ele>729.45</ele>
        <time>2020-08-18T07:59:40Z</time>
      </trkpt>
      <trkpt lat="47.96594" lon="6.77457">
        <ele>727.76</ele>
        <time>2020-08-18T07:59:42Z</time>
      </trkpt>
      <trkpt lat="47.96595" lon="6.77496">
        <ele>723.2</ele>
        <time>2020-08-18T07:59:44Z</time>
      </trkpt>
      <trkpt lat="47.96604" lon="6.77521">
        <ele>716.34</ele>
        <time>2020-08-18T07:59:47Z</time>
      </trkpt>
      <trkpt lat="47.96605" lon="6.77551">
        <ele>707.11</ele>
        <time>2020-08-18T07:59:52Z</time>
      </trkpt>
      <trkpt lat="47.96609" lon="6.77585">
        <ele>701.45</ele>
        <time>2020-08-18T07:59:55Z</time>
      </trkpt>
      <trkpt lat="47.96612" lon="6.77621">
        <ele>697.68</ele>
        <time>2020-08-18T07:59:59Z</time>
      </trkpt>
      <trkpt lat="47.96599" lon="6.77658">
        <ele>694.39</ele>
        <time>2020-08-18T08:00:03Z</time>
      </trkpt>
      <trkpt lat="47.96577" lon="6.77682">
        <ele>692.16</ele>
        <time>2020-08-18T08:00:06Z</time>
      </trkpt>
      <trkpt lat="47.96556" lon="6.77703">
        <ele>691.98</ele>
        <time>2020-08-18T08:00:09Z</time>
      </trkpt>
      <trkpt lat="47.96537" lon="6.77726">
        <ele>691.59</ele>
        <time>2020-08-18T08:00:12Z</time>
      </trkpt>
      <trkpt lat="47.96522" lon="6.77746">
        <ele>690.53</ele>
        <time>2020-08-18T08:00:15Z</time>
      </trkpt>
      <trkpt lat="47.96515" lon="6.77772">
        <ele>689</ele>
        <time>2020-08-18T08:00:18Z</time>
      </trkpt>
      <trkpt lat="47.96525" lon="6.77796">
        <ele>689.23</ele>
        <time>2020-08-18T08:00:21Z</time>
      </trkpt>
      <trkpt lat="47.96547" lon="6.77809">
        <ele>690.38</ele>
        <time>2020-08-18T08:00:24Z</time>
      </trkpt>
      <trkpt lat="47.96565" lon="6.77814">
        <ele>691.07</ele>
        <time>2020-08-18T08:00:26Z</time>
      </trkpt>
      <trkpt lat="47.96589" lon="6.77819">
        <ele>690.17</ele>
        <time>2020-08-18T08:00:29Z</time>
      </trkpt>
      <trkpt lat="47.96611" lon="6.77822">
        <ele>689.55</ele>
        <time>2020-08-18T08:00:32Z</time>
      </trkpt>
      <trkpt lat="47.96629" lon="6.77845">
        <ele>688.37</ele>
        <time>2020-08-18T08:00:35Z</time>
      </trkpt>
      <trkpt lat="47.96643" lon="6.77877">
        <ele>686.66</ele>
        <time>2020-08-18T08:00:38Z</time>
      </trkpt>
      <trkpt lat="47.96656" lon="6.77902">
        <ele>684.91</ele>
        <time>2020-08-18T08:00:41Z</time>
      </trkpt>
      <trkpt lat="47.96665" lon="6.77926">
        <ele>682.14</ele>
        <time>2020-08-18T08:00:44Z</time>
      </trkpt>
      <trkpt lat="47.9668" lon="6.77944">
        <ele>679.16</ele>
        <time>2020-08-18T08:00:48Z</time>
      </trkpt>
      <trkpt lat="47.96698" lon="6.77958">
        <ele>678.51</ele>
        <time>2020-08-18T08:00:54Z</time>
      </trkpt>
      <trkpt lat="47.96717" lon="6.77975">
        <ele>676.88</ele>
        <time>2020-08-18T08:01:01Z</time>
      </trkpt>
      <trkpt lat="47.96735" lon="6.77986">
        <ele>671.43</ele>
        <time>2020-08-18T08:01:07Z</time>
      </trkpt>
      <trkpt lat="47.96754" lon="6.78">
        <ele>670.14</ele>
        <time>2020-08-18T08:01:15Z</time>
      </trkpt>
      <trkpt lat="47.96772" lon="6.7801">
        <ele>668.59</ele>
        <time>2020-08-18T08:01:21Z</time>
      </trkpt>
      <trkpt lat="47.9679" lon="6.7802">
        <ele>672.39</ele>
        <time>2020-08-18T08:01:28Z</time>
      </trkpt>
      <trkpt lat="47.96808" lon="6.7803">
        <ele>680.62</ele>
        <time>2020-08-18T08:01:36Z</time>
      </trkpt>
      <trkpt lat="47.96826" lon="6.78039">
        <ele>684.42</ele>
        <time>2020-08-18T08:01:44Z</time>
      </trkpt>
      <trkpt lat="47.96844" lon="6.78056">
        <ele>686.95</ele>
        <time>2020-08-18T08:01:53Z</time>
      </trkpt>
      <trkpt lat="47.9686" lon="6.78075">
        <ele>687.32</ele>
        <time>2020-08-18T08:02:00Z</time>
      </trkpt>
      <trkpt lat="47.96874" lon="6.78094">
        <ele>690.79</ele>
        <time>2020-08-18T08:02:08Z</time>
      </trkpt>
      <trkpt lat="47.96888" lon="6.78113">
        <ele>691.08</ele>
        <time>2020-08-18T08:02:15Z</time>
      </trkpt>
      <trkpt lat="47.96903" lon="6.7813">
        <ele>690.89</ele>
        <time>2020-08-18T08:02:23Z</time>
      </trkpt>
      <trkpt lat="47.96919" lon="6.78145">
        <ele>691.46</ele>
        <time>2020-08-18T08:02:33Z</time>
      </trkpt>
      <trkpt lat="47.9693" lon="6.78168">
        <ele>695.82</ele>
        <time>2020-08-18T08:02:42Z</time>
      </trkpt>
      <trkpt lat="47.96934" lon="6.78195">
        <ele>696.51</ele>
        <time>2020-08-18T08:02:50Z</time>
      </trkpt>
      <trkpt lat="47.9694" lon="6.78223">
        <ele>699.24</ele>
        <time>2020-08-18T08:02:57Z</time>
      </trkpt>
      <trkpt lat="47.96949" lon="6.7825">
        <ele>700.66</ele>
        <time>2020-08-18T08:03:04Z</time>
      </trkpt>
      <trkpt lat="47.9695" lon="6.78278">
        <ele>703.87</ele>
        <time>2020-08-18T08:03:11Z</time>
      </trkpt>
      <trkpt lat="47.96966" lon="6.78295">
        <ele>701.41</ele>
        <time>2020-08-18T08:03:18Z</time>
      </trkpt>
      <trkpt lat="47.96983" lon="6.78302">
        <ele>698.58</ele>
        <time>2020-08-18T08:03:24Z</time>
      </trkpt>
      <trkpt lat="47.97001" lon="6.78309">
        <ele>699.79</ele>
        <time>2020-08-18T08:03:30Z</time>
      </trkpt>
      <trkpt lat="47.97021" lon="6.78312">
        <ele>696.85</ele>
        <time>2020-08-18T08:03:36Z</time>
      </trkpt>
      <trkpt lat="47.97039" lon="6.78318">
        <ele>692.54</ele>
        <time>2020-08-18T08:03:41Z</time>
      </trkpt>
      <trkpt lat="47.97057" lon="6.78319">
        <ele>693.22</ele>
        <time>2020-08-18T08:03:48Z</time>
      </trkpt>
      <trkpt lat="47.97075" lon="6.78326">
        <ele>704.07</ele>
        <time>2020-08-18T08:03:56Z</time>
      </trkpt>
      <trkpt lat="47.97094" lon="6.78335">
        <ele>712.16</ele>
        <time>2020-08-18T08:04:03Z</time>
      </trkpt>
      <trkpt lat="47.97114" lon="6.78338">
        <ele>712.47</ele>
        <time>2020-08-18T08:04:11Z</time>
      </trkpt>
      <trkpt lat="47.97131" lon="6.78352">
        <ele>713.19</ele>
        <time>2020-08-18T08:04:16Z</time>
      </trkpt>
      <trkpt lat="47.97147" lon="6.7837">
        <ele>712.12</ele>
        <time>2020-08-18T08:04:22Z</time>
      </trkpt>
      <trkpt lat="47.97161" lon="6.78391">
        <ele>711.05</ele>
        <time>2020-08-18T08:04:28Z</time>
      </trkpt>
      <trkpt lat="47.97171" lon="6.78414">
        <ele>712.32</ele>
        <time>2020-08-18T08:04:34Z</time>
      </trkpt>
      <trkpt lat="47.97181" lon="6.78439">
        <ele>717.23</ele>
        <time>2020-08-18T08:04:40Z</time>
      </trkpt>
      <trkpt lat="47.9719" lon="6.78467">
        <ele>717.99</ele>
        <time>2020-08-18T08:04:46Z</time>
      </trkpt>
      <trkpt lat="47.97197" lon="6.78493">
        <ele>717.99</ele>
        <time>2020-08-18T08:04:52Z</time>
      </trkpt>
      <trkpt lat="47.97203" lon="6.78522">
        <ele>718.96</ele>
        <time>2020-08-18T08:04:58Z</time>
      </trkpt>
      <trkpt lat="47.97212" lon="6.78549">
        <ele>720.21</ele>
        <time>2020-08-18T08:05:04Z</time>
      </trkpt>
      <trkpt lat="47.97221" lon="6.78576">
        <ele>717.04</ele>
        <time>2020-08-18T08:05:11Z</time>
      </trkpt>
      <trkpt lat="47.97238" lon="6.78598">
        <ele>716.21</ele>
        <time>2020-08-18T08:05:16Z</time>
      </trkpt>
      <trkpt lat="47.97255" lon="6.78616">
        <ele>714.5</ele>
        <time>2020-08-18T08:05:23Z</time>
      </trkpt>
      <trkpt lat="47.97273" lon="6.78623">
        <ele>715.46</ele>
        <time>2020-08-18T08:05:30Z</time>
      </trkpt>
      <trkpt lat="47.97291" lon="6.78636">
        <ele>715.7</ele>
        <time>2020-08-18T08:05:35Z</time>
      </trkpt>
      <trkpt lat="47.97305" lon="6.78656">
        <ele>719.66</ele>
        <time>2020-08-18T08:05:41Z</time>
      </trkpt>
      <trkpt lat="47.97318" lon="6.78677">
        <ele>722.14</ele>
        <time>2020-08-18T08:05:46Z</time>
      </trkpt>
      <trkpt lat="47.97333" lon="6.78695">
        <ele>723.94</ele>
        <time>2020-08-18T08:05:53Z</time>
      </trkpt>
      <trkpt lat="47.97346" lon="6.78715">
        <ele>722.34</ele>
        <time>2020-08-18T08:05:57Z</time>
      </trkpt>
      <trkpt lat="47.97359" lon="6.78753">
        <ele>720.98</ele>
        <time>2020-08-18T08:06:00Z</time>
      </trkpt>
      <trkpt lat="47.97374" lon="6.7877">
        <ele>712.64</ele>
        <time>2020-08-18T08:06:10Z</time>
      </trkpt>
      <trkpt lat="47.97386" lon="6.78799">
        <ele>704.09</ele>
        <time>2020-08-18T08:06:15Z</time>
      </trkpt>
      <trkpt lat="47.97387" lon="6.78829">
        <ele>708.53</ele>
        <time>2020-08-18T08:06:21Z</time>
      </trkpt>
      <trkpt lat="47.97395" lon="6.78856">
        <ele>703.27</ele>
        <time>2020-08-18T08:06:27Z</time>
      </trkpt>
      <trkpt lat="47.97404" lon="6.78881">
        <ele>699.93</ele>
        <time>2020-08-18T08:06:33Z</time>
      </trkpt>
      <trkpt lat="47.97412" lon="6.78856">
        <ele>705.95</ele>
        <time>2020-08-18T08:06:37Z</time>
      </trkpt>
      <trkpt lat="47.97435" lon="6.78911">
        <ele>730.45</ele>
        <time>2020-08-18T08:06:53Z</time>
      </trkpt>
      <trkpt lat="47.97446" lon="6.78948">
        <ele>730.53</ele>
        <time>2020-08-18T08:06:55Z</time>
      </trkpt>
      <trkpt lat="47.97453" lon="6.78976">
        <ele>732.75</ele>
        <time>2020-08-18T08:07:00Z</time>
      </trkpt>
      <trkpt lat="47.97459" lon="6.79003">
        <ele>736.99</ele>
        <time>2020-08-18T08:07:05Z</time>
      </trkpt>
      <trkpt lat="47.97468" lon="6.79033">
        <ele>740.48</ele>
        <time>2020-08-18T08:07:12Z</time>
      </trkpt>
      <trkpt lat="47.97465" lon="6.79069">
        <ele>737.09</ele>
        <time>2020-08-18T08:07:15Z</time>
      </trkpt>
      <trkpt lat="47.97472" lon="6.79109">
        <ele>732.52</ele>
        <time>2020-08-18T08:07:17Z</time>
      </trkpt>
      <trkpt lat="47.97475" lon="6.79138">
        <ele>720.84</ele>
        <time>2020-08-18T08:07:35Z</time>
      </trkpt>
      <trkpt lat="47.97479" lon="6.79168">
        <ele>719.64</ele>
        <time>2020-08-18T08:07:38Z</time>
      </trkpt>
      <trkpt lat="47.9749" lon="6.79193">
        <ele>716.94</ele>
        <time>2020-08-18T08:07:44Z</time>
      </trkpt>
      <trkpt lat="47.97495" lon="6.79226">
        <ele>714.73</ele>
        <time>2020-08-18T08:07:47Z</time>
      </trkpt>
      <trkpt lat="47.97493" lon="6.79193">
        <ele>716.23</ele>
        <time>2020-08-18T08:07:48Z</time>
      </trkpt>
      <trkpt lat="47.9751" lon="6.79203">
        <ele>717.78</ele>
        <time>2020-08-18T08:08:00Z</time>
      </trkpt>
      <trkpt lat="47.97529" lon="6.79221">
        <ele>720.33</ele>
        <time>2020-08-18T08:08:06Z</time>
      </trkpt>
      <trkpt lat="47.97541" lon="6.79242">
        <ele>721.15</ele>
        <time>2020-08-18T08:08:09Z</time>
      </trkpt>
      <trkpt lat="47.97546" lon="6.79212">
        <ele>732.06</ele>
        <time>2020-08-18T08:08:24Z</time>
      </trkpt>
      <trkpt lat="47.97546" lon="6.79184">
        <ele>738.24</ele>
        <time>2020-08-18T08:08:27Z</time>
      </trkpt>
      <trkpt lat="47.97519" lon="6.79189">
        <ele>739.57</ele>
        <time>2020-08-18T08:08:31Z</time>
      </trkpt>
      <trkpt lat="47.97536" lon="6.79224">
        <ele>740.12</ele>
        <time>2020-08-18T08:08:34Z</time>
      </trkpt>
      <trkpt lat="47.97552" lon="6.79241">
        <ele>741.84</ele>
        <time>2020-08-18T08:08:35Z</time>
      </trkpt>
      <trkpt lat="47.97573" lon="6.79246">
        <ele>744.58</ele>
        <time>2020-08-18T08:08:39Z</time>
      </trkpt>
      <trkpt lat="47.97592" lon="6.7925">
        <ele>751.6</ele>
        <time>2020-08-18T08:08:46Z</time>
      </trkpt>
      <trkpt lat="47.97609" lon="6.79264">
        <ele>756.8</ele>
        <time>2020-08-18T08:08:55Z</time>
      </trkpt>
      <trkpt lat="47.97627" lon="6.79277">
        <ele>761.75</ele>
        <time>2020-08-18T08:09:06Z</time>
      </trkpt>
      <trkpt lat="47.97645" lon="6.79286">
        <ele>760.41</ele>
        <time>2020-08-18T08:09:15Z</time>
      </trkpt>
      <trkpt lat="47.97659" lon="6.79307">
        <ele>767.73</ele>
        <time>2020-08-18T08:09:26Z</time>
      </trkpt>
      <trkpt lat="47.97679" lon="6.79316">
        <ele>765.26</ele>
        <time>2020-08-18T08:09:31Z</time>
      </trkpt>
      <trkpt lat="47.97673" lon="6.79279">
        <ele>756.95</ele>
        <time>2020-08-18T08:09:38Z</time>
      </trkpt>
      <trkpt lat="47.97681" lon="6.79306">
        <ele>755.24</ele>
        <time>2020-08-18T08:09:44Z</time>
      </trkpt>
      <trkpt lat="47.9769" lon="6.79331">
        <ele>754.07</ele>
        <time>2020-08-18T08:09:46Z</time>
      </trkpt>
      <trkpt lat="47.97702" lon="6.79365">
        <ele>752.28</ele>
        <time>2020-08-18T08:09:48Z</time>
      </trkpt>
      <trkpt lat="47.97712" lon="6.79399">
        <ele>749.83</ele>
        <time>2020-08-18T08:09:50Z</time>
      </trkpt>
      <trkpt lat="47.97727" lon="6.79423">
        <ele>746.21</ele>
        <time>2020-08-18T08:09:54Z</time>
      </trkpt>
      <trkpt lat="47.97723" lon="6.7945">
        <ele>742.49</ele>
        <time>2020-08-18T08:09:58Z</time>
      </trkpt>
      <trkpt lat="47.97749" lon="6.79455">
        <ele>741.78</ele>
        <time>2020-08-18T08:10:02Z</time>
      </trkpt>
      <trkpt lat="47.97754" lon="6.79416">
        <ele>742.45</ele>
        <time>2020-08-18T08:10:11Z</time>
      </trkpt>
      <trkpt lat="47.97772" lon="6.79437">
        <ele>741.43</ele>
        <time>2020-08-18T08:10:13Z</time>
      </trkpt>
      <trkpt lat="47.97752" lon="6.79398">
        <ele>734.98</ele>
        <time>2020-08-18T08:10:22Z</time>
      </trkpt>
      <trkpt lat="47.97743" lon="6.79373">
        <ele>737.46</ele>
        <time>2020-08-18T08:10:24Z</time>
      </trkpt>
      <trkpt lat="47.97724" lon="6.79347">
        <ele>742.12</ele>
        <time>2020-08-18T08:10:27Z</time>
      </trkpt>
      <trkpt lat="47.97736" lon="6.79392">
        <ele>744.79</ele>
        <time>2020-08-18T08:10:32Z</time>
      </trkpt>
      <trkpt lat="47.97752" lon="6.79409">
        <ele>748.16</ele>
        <time>2020-08-18T08:10:35Z</time>
      </trkpt>
      <trkpt lat="47.9777" lon="6.79403">
        <ele>772.06</ele>
        <time>2020-08-18T08:10:52Z</time>
      </trkpt>
      <trkpt lat="47.97782" lon="6.79424">
        <ele>781.56</ele>
        <time>2020-08-18T08:11:01Z</time>
      </trkpt>
      <trkpt lat="47.97796" lon="6.79448">
        <ele>782.71</ele>
        <time>2020-08-18T08:11:05Z</time>
      </trkpt>
      <trkpt lat="47.97808" lon="6.79468">
        <ele>783.21</ele>
        <time>2020-08-18T08:11:08Z</time>
      </trkpt>
      <trkpt lat="47.97809" lon="6.79439">
        <ele>785.43</ele>
        <time>2020-08-18T08:11:25Z</time>
      </trkpt>
      <trkpt lat="47.97829" lon="6.79433">
        <ele>794.95</ele>
        <time>2020-08-18T08:11:42Z</time>
      </trkpt>
      <trkpt lat="47.97847" lon="6.79422">
        <ele>804.49</ele>
        <time>2020-08-18T08:11:55Z</time>
      </trkpt>
      <trkpt lat="47.97866" lon="6.79423">
        <ele>805.8</ele>
        <time>2020-08-18T08:12:02Z</time>
      </trkpt>
      <trkpt lat="47.97881" lon="6.79409">
        <ele>818.49</ele>
        <time>2020-08-18T08:12:22Z</time>
      </trkpt>
      <trkpt lat="47.97882" lon="6.79381">
        <ele>822.56</ele>
        <time>2020-08-18T08:12:33Z</time>
      </trkpt>
      <trkpt lat="47.9788" lon="6.79353">
        <ele>829.4</ele>
        <time>2020-08-18T08:12:44Z</time>
      </trkpt>
      <trkpt lat="47.97896" lon="6.7933">
        <ele>830.87</ele>
        <time>2020-08-18T08:12:49Z</time>
      </trkpt>
      <trkpt lat="47.9789" lon="6.79305">
        <ele>829.06</ele>
        <time>2020-08-18T08:13:00Z</time>
      </trkpt>
      <trkpt lat="47.97906" lon="6.79291">
        <ele>821.12</ele>
        <time>2020-08-18T08:13:10Z</time>
      </trkpt>
      <trkpt lat="47.97925" lon="6.79291">
        <ele>809.36</ele>
        <time>2020-08-18T08:13:21Z</time>
      </trkpt>
      <trkpt lat="47.97944" lon="6.793">
        <ele>804.51</ele>
        <time>2020-08-18T08:13:30Z</time>
      </trkpt>
      <trkpt lat="47.97967" lon="6.79318">
        <ele>802.68</ele>
        <time>2020-08-18T08:13:33Z</time>
      </trkpt>
      <trkpt lat="47.97985" lon="6.79315">
        <ele>780.8</ele>
        <time>2020-08-18T08:13:55Z</time>
      </trkpt>
      <trkpt lat="47.98011" lon="6.79329">
        <ele>776.88</ele>
        <time>2020-08-18T08:14:02Z</time>
      </trkpt>
      <trkpt lat="47.98033" lon="6.79348">
        <ele>773.92</ele>
        <time>2020-08-18T08:14:04Z</time>
      </trkpt>
      <trkpt lat="47.98046" lon="6.79381">
        <ele>773.31</ele>
        <time>2020-08-18T08:14:06Z</time>
      </trkpt>
      <trkpt lat="47.9806" lon="6.79398">
        <ele>766.49</ele>
        <time>2020-08-18T08:14:23Z</time>
      </trkpt>
      <trkpt lat="47.98056" lon="6.79372">
        <ele>768.3</ele>
        <time>2020-08-18T08:14:33Z</time>
      </trkpt>
      <trkpt lat="47.98047" lon="6.79345">
        <ele>767.03</ele>
        <time>2020-08-18T08:14:39Z</time>
      </trkpt>
      <trkpt lat="47.98065" lon="6.79388">
        <ele>768.13</ele>
        <time>2020-08-18T08:14:44Z</time>
      </trkpt>
      <trkpt lat="47.98088" lon="6.79393">
        <ele>768.58</ele>
        <time>2020-08-18T08:14:46Z</time>
      </trkpt>
      <trkpt lat="47.98097" lon="6.79422">
        <ele>769.41</ele>
        <time>2020-08-18T08:14:48Z</time>
      </trkpt>
      <trkpt lat="47.98108" lon="6.79448">
        <ele>769.59</ele>
        <time>2020-08-18T08:14:49Z</time>
      </trkpt>
      <trkpt lat="47.98119" lon="6.79472">
        <ele>769.58</ele>
        <time>2020-08-18T08:14:51Z</time>
      </trkpt>
      <trkpt lat="47.98128" lon="6.79497">
        <ele>781.76</ele>
        <time>2020-08-18T08:15:00Z</time>
      </trkpt>
      <trkpt lat="47.98139" lon="6.79521">
        <ele>794.91</ele>
        <time>2020-08-18T08:15:10Z</time>
      </trkpt>
      <trkpt lat="47.98151" lon="6.79542">
        <ele>803.68</ele>
        <time>2020-08-18T08:15:16Z</time>
      </trkpt>
      <trkpt lat="47.98159" lon="6.79568">
        <ele>814.15</ele>
        <time>2020-08-18T08:15:25Z</time>
      </trkpt>
      <trkpt lat="47.98159" lon="6.79599">
        <ele>821.95</ele>
        <time>2020-08-18T08:15:39Z</time>
      </trkpt>
      <trkpt lat="47.98163" lon="6.79626">
        <ele>826.87</ele>
        <time>2020-08-18T08:15:50Z</time>
      </trkpt>
      <trkpt lat="47.98164" lon="6.79655">
        <ele>829.84</ele>
        <time>2020-08-18T08:16:02Z</time>
      </trkpt>
      <trkpt lat="47.98172" lon="6.79684">
        <ele>831.63</ele>
        <time>2020-08-18T08:16:08Z</time>
      </trkpt>
      <trkpt lat="47.9817" lon="6.79711">
        <ele>831.41</ele>
        <time>2020-08-18T08:16:18Z</time>
      </trkpt>
      <trkpt lat="47.98174" lon="6.7974">
        <ele>832.5</ele>
        <time>2020-08-18T08:16:28Z</time>
      </trkpt>
      <trkpt lat="47.9818" lon="6.79767">
        <ele>832.05</ele>
        <time>2020-08-18T08:16:33Z</time>
      </trkpt>
      <trkpt lat="47.98195" lon="6.798">
        <ele>831.03</ele>
        <time>2020-08-18T08:16:48Z</time>
      </trkpt>
      <trkpt lat="47.98206" lon="6.79822">
        <ele>832.6</ele>
        <time>2020-08-18T08:16:55Z</time>
      </trkpt>
      <trkpt lat="47.98213" lon="6.79848">
        <ele>826.2</ele>
        <time>2020-08-18T08:17:03Z</time>
      </trkpt>
      <trkpt lat="47.98227" lon="6.79866">
        <ele>823.88</ele>
        <time>2020-08-18T08:17:14Z</time>
      </trkpt>
      <trkpt lat="47.98245" lon="6.79873">
        <ele>830.99</ele>
        <time>2020-08-18T08:17:30Z</time>
      </trkpt>
      <trkpt lat="47.98264" lon="6.79876">
        <ele>835.8</ele>
        <time>2020-08-18T08:17:38Z</time>
      </trkpt>
      <trkpt lat="47.98284" lon="6.79876">
        <ele>838.76</ele>
        <time>2020-08-18T08:17:47Z</time>
      </trkpt>
      <trkpt lat="47.98306" lon="6.79874">
        <ele>843.99</ele>
        <time>2020-08-18T08:18:02Z</time>
      </trkpt>
      <trkpt lat="47.98327" lon="6.79879">
        <ele>863.08</ele>
        <time>2020-08-18T08:20:43Z</time>
      </trkpt>
      <trkpt lat="47.98349" lon="6.79879">
        <ele>863.97</ele>
        <time>2020-08-18T08:20:47Z</time>
      </trkpt>
      <trkpt lat="47.98373" lon="6.79882">
        <ele>864.7</ele>
        <time>2020-08-18T08:20:51Z</time>
      </trkpt>
      <trkpt lat="47.98392" lon="6.79878">
        <ele>865.37</ele>
        <time>2020-08-18T08:20:54Z</time>
      </trkpt>
      <trkpt lat="47.98414" lon="6.79883">
        <ele>859.56</ele>
        <time>2020-08-18T08:20:58Z</time>
      </trkpt>
      <trkpt lat="47.98423" lon="6.79908">
        <ele>844.5</ele>
        <time>2020-08-18T08:21:02Z</time>
      </trkpt>
      <trkpt lat="47.98437" lon="6.79927">
        <ele>833.87</ele>
        <time>2020-08-18T08:21:07Z</time>
      </trkpt>
      <trkpt lat="47.98458" lon="6.79906">
        <ele>830.6</ele>
        <time>2020-08-18T08:21:11Z</time>
      </trkpt>
      <trkpt lat="47.98472" lon="6.79879">
        <ele>827.21</ele>
        <time>2020-08-18T08:21:14Z</time>
      </trkpt>
      <trkpt lat="47.98485" lon="6.79852">
        <ele>824.47</ele>
        <time>2020-08-18T08:21:17Z</time>
      </trkpt>
      <trkpt lat="47.98493" lon="6.79827">
        <ele>822.96</ele>
        <time>2020-08-18T08:21:19Z</time>
      </trkpt>
      <trkpt lat="47.985" lon="6.79802">
        <ele>819.44</ele>
        <time>2020-08-18T08:21:21Z</time>
      </trkpt>
      <trkpt lat="47.9851" lon="6.79772">
        <ele>814.28</ele>
        <time>2020-08-18T08:21:23Z</time>
      </trkpt>
      <trkpt lat="47.98519" lon="6.79737">
        <ele>808.71</ele>
        <time>2020-08-18T08:21:26Z</time>
      </trkpt>
      <trkpt lat="47.9852" lon="6.79702">
        <ele>806.44</ele>
        <time>2020-08-18T08:21:30Z</time>
      </trkpt>
      <trkpt lat="47.98537" lon="6.79715">
        <ele>803.88</ele>
        <time>2020-08-18T08:21:39Z</time>
      </trkpt>
      <trkpt lat="47.98538" lon="6.79743">
        <ele>802.23</ele>
        <time>2020-08-18T08:21:42Z</time>
      </trkpt>
      <trkpt lat="47.98536" lon="6.79773">
        <ele>801.26</ele>
        <time>2020-08-18T08:21:45Z</time>
      </trkpt>
      <trkpt lat="47.98536" lon="6.79803">
        <ele>800.2</ele>
        <time>2020-08-18T08:21:48Z</time>
      </trkpt>
      <trkpt lat="47.98537" lon="6.79831">
        <ele>799.33</ele>
        <time>2020-08-18T08:21:51Z</time>
      </trkpt>
      <trkpt lat="47.98542" lon="6.79859">
        <ele>797.73</ele>
        <time>2020-08-18T08:21:54Z</time>
      </trkpt>
      <trkpt lat="47.98548" lon="6.7989">
        <ele>795.86</ele>
        <time>2020-08-18T08:21:57Z</time>
      </trkpt>
      <trkpt lat="47.98554" lon="6.7992">
        <ele>794.14</ele>
        <time>2020-08-18T08:22:00Z</time>
      </trkpt>
      <trkpt lat="47.98561" lon="6.79945">
        <ele>793.86</ele>
        <time>2020-08-18T08:22:04Z</time>
      </trkpt>
      <trkpt lat="47.98574" lon="6.79966">
        <ele>793.84</ele>
        <time>2020-08-18T08:22:07Z</time>
      </trkpt>
      <trkpt lat="47.98591" lon="6.79989">
        <ele>794.68</ele>
        <time>2020-08-18T08:22:10Z</time>
      </trkpt>
      <trkpt lat="47.98612" lon="6.79982">
        <ele>797.14</ele>
        <time>2020-08-18T08:22:14Z</time>
      </trkpt>
      <trkpt lat="47.98626" lon="6.79958">
        <ele>797.97</ele>
        <time>2020-08-18T08:22:18Z</time>
      </trkpt>
      <trkpt lat="47.98646" lon="6.79945">
        <ele>798.44</ele>
        <time>2020-08-18T08:22:21Z</time>
      </trkpt>
      <trkpt lat="47.9867" lon="6.79938">
        <ele>797.34</ele>
        <time>2020-08-18T08:22:24Z</time>
      </trkpt>
      <trkpt lat="47.9869" lon="6.79931">
        <ele>793.48</ele>
        <time>2020-08-18T08:22:27Z</time>
      </trkpt>
      <trkpt lat="47.98709" lon="6.79915">
        <ele>790.47</ele>
        <time>2020-08-18T08:22:30Z</time>
      </trkpt>
      <trkpt lat="47.98725" lon="6.79893">
        <ele>785.67</ele>
        <time>2020-08-18T08:22:33Z</time>
      </trkpt>
      <trkpt lat="47.98736" lon="6.79868">
        <ele>781.7</ele>
        <time>2020-08-18T08:22:36Z</time>
      </trkpt>
      <trkpt lat="47.98747" lon="6.79844">
        <ele>779.03</ele>
        <time>2020-08-18T08:22:39Z</time>
      </trkpt>
      <trkpt lat="47.98756" lon="6.79822">
        <ele>775.85</ele>
        <time>2020-08-18T08:22:42Z</time>
      </trkpt>
      <trkpt lat="47.98765" lon="6.79797">
        <ele>777.01</ele>
        <time>2020-08-18T08:22:49Z</time>
      </trkpt>
      <trkpt lat="47.98778" lon="6.79774">
        <ele>775.72</ele>
        <time>2020-08-18T08:22:57Z</time>
      </trkpt>
      <trkpt lat="47.98794" lon="6.79761">
        <ele>771.68</ele>
        <time>2020-08-18T08:23:03Z</time>
      </trkpt>
      <trkpt lat="47.98814" lon="6.7976">
        <ele>773.49</ele>
        <time>2020-08-18T08:23:13Z</time>
      </trkpt>
      <trkpt lat="47.98833" lon="6.79752">
        <ele>774.1</ele>
        <time>2020-08-18T08:23:22Z</time>
      </trkpt>
      <trkpt lat="47.98851" lon="6.79743">
        <ele>775.94</ele>
        <time>2020-08-18T08:23:32Z</time>
      </trkpt>
      <trkpt lat="47.9885" lon="6.79714">
        <ele>773.69</ele>
        <time>2020-08-18T08:23:37Z</time>
      </trkpt>
      <trkpt lat="47.98844" lon="6.79686">
        <ele>774.53</ele>
        <time>2020-08-18T08:23:41Z</time>
      </trkpt>
      <trkpt lat="47.98836" lon="6.79658">
        <ele>775.43</ele>
        <time>2020-08-18T08:23:45Z</time>
      </trkpt>
      <trkpt lat="47.9883" lon="6.79628">
        <ele>775.37</ele>
        <time>2020-08-18T08:23:48Z</time>
      </trkpt>
      <trkpt lat="47.98821" lon="6.79597">
        <ele>775.84</ele>
        <time>2020-08-18T08:23:51Z</time>
      </trkpt>
      <trkpt lat="47.98815" lon="6.79571">
        <ele>776.08</ele>
        <time>2020-08-18T08:23:53Z</time>
      </trkpt>
      <trkpt lat="47.98804" lon="6.79535">
        <ele>772.67</ele>
        <time>2020-08-18T08:23:56Z</time>
      </trkpt>
      <trkpt lat="47.98795" lon="6.79512">
        <ele>772.86</ele>
        <time>2020-08-18T08:23:58Z</time>
      </trkpt>
      <trkpt lat="47.98782" lon="6.79475">
        <ele>774.19</ele>
        <time>2020-08-18T08:24:01Z</time>
      </trkpt>
      <trkpt lat="47.98774" lon="6.7945">
        <ele>774.18</ele>
        <time>2020-08-18T08:24:03Z</time>
      </trkpt>
      <trkpt lat="47.98766" lon="6.79425">
        <ele>774.75</ele>
        <time>2020-08-18T08:24:05Z</time>
      </trkpt>
      <trkpt lat="47.98759" lon="6.79398">
        <ele>775.44</ele>
        <time>2020-08-18T08:24:07Z</time>
      </trkpt>
      <trkpt lat="47.98751" lon="6.79371">
        <ele>773.04</ele>
        <time>2020-08-18T08:24:09Z</time>
      </trkpt>
      <trkpt lat="47.98741" lon="6.79335">
        <ele>773.59</ele>
        <time>2020-08-18T08:24:12Z</time>
      </trkpt>
      <trkpt lat="47.9873" lon="6.79299">
        <ele>773.58</ele>
        <time>2020-08-18T08:24:15Z</time>
      </trkpt>
      <trkpt lat="47.98718" lon="6.79264">
        <ele>772.73</ele>
        <time>2020-08-18T08:24:18Z</time>
      </trkpt>
      <trkpt lat="47.98705" lon="6.79229">
        <ele>771.67</ele>
        <time>2020-08-18T08:24:21Z</time>
      </trkpt>
      <trkpt lat="47.98694" lon="6.79192">
        <ele>770.01</ele>
        <time>2020-08-18T08:24:24Z</time>
      </trkpt>
      <trkpt lat="47.98689" lon="6.79164">
        <ele>767.06</ele>
        <time>2020-08-18T08:24:26Z</time>
      </trkpt>
      <trkpt lat="47.98684" lon="6.79135">
        <ele>761.93</ele>
        <time>2020-08-18T08:24:28Z</time>
      </trkpt>
      <trkpt lat="47.98679" lon="6.79106">
        <ele>760.84</ele>
        <time>2020-08-18T08:24:30Z</time>
      </trkpt>
      <trkpt lat="47.98678" lon="6.79077">
        <ele>760.06</ele>
        <time>2020-08-18T08:24:32Z</time>
      </trkpt>
      <trkpt lat="47.9868" lon="6.79046">
        <ele>761.38</ele>
        <time>2020-08-18T08:24:34Z</time>
      </trkpt>
      <trkpt lat="47.98683" lon="6.79017">
        <ele>760.86</ele>
        <time>2020-08-18T08:24:36Z</time>
      </trkpt>
      <trkpt lat="47.98689" lon="6.78989">
        <ele>761.1</ele>
        <time>2020-08-18T08:24:38Z</time>
      </trkpt>
      <trkpt lat="47.98704" lon="6.78957">
        <ele>755.29</ele>
        <time>2020-08-18T08:24:40Z</time>
      </trkpt>
      <trkpt lat="47.98712" lon="6.78923">
        <ele>740.79</ele>
        <time>2020-08-18T08:24:42Z</time>
      </trkpt>
      <trkpt lat="47.98711" lon="6.78891">
        <ele>744.75</ele>
        <time>2020-08-18T08:24:44Z</time>
      </trkpt>
      <trkpt lat="47.98712" lon="6.78859">
        <ele>744.53</ele>
        <time>2020-08-18T08:24:46Z</time>
      </trkpt>
      <trkpt lat="47.98714" lon="6.78829">
        <ele>742.07</ele>
        <time>2020-08-18T08:24:48Z</time>
      </trkpt>
      <trkpt lat="47.98718" lon="6.788">
        <ele>737.19</ele>
        <time>2020-08-18T08:24:50Z</time>
      </trkpt>
      <trkpt lat="47.98725" lon="6.78773">
        <ele>731.34</ele>
        <time>2020-08-18T08:24:52Z</time>
      </trkpt>
      <trkpt lat="47.98733" lon="6.78748">
        <ele>726.1</ele>
        <time>2020-08-18T08:24:54Z</time>
      </trkpt>
      <trkpt lat="47.98746" lon="6.78724">
        <ele>721.88</ele>
        <time>2020-08-18T08:24:56Z</time>
      </trkpt>
      <trkpt lat="47.98756" lon="6.78701">
        <ele>724.09</ele>
        <time>2020-08-18T08:24:58Z</time>
      </trkpt>
      <trkpt lat="47.98766" lon="6.78673">
        <ele>720.49</ele>
        <time>2020-08-18T08:25:00Z</time>
      </trkpt>
      <trkpt lat="47.98773" lon="6.78645">
        <ele>717.5</ele>
        <time>2020-08-18T08:25:02Z</time>
      </trkpt>
      <trkpt lat="47.98778" lon="6.78615">
        <ele>715.55</ele>
        <time>2020-08-18T08:25:04Z</time>
      </trkpt>
      <trkpt lat="47.98781" lon="6.78584">
        <ele>714.4</ele>
        <time>2020-08-18T08:25:06Z</time>
      </trkpt>
      <trkpt lat="47.98787" lon="6.78556">
        <ele>710.09</ele>
        <time>2020-08-18T08:25:08Z</time>
      </trkpt>
      <trkpt lat="47.98796" lon="6.7853">
        <ele>708.07</ele>
        <time>2020-08-18T08:25:10Z</time>
      </trkpt>
      <trkpt lat="47.98807" lon="6.78504">
        <ele>707.34</ele>
        <time>2020-08-18T08:25:12Z</time>
      </trkpt>
      <trkpt lat="47.98818" lon="6.7848">
        <ele>711.46</ele>
        <time>2020-08-18T08:25:14Z</time>
      </trkpt>
      <trkpt lat="47.98823" lon="6.78452">
        <ele>716.07</ele>
        <time>2020-08-18T08:25:16Z</time>
      </trkpt>
      <trkpt lat="47.98825" lon="6.7842">
        <ele>721.36</ele>
        <time>2020-08-18T08:25:18Z</time>
      </trkpt>
      <trkpt lat="47.98826" lon="6.78391">
        <ele>723.88</ele>
        <time>2020-08-18T08:25:20Z</time>
      </trkpt>
      <trkpt lat="47.98827" lon="6.7836">
        <ele>722.09</ele>
        <time>2020-08-18T08:25:22Z</time>
      </trkpt>
      <trkpt lat="47.98824" lon="6.78327">
        <ele>723.26</ele>
        <time>2020-08-18T08:25:24Z</time>
      </trkpt>
      <trkpt lat="47.98822" lon="6.78295">
        <ele>724.67</ele>
        <time>2020-08-18T08:25:26Z</time>
      </trkpt>
      <trkpt lat="47.98821" lon="6.78266">
        <ele>727.27</ele>
        <time>2020-08-18T08:25:28Z</time>
      </trkpt>
      <trkpt lat="47.98823" lon="6.78237">
        <ele>729.29</ele>
        <time>2020-08-18T08:25:30Z</time>
      </trkpt>
      <trkpt lat="47.98828" lon="6.78207">
        <ele>729.19</ele>
        <time>2020-08-18T08:25:32Z</time>
      </trkpt>
      <trkpt lat="47.98833" lon="6.78175">
        <ele>726.21</ele>
        <time>2020-08-18T08:25:34Z</time>
      </trkpt>
      <trkpt lat="47.98841" lon="6.78138">
        <ele>720.62</ele>
        <time>2020-08-18T08:25:36Z</time>
      </trkpt>
      <trkpt lat="47.98841" lon="6.78106">
        <ele>714.97</ele>
        <time>2020-08-18T08:25:38Z</time>
      </trkpt>
      <trkpt lat="47.98841" lon="6.78073">
        <ele>708.87</ele>
        <time>2020-08-18T08:25:40Z</time>
      </trkpt>
      <trkpt lat="47.9884" lon="6.7804">
        <ele>703.76</ele>
        <time>2020-08-18T08:25:42Z</time>
      </trkpt>
      <trkpt lat="47.98838" lon="6.78009">
        <ele>699.46</ele>
        <time>2020-08-18T08:25:44Z</time>
      </trkpt>
      <trkpt lat="47.98837" lon="6.77978">
        <ele>696.92</ele>
        <time>2020-08-18T08:25:46Z</time>
      </trkpt>
      <trkpt lat="47.98836" lon="6.77947">
        <ele>694.22</ele>
        <time>2020-08-18T08:25:48Z</time>
      </trkpt>
      <trkpt lat="47.98837" lon="6.77913">
        <ele>692.65</ele>
        <time>2020-08-18T08:25:50Z</time>
      </trkpt>
      <trkpt lat="47.98838" lon="6.77881">
        <ele>691.15</ele>
        <time>2020-08-18T08:25:52Z</time>
      </trkpt>
      <trkpt lat="47.98839" lon="6.77847">
        <ele>691.05</ele>
        <time>2020-08-18T08:25:54Z</time>
      </trkpt>
      <trkpt lat="47.98843" lon="6.77807">
        <ele>695.39</ele>
        <time>2020-08-18T08:25:57Z</time>
      </trkpt>
      <trkpt lat="47.98846" lon="6.77778">
        <ele>697.48</ele>
        <time>2020-08-18T08:25:59Z</time>
      </trkpt>
      <trkpt lat="47.98852" lon="6.77747">
        <ele>698.26</ele>
        <time>2020-08-18T08:26:01Z</time>
      </trkpt>
      <trkpt lat="47.9886" lon="6.77712">
        <ele>693.06</ele>
        <time>2020-08-18T08:26:03Z</time>
      </trkpt>
      <trkpt lat="47.98868" lon="6.77678">
        <ele>688.18</ele>
        <time>2020-08-18T08:26:05Z</time>
      </trkpt>
      <trkpt lat="47.98872" lon="6.77644">
        <ele>686.78</ele>
        <time>2020-08-18T08:26:07Z</time>
      </trkpt>
      <trkpt lat="47.98876" lon="6.77609">
        <ele>689.15</ele>
        <time>2020-08-18T08:26:09Z</time>
      </trkpt>
      <trkpt lat="47.98883" lon="6.77577">
        <ele>690.17</ele>
        <time>2020-08-18T08:26:11Z</time>
      </trkpt>
      <trkpt lat="47.98889" lon="6.77547">
        <ele>689.61</ele>
        <time>2020-08-18T08:26:13Z</time>
      </trkpt>
      <trkpt lat="47.98891" lon="6.77515">
        <ele>689.4</ele>
        <time>2020-08-18T08:26:15Z</time>
      </trkpt>
      <trkpt lat="47.98893" lon="6.77485">
        <ele>689.63</ele>
        <time>2020-08-18T08:26:17Z</time>
      </trkpt>
      <trkpt lat="47.98899" lon="6.77452">
        <ele>689.98</ele>
        <time>2020-08-18T08:26:19Z</time>
      </trkpt>
      <trkpt lat="47.98907" lon="6.77419">
        <ele>689.6</ele>
        <time>2020-08-18T08:26:21Z</time>
      </trkpt>
      <trkpt lat="47.9892" lon="6.77385">
        <ele>688.6</ele>
        <time>2020-08-18T08:26:23Z</time>
      </trkpt>
      <trkpt lat="47.98925" lon="6.77359">
        <ele>680.91</ele>
        <time>2020-08-18T08:26:25Z</time>
      </trkpt>
      <trkpt lat="47.98938" lon="6.77323">
        <ele>681.51</ele>
        <time>2020-08-18T08:26:28Z</time>
      </trkpt>
      <trkpt lat="47.9895" lon="6.773">
        <ele>678.91</ele>
        <time>2020-08-18T08:26:30Z</time>
      </trkpt>
      <trkpt lat="47.98962" lon="6.77277">
        <ele>675.7</ele>
        <time>2020-08-18T08:26:32Z</time>
      </trkpt>
      <trkpt lat="47.9897" lon="6.7725">
        <ele>671.04</ele>
        <time>2020-08-18T08:26:34Z</time>
      </trkpt>
      <trkpt lat="47.98973" lon="6.77223">
        <ele>667.72</ele>
        <time>2020-08-18T08:26:36Z</time>
      </trkpt>
      <trkpt lat="47.98976" lon="6.77195">
        <ele>664.56</ele>
        <time>2020-08-18T08:26:38Z</time>
      </trkpt>
      <trkpt lat="47.98984" lon="6.77168">
        <ele>661.72</ele>
        <time>2020-08-18T08:26:40Z</time>
      </trkpt>
      <trkpt lat="47.98989" lon="6.77137">
        <ele>661.48</ele>
        <time>2020-08-18T08:26:42Z</time>
      </trkpt>
      <trkpt lat="47.98992" lon="6.77106">
        <ele>660.66</ele>
        <time>2020-08-18T08:26:44Z</time>
      </trkpt>
      <trkpt lat="47.9899" lon="6.77076">
        <ele>660.24</ele>
        <time>2020-08-18T08:26:46Z</time>
      </trkpt>
      <trkpt lat="47.98988" lon="6.77048">
        <ele>658.42</ele>
        <time>2020-08-18T08:26:48Z</time>
      </trkpt>
      <trkpt lat="47.98981" lon="6.77018">
        <ele>656.03</ele>
        <time>2020-08-18T08:26:50Z</time>
      </trkpt>
      <trkpt lat="47.98979" lon="6.7698">
        <ele>656.54</ele>
        <time>2020-08-18T08:26:52Z</time>
      </trkpt>
      <trkpt lat="47.98979" lon="6.76951">
        <ele>658.09</ele>
        <time>2020-08-18T08:26:54Z</time>
      </trkpt>
      <trkpt lat="47.98975" lon="6.76921">
        <ele>659.98</ele>
        <time>2020-08-18T08:26:56Z</time>
      </trkpt>
      <trkpt lat="47.98972" lon="6.76893">
        <ele>661.7</ele>
        <time>2020-08-18T08:26:58Z</time>
      </trkpt>
      <trkpt lat="47.98966" lon="6.76852">
        <ele>659.02</ele>
        <time>2020-08-18T08:27:01Z</time>
      </trkpt>
      <trkpt lat="47.98961" lon="6.76824">
        <ele>654.58</ele>
        <time>2020-08-18T08:27:03Z</time>
      </trkpt>
      <trkpt lat="47.9895" lon="6.76788">
        <ele>650.13</ele>
        <time>2020-08-18T08:27:06Z</time>
      </trkpt>
      <trkpt lat="47.98942" lon="6.76763">
        <ele>648.03</ele>
        <time>2020-08-18T08:27:08Z</time>
      </trkpt>
      <trkpt lat="47.98932" lon="6.76728">
        <ele>645.76</ele>
        <time>2020-08-18T08:27:11Z</time>
      </trkpt>
      <trkpt lat="47.98921" lon="6.76695">
        <ele>643.85</ele>
        <time>2020-08-18T08:27:14Z</time>
      </trkpt>
      <trkpt lat="47.98908" lon="6.76669">
        <ele>644.07</ele>
        <time>2020-08-18T08:27:17Z</time>
      </trkpt>
      <trkpt lat="47.98898" lon="6.76639">
        <ele>643.01</ele>
        <time>2020-08-18T08:27:21Z</time>
      </trkpt>
      <trkpt lat="47.9889" lon="6.76611">
        <ele>639.44</ele>
        <time>2020-08-18T08:27:25Z</time>
      </trkpt>
      <trkpt lat="47.98873" lon="6.76629">
        <ele>634.37</ele>
        <time>2020-08-18T08:27:32Z</time>
      </trkpt>
      <trkpt lat="47.98875" lon="6.76662">
        <ele>633.53</ele>
        <time>2020-08-18T08:27:36Z</time>
      </trkpt>
      <trkpt lat="47.98882" lon="6.76688">
        <ele>634.23</ele>
        <time>2020-08-18T08:27:39Z</time>
      </trkpt>
      <trkpt lat="47.98889" lon="6.76717">
        <ele>634.12</ele>
        <time>2020-08-18T08:27:42Z</time>
      </trkpt>
      <trkpt lat="47.98887" lon="6.7675">
        <ele>631.01</ele>
        <time>2020-08-18T08:27:46Z</time>
      </trkpt>
      <trkpt lat="47.98867" lon="6.76762">
        <ele>626.62</ele>
        <time>2020-08-18T08:27:50Z</time>
      </trkpt>
      <trkpt lat="47.98845" lon="6.7677">
        <ele>622.22</ele>
        <time>2020-08-18T08:27:54Z</time>
      </trkpt>
      <trkpt lat="47.98825" lon="6.76763">
        <ele>620.61</ele>
        <time>2020-08-18T08:27:59Z</time>
      </trkpt>
      <trkpt lat="47.9881" lon="6.76741">
        <ele>617.88</ele>
        <time>2020-08-18T08:28:03Z</time>
      </trkpt>
      <trkpt lat="47.98795" lon="6.76714">
        <ele>615.11</ele>
        <time>2020-08-18T08:28:07Z</time>
      </trkpt>
      <trkpt lat="47.98782" lon="6.76694">
        <ele>613.79</ele>
        <time>2020-08-18T08:28:11Z</time>
      </trkpt>
      <trkpt lat="47.98767" lon="6.76669">
        <ele>613.19</ele>
        <time>2020-08-18T08:28:15Z</time>
      </trkpt>
      <trkpt lat="47.98757" lon="6.76644">
        <ele>608.93</ele>
        <time>2020-08-18T08:28:18Z</time>
      </trkpt>
      <trkpt lat="47.98746" lon="6.76615">
        <ele>602.23</ele>
        <time>2020-08-18T08:28:22Z</time>
      </trkpt>
      <trkpt lat="47.9873" lon="6.76591">
        <ele>598.64</ele>
        <time>2020-08-18T08:28:27Z</time>
      </trkpt>
      <trkpt lat="47.98715" lon="6.76572">
        <ele>596.84</ele>
        <time>2020-08-18T08:28:31Z</time>
      </trkpt>
      <trkpt lat="47.98698" lon="6.76553">
        <ele>598.16</ele>
        <time>2020-08-18T08:28:35Z</time>
      </trkpt>
      <trkpt lat="47.98687" lon="6.76528">
        <ele>599.8</ele>
        <time>2020-08-18T08:28:39Z</time>
      </trkpt>
      <trkpt lat="47.98682" lon="6.76498">
        <ele>601.68</ele>
        <time>2020-08-18T08:28:43Z</time>
      </trkpt>
      <trkpt lat="47.98678" lon="6.76468">
        <ele>603.21</ele>
        <time>2020-08-18T08:28:47Z</time>
      </trkpt>
      <trkpt lat="47.98668" lon="6.76441">
        <ele>603.91</ele>
        <time>2020-08-18T08:28:51Z</time>
      </trkpt>
      <trkpt lat="47.98655" lon="6.76423">
        <ele>603.14</ele>
        <time>2020-08-18T08:28:54Z</time>
      </trkpt>
      <trkpt lat="47.98639" lon="6.76403">
        <ele>602.43</ele>
        <time>2020-08-18T08:28:58Z</time>
      </trkpt>
      <trkpt lat="47.98624" lon="6.76381">
        <ele>601.21</ele>
        <time>2020-08-18T08:29:02Z</time>
      </trkpt>
      <trkpt lat="47.98608" lon="6.76359">
        <ele>600.27</ele>
        <time>2020-08-18T08:29:06Z</time>
      </trkpt>
      <trkpt lat="47.98594" lon="6.76339">
        <ele>599.51</ele>
        <time>2020-08-18T08:29:10Z</time>
      </trkpt>
      <trkpt lat="47.9858" lon="6.76316">
        <ele>602.31</ele>
        <time>2020-08-18T08:29:16Z</time>
      </trkpt>
      <trkpt lat="47.98566" lon="6.76294">
        <ele>603.79</ele>
        <time>2020-08-18T08:29:23Z</time>
      </trkpt>
      <trkpt lat="47.98553" lon="6.76272">
        <ele>605.38</ele>
        <time>2020-08-18T08:29:30Z</time>
      </trkpt>
      <trkpt lat="47.98542" lon="6.7625">
        <ele>610.08</ele>
        <time>2020-08-18T08:29:38Z</time>
      </trkpt>
      <trkpt lat="47.98527" lon="6.76233">
        <ele>612.37</ele>
        <time>2020-08-18T08:29:45Z</time>
      </trkpt>
      <trkpt lat="47.98512" lon="6.76208">
        <ele>610.3</ele>
        <time>2020-08-18T08:29:48Z</time>
      </trkpt>
      <trkpt lat="47.98496" lon="6.76192">
        <ele>608.74</ele>
        <time>2020-08-18T08:29:49Z</time>
      </trkpt>
      <trkpt lat="47.98486" lon="6.76165">
        <ele>603.33</ele>
        <time>2020-08-18T08:30:13Z</time>
      </trkpt>
      <trkpt lat="47.98471" lon="6.76151">
        <ele>621.79</ele>
        <time>2020-08-18T08:30:23Z</time>
      </trkpt>
      <trkpt lat="47.98456" lon="6.7613">
        <ele>631.69</ele>
        <time>2020-08-18T08:30:33Z</time>
      </trkpt>
      <trkpt lat="47.98458" lon="6.76102">
        <ele>633.72</ele>
        <time>2020-08-18T08:30:39Z</time>
      </trkpt>
      <trkpt lat="47.98452" lon="6.76075">
        <ele>639.39</ele>
        <time>2020-08-18T08:30:48Z</time>
      </trkpt>
      <trkpt lat="47.98456" lon="6.76047">
        <ele>641.16</ele>
        <time>2020-08-18T08:30:56Z</time>
      </trkpt>
      <trkpt lat="47.98459" lon="6.76017">
        <ele>638.7</ele>
        <time>2020-08-18T08:31:04Z</time>
      </trkpt>
      <trkpt lat="47.98461" lon="6.75989">
        <ele>635.63</ele>
        <time>2020-08-18T08:31:12Z</time>
      </trkpt>
      <trkpt lat="47.98463" lon="6.75955">
        <ele>637.19</ele>
        <time>2020-08-18T08:31:22Z</time>
      </trkpt>
      <trkpt lat="47.98465" lon="6.75926">
        <ele>634.4</ele>
        <time>2020-08-18T08:31:28Z</time>
      </trkpt>
      <trkpt lat="47.98456" lon="6.75903">
        <ele>630.2</ele>
        <time>2020-08-18T08:31:37Z</time>
      </trkpt>
      <trkpt lat="47.98445" lon="6.75878">
        <ele>629.47</ele>
        <time>2020-08-18T08:31:48Z</time>
      </trkpt>
      <trkpt lat="47.98431" lon="6.7586">
        <ele>623.89</ele>
        <time>2020-08-18T08:31:56Z</time>
      </trkpt>
      <trkpt lat="47.98421" lon="6.75835">
        <ele>625.77</ele>
        <time>2020-08-18T08:32:06Z</time>
      </trkpt>
      <trkpt lat="47.98404" lon="6.75825">
        <ele>631.01</ele>
        <time>2020-08-18T08:32:16Z</time>
      </trkpt>
      <trkpt lat="47.98391" lon="6.75802">
        <ele>638.52</ele>
        <time>2020-08-18T08:32:25Z</time>
      </trkpt>
      <trkpt lat="47.9839" lon="6.75772">
        <ele>640.37</ele>
        <time>2020-08-18T08:32:30Z</time>
      </trkpt>
      <trkpt lat="47.98393" lon="6.75745">
        <ele>640.21</ele>
        <time>2020-08-18T08:32:32Z</time>
      </trkpt>
      <trkpt lat="47.98373" lon="6.75743">
        <ele>635.43</ele>
        <time>2020-08-18T08:32:42Z</time>
      </trkpt>
      <trkpt lat="47.98354" lon="6.75746">
        <ele>632.43</ele>
        <time>2020-08-18T08:32:52Z</time>
      </trkpt>
      <trkpt lat="47.98334" lon="6.7574">
        <ele>637.05</ele>
        <time>2020-08-18T08:32:59Z</time>
      </trkpt>
      <trkpt lat="47.98316" lon="6.75744">
        <ele>643.17</ele>
        <time>2020-08-18T08:33:08Z</time>
      </trkpt>
      <trkpt lat="47.98298" lon="6.7575">
        <ele>647.46</ele>
        <time>2020-08-18T08:33:18Z</time>
      </trkpt>
      <trkpt lat="47.98281" lon="6.75764">
        <ele>652.92</ele>
        <time>2020-08-18T08:33:30Z</time>
      </trkpt>
      <trkpt lat="47.98263" lon="6.75765">
        <ele>633.89</ele>
        <time>2020-08-18T08:33:49Z</time>
      </trkpt>
      <trkpt lat="47.9825" lon="6.75785">
        <ele>631.3</ele>
        <time>2020-08-18T08:33:58Z</time>
      </trkpt>
      <trkpt lat="47.98237" lon="6.7581">
        <ele>631.28</ele>
        <time>2020-08-18T08:34:12Z</time>
      </trkpt>
      <trkpt lat="47.98222" lon="6.75825">
        <ele>635.73</ele>
        <time>2020-08-18T08:34:24Z</time>
      </trkpt>
      <trkpt lat="47.98208" lon="6.75846">
        <ele>637.76</ele>
        <time>2020-08-18T08:34:34Z</time>
      </trkpt>
      <trkpt lat="47.98196" lon="6.75866">
        <ele>645.44</ele>
        <time>2020-08-18T08:34:46Z</time>
      </trkpt>
      <trkpt lat="47.98184" lon="6.75887">
        <ele>650.95</ele>
        <time>2020-08-18T08:34:57Z</time>
      </trkpt>
      <trkpt lat="47.9817" lon="6.75905">
        <ele>657.8</ele>
        <time>2020-08-18T08:35:08Z</time>
      </trkpt>
      <trkpt lat="47.98152" lon="6.7592">
        <ele>657.83</ele>
        <time>2020-08-18T08:35:17Z</time>
      </trkpt>
      <trkpt lat="47.98136" lon="6.75937">
        <ele>660.88</ele>
        <time>2020-08-18T08:35:29Z</time>
      </trkpt>
      <trkpt lat="47.9812" lon="6.75952">
        <ele>664.31</ele>
        <time>2020-08-18T08:35:39Z</time>
      </trkpt>
      <trkpt lat="47.98105" lon="6.75968">
        <ele>670.61</ele>
        <time>2020-08-18T08:35:51Z</time>
      </trkpt>
      <trkpt lat="47.98089" lon="6.75982">
        <ele>678.46</ele>
        <time>2020-08-18T08:36:03Z</time>
      </trkpt>
      <trkpt lat="47.98073" lon="6.75996">
        <ele>681.49</ele>
        <time>2020-08-18T08:36:16Z</time>
      </trkpt>
      <trkpt lat="47.98054" lon="6.76">
        <ele>678.14</ele>
        <time>2020-08-18T08:36:24Z</time>
      </trkpt>
      <trkpt lat="47.98043" lon="6.76024">
        <ele>670.47</ele>
        <time>2020-08-18T08:36:35Z</time>
      </trkpt>
      <trkpt lat="47.98025" lon="6.76026">
        <ele>660.45</ele>
        <time>2020-08-18T08:36:47Z</time>
      </trkpt>
      <trkpt lat="47.98007" lon="6.76018">
        <ele>656.15</ele>
        <time>2020-08-18T08:36:54Z</time>
      </trkpt>
      <trkpt lat="47.97989" lon="6.76032">
        <ele>651.35</ele>
        <time>2020-08-18T08:37:04Z</time>
      </trkpt>
      <trkpt lat="47.97971" lon="6.76041">
        <ele>652.27</ele>
        <time>2020-08-18T08:37:12Z</time>
      </trkpt>
      <trkpt lat="47.97948" lon="6.76049">
        <ele>691.06</ele>
        <time>2020-08-18T08:37:46Z</time>
      </trkpt>
      <trkpt lat="47.97924" lon="6.76053">
        <ele>701.19</ele>
        <time>2020-08-18T08:37:57Z</time>
      </trkpt>
      <trkpt lat="47.97892" lon="6.76069">
        <ele>700.35</ele>
        <time>2020-08-18T08:38:01Z</time>
      </trkpt>
      <trkpt lat="47.97873" lon="6.76072">
        <ele>699.39</ele>
        <time>2020-08-18T08:38:03Z</time>
      </trkpt>
      <trkpt lat="47.97889" lon="6.76028">
        <ele>698.46</ele>
        <time>2020-08-18T08:38:05Z</time>
      </trkpt>
      <trkpt lat="47.97869" lon="6.76045">
        <ele>697.49</ele>
        <time>2020-08-18T08:38:07Z</time>
      </trkpt>
      <trkpt lat="47.97887" lon="6.76021">
        <ele>696.06</ele>
        <time>2020-08-18T08:38:10Z</time>
      </trkpt>
      <trkpt lat="47.97866" lon="6.76041">
        <ele>694.85</ele>
        <time>2020-08-18T08:38:12Z</time>
      </trkpt>
      <trkpt lat="47.97848" lon="6.76029">
        <ele>689.48</ele>
        <time>2020-08-18T08:38:19Z</time>
      </trkpt>
      <trkpt lat="47.97852" lon="6.76001">
        <ele>685.23</ele>
        <time>2020-08-18T08:38:26Z</time>
      </trkpt>
      <trkpt lat="47.97833" lon="6.75995">
        <ele>678.03</ele>
        <time>2020-08-18T08:38:38Z</time>
      </trkpt>
      <trkpt lat="47.97814" lon="6.75983">
        <ele>671.66</ele>
        <time>2020-08-18T08:38:53Z</time>
      </trkpt>
      <trkpt lat="47.97789" lon="6.75975">
        <ele>669.69</ele>
        <time>2020-08-18T08:38:56Z</time>
      </trkpt>
      <trkpt lat="47.97805" lon="6.75959">
        <ele>677.98</ele>
        <time>2020-08-18T08:39:10Z</time>
      </trkpt>
      <trkpt lat="47.97803" lon="6.75924">
        <ele>703.21</ele>
        <time>2020-08-18T08:39:22Z</time>
      </trkpt>
      <trkpt lat="47.97806" lon="6.75896">
        <ele>712.48</ele>
        <time>2020-08-18T08:39:27Z</time>
      </trkpt>
      <trkpt lat="47.9781" lon="6.75866">
        <ele>717.28</ele>
        <time>2020-08-18T08:39:32Z</time>
      </trkpt>
      <trkpt lat="47.97824" lon="6.75826">
        <ele>741.25</ele>
        <time>2020-08-18T08:39:49Z</time>
      </trkpt>
      <trkpt lat="47.97829" lon="6.75795">
        <ele>742.87</ele>
        <time>2020-08-18T08:39:53Z</time>
      </trkpt>
      <trkpt lat="47.9781" lon="6.75786">
        <ele>743.25</ele>
        <time>2020-08-18T08:39:58Z</time>
      </trkpt>
      <trkpt lat="47.97815" lon="6.75758">
        <ele>740.26</ele>
        <time>2020-08-18T08:40:04Z</time>
      </trkpt>
      <trkpt lat="47.97832" lon="6.75746">
        <ele>737.4</ele>
        <time>2020-08-18T08:40:07Z</time>
      </trkpt>
      <trkpt lat="47.97815" lon="6.75714">
        <ele>724.95</ele>
        <time>2020-08-18T08:40:20Z</time>
      </trkpt>
      <trkpt lat="47.97796" lon="6.75698">
        <ele>722.09</ele>
        <time>2020-08-18T08:40:23Z</time>
      </trkpt>
      <trkpt lat="47.97774" lon="6.75709">
        <ele>718.98</ele>
        <time>2020-08-18T08:40:26Z</time>
      </trkpt>
      <trkpt lat="47.9776" lon="6.75689">
        <ele>706.61</ele>
        <time>2020-08-18T08:40:48Z</time>
      </trkpt>
      <trkpt lat="47.97742" lon="6.75678">
        <ele>709.65</ele>
        <time>2020-08-18T08:41:01Z</time>
      </trkpt>
      <trkpt lat="47.97723" lon="6.75664">
        <ele>706.77</ele>
        <time>2020-08-18T08:41:11Z</time>
      </trkpt>
      <trkpt lat="47.97706" lon="6.75652">
        <ele>705.7</ele>
        <time>2020-08-18T08:41:22Z</time>
      </trkpt>
      <trkpt lat="47.9769" lon="6.7564">
        <ele>719.31</ele>
        <time>2020-08-18T08:41:34Z</time>
      </trkpt>
      <trkpt lat="47.97672" lon="6.75628">
        <ele>721.21</ele>
        <time>2020-08-18T08:41:42Z</time>
      </trkpt>
      <trkpt lat="47.97652" lon="6.75631">
        <ele>742.88</ele>
        <time>2020-08-18T08:41:58Z</time>
      </trkpt>
      <trkpt lat="47.97634" lon="6.75627">
        <ele>761.07</ele>
        <time>2020-08-18T08:42:12Z</time>
      </trkpt>
      <trkpt lat="47.97619" lon="6.75643">
        <ele>768.55</ele>
        <time>2020-08-18T08:42:22Z</time>
      </trkpt>
      <trkpt lat="47.97609" lon="6.7567">
        <ele>764.15</ele>
        <time>2020-08-18T08:42:29Z</time>
      </trkpt>
      <trkpt lat="47.97601" lon="6.75696">
        <ele>768.95</ele>
        <time>2020-08-18T08:42:36Z</time>
      </trkpt>
      <trkpt lat="47.97595" lon="6.75724">
        <ele>771.52</ele>
        <time>2020-08-18T08:42:40Z</time>
      </trkpt>
      <trkpt lat="47.97593" lon="6.75754">
        <ele>771.37</ele>
        <time>2020-08-18T08:42:45Z</time>
      </trkpt>
      <trkpt lat="47.97586" lon="6.7578">
        <ele>766.76</ele>
        <time>2020-08-18T08:42:51Z</time>
      </trkpt>
      <trkpt lat="47.97576" lon="6.75803">
        <ele>763.8</ele>
        <time>2020-08-18T08:42:58Z</time>
      </trkpt>
      <trkpt lat="47.97564" lon="6.75823">
        <ele>762.25</ele>
        <time>2020-08-18T08:43:06Z</time>
      </trkpt>
      <trkpt lat="47.97566" lon="6.75855">
        <ele>762.42</ele>
        <time>2020-08-18T08:43:12Z</time>
      </trkpt>
      <trkpt lat="47.97563" lon="6.75884">
        <ele>761.19</ele>
        <time>2020-08-18T08:43:19Z</time>
      </trkpt>
      <trkpt lat="47.97558" lon="6.75912">
        <ele>763.37</ele>
        <time>2020-08-18T08:43:26Z</time>
      </trkpt>
      <trkpt lat="47.97547" lon="6.7594">
        <ele>764.08</ele>
        <time>2020-08-18T08:43:33Z</time>
      </trkpt>
      <trkpt lat="47.97539" lon="6.75968">
        <ele>763.43</ele>
        <time>2020-08-18T08:43:39Z</time>
      </trkpt>
      <trkpt lat="47.97535" lon="6.75997">
        <ele>765.48</ele>
        <time>2020-08-18T08:43:45Z</time>
      </trkpt>
      <trkpt lat="47.97537" lon="6.76026">
        <ele>766.78</ele>
        <time>2020-08-18T08:43:51Z</time>
      </trkpt>
      <trkpt lat="47.97544" lon="6.76055">
        <ele>767.85</ele>
        <time>2020-08-18T08:43:56Z</time>
      </trkpt>
      <trkpt lat="47.97548" lon="6.76086">
        <ele>770.11</ele>
        <time>2020-08-18T08:44:00Z</time>
      </trkpt>
      <trkpt lat="47.97551" lon="6.76115">
        <ele>769.99</ele>
        <time>2020-08-18T08:44:04Z</time>
      </trkpt>
      <trkpt lat="47.97557" lon="6.76147">
        <ele>769.03</ele>
        <time>2020-08-18T08:44:10Z</time>
      </trkpt>
      <trkpt lat="47.97563" lon="6.76176">
        <ele>769.07</ele>
        <time>2020-08-18T08:44:14Z</time>
      </trkpt>
      <trkpt lat="47.97571" lon="6.76203">
        <ele>769.97</ele>
        <time>2020-08-18T08:44:18Z</time>
      </trkpt>
      <trkpt lat="47.9758" lon="6.76227">
        <ele>770.1</ele>
        <time>2020-08-18T08:44:22Z</time>
      </trkpt>
      <trkpt lat="47.97588" lon="6.76255">
        <ele>771.03</ele>
        <time>2020-08-18T08:44:27Z</time>
      </trkpt>
      <trkpt lat="47.9759" lon="6.76284">
        <ele>774.54</ele>
        <time>2020-08-18T08:44:33Z</time>
      </trkpt>
      <trkpt lat="47.97591" lon="6.76314">
        <ele>775.28</ele>
        <time>2020-08-18T08:44:39Z</time>
      </trkpt>
      <trkpt lat="47.97593" lon="6.76344">
        <ele>776.86</ele>
        <time>2020-08-18T08:44:45Z</time>
      </trkpt>
      <trkpt lat="47.97595" lon="6.76375">
        <ele>773.69</ele>
        <time>2020-08-18T08:44:49Z</time>
      </trkpt>
      <trkpt lat="47.97594" lon="6.7641">
        <ele>771.48</ele>
        <time>2020-08-18T08:44:53Z</time>
      </trkpt>
      <trkpt lat="47.97588" lon="6.7644">
        <ele>769.74</ele>
        <time>2020-08-18T08:44:57Z</time>
      </trkpt>
      <trkpt lat="47.97586" lon="6.76467">
        <ele>768.47</ele>
        <time>2020-08-18T08:45:00Z</time>
      </trkpt>
      <trkpt lat="47.97582" lon="6.76494">
        <ele>766.68</ele>
        <time>2020-08-18T08:45:03Z</time>
      </trkpt>
      <trkpt lat="47.97573" lon="6.76526">
        <ele>764.09</ele>
        <time>2020-08-18T08:45:07Z</time>
      </trkpt>
      <trkpt lat="47.97564" lon="6.76559">
        <ele>763.55</ele>
        <time>2020-08-18T08:45:11Z</time>
      </trkpt>
      <trkpt lat="47.97557" lon="6.76593">
        <ele>764.03</ele>
        <time>2020-08-18T08:45:15Z</time>
      </trkpt>
      <trkpt lat="47.97552" lon="6.76621">
        <ele>762.89</ele>
        <time>2020-08-18T08:45:18Z</time>
      </trkpt>
      <trkpt lat="47.97545" lon="6.76655">
        <ele>762.93</ele>
        <time>2020-08-18T08:45:22Z</time>
      </trkpt>
      <trkpt lat="47.9754" lon="6.76682">
        <ele>761.7</ele>
        <time>2020-08-18T08:45:25Z</time>
      </trkpt>
      <trkpt lat="47.97539" lon="6.76714">
        <ele>761.04</ele>
        <time>2020-08-18T08:45:28Z</time>
      </trkpt>
      <trkpt lat="47.9754" lon="6.76742">
        <ele>757.72</ele>
        <time>2020-08-18T08:45:30Z</time>
      </trkpt>
      <trkpt lat="47.97536" lon="6.76777">
        <ele>750.15</ele>
        <time>2020-08-18T08:45:33Z</time>
      </trkpt>
      <trkpt lat="47.9752" lon="6.76808">
        <ele>736.65</ele>
        <time>2020-08-18T08:45:36Z</time>
      </trkpt>
      <trkpt lat="47.97505" lon="6.76827">
        <ele>736.55</ele>
        <time>2020-08-18T08:45:39Z</time>
      </trkpt>
      <trkpt lat="47.97486" lon="6.7684">
        <ele>738.14</ele>
        <time>2020-08-18T08:45:43Z</time>
      </trkpt>
      <trkpt lat="47.97465" lon="6.76838">
        <ele>739.01</ele>
        <time>2020-08-18T08:45:46Z</time>
      </trkpt>
      <trkpt lat="47.97447" lon="6.7685">
        <ele>741.25</ele>
        <time>2020-08-18T08:45:49Z</time>
      </trkpt>
      <trkpt lat="47.97426" lon="6.7685">
        <ele>740.48</ele>
        <time>2020-08-18T08:45:52Z</time>
      </trkpt>
      <trkpt lat="47.97403" lon="6.76857">
        <ele>738.71</ele>
        <time>2020-08-18T08:45:55Z</time>
      </trkpt>
      <trkpt lat="47.97387" lon="6.76869">
        <ele>737.95</ele>
        <time>2020-08-18T08:45:57Z</time>
      </trkpt>
      <trkpt lat="47.97371" lon="6.76883">
        <ele>737.14</ele>
        <time>2020-08-18T08:45:59Z</time>
      </trkpt>
      <trkpt lat="47.97347" lon="6.7689">
        <ele>735.17</ele>
        <time>2020-08-18T08:46:01Z</time>
      </trkpt>
      <trkpt lat="47.97328" lon="6.76917">
        <ele>733.93</ele>
        <time>2020-08-18T08:46:03Z</time>
      </trkpt>
      <trkpt lat="47.97309" lon="6.76905">
        <ele>734.72</ele>
        <time>2020-08-18T08:46:08Z</time>
      </trkpt>
      <trkpt lat="47.97285" lon="6.76891">
        <ele>734.75</ele>
        <time>2020-08-18T08:46:10Z</time>
      </trkpt>
      <trkpt lat="47.97258" lon="6.76897">
        <ele>734.2</ele>
        <time>2020-08-18T08:46:13Z</time>
      </trkpt>
      <trkpt lat="47.9724" lon="6.76906">
        <ele>733.97</ele>
        <time>2020-08-18T08:46:15Z</time>
      </trkpt>
      <trkpt lat="47.97215" lon="6.76918">
        <ele>733.04</ele>
        <time>2020-08-18T08:46:18Z</time>
      </trkpt>
      <trkpt lat="47.97188" lon="6.76917">
        <ele>732.22</ele>
        <time>2020-08-18T08:46:21Z</time>
      </trkpt>
      <trkpt lat="47.97168" lon="6.76901">
        <ele>731.27</ele>
        <time>2020-08-18T08:46:23Z</time>
      </trkpt>
      <trkpt lat="47.97146" lon="6.76897">
        <ele>731.02</ele>
        <time>2020-08-18T08:46:25Z</time>
      </trkpt>
      <trkpt lat="47.97128" lon="6.76912">
        <ele>730.43</ele>
        <time>2020-08-18T08:46:28Z</time>
      </trkpt>
      <trkpt lat="47.97149" lon="6.76929">
        <ele>731.12</ele>
        <time>2020-08-18T08:46:32Z</time>
      </trkpt>
      <trkpt lat="47.97158" lon="6.76894">
        <ele>731.74</ele>
        <time>2020-08-18T08:46:35Z</time>
      </trkpt>
      <trkpt lat="47.97164" lon="6.76863">
        <ele>731.25</ele>
        <time>2020-08-18T08:46:38Z</time>
      </trkpt>
      <trkpt lat="47.97172" lon="6.7683">
        <ele>737.45</ele>
        <time>2020-08-18T08:46:42Z</time>
      </trkpt>
      <trkpt lat="47.97182" lon="6.76795">
        <ele>743.22</ele>
        <time>2020-08-18T08:46:45Z</time>
      </trkpt>
      <trkpt lat="47.97187" lon="6.76764">
        <ele>746.32</ele>
        <time>2020-08-18T08:46:48Z</time>
      </trkpt>
      <trkpt lat="47.97183" lon="6.76731">
        <ele>747.08</ele>
        <time>2020-08-18T08:46:53Z</time>
      </trkpt>
      <trkpt lat="47.97161" lon="6.76724">
        <ele>747.03</ele>
        <time>2020-08-18T08:46:57Z</time>
      </trkpt>
      <trkpt lat="47.9714" lon="6.76735">
        <ele>746.06</ele>
        <time>2020-08-18T08:47:00Z</time>
      </trkpt>
      <trkpt lat="47.97122" lon="6.76747">
        <ele>745.34</ele>
        <time>2020-08-18T08:47:02Z</time>
      </trkpt>
      <trkpt lat="47.97097" lon="6.76766">
        <ele>743.72</ele>
        <time>2020-08-18T08:47:05Z</time>
      </trkpt>
      <trkpt lat="47.97078" lon="6.76779">
        <ele>741.22</ele>
        <time>2020-08-18T08:47:07Z</time>
      </trkpt>
      <trkpt lat="47.9706" lon="6.7679">
        <ele>738.38</ele>
        <time>2020-08-18T08:47:09Z</time>
      </trkpt>
      <trkpt lat="47.9704" lon="6.768">
        <ele>735.1</ele>
        <time>2020-08-18T08:47:11Z</time>
      </trkpt>
      <trkpt lat="47.97022" lon="6.76809">
        <ele>733.45</ele>
        <time>2020-08-18T08:47:13Z</time>
      </trkpt>
      <trkpt lat="47.97002" lon="6.76821">
        <ele>732.48</ele>
        <time>2020-08-18T08:47:16Z</time>
      </trkpt>
      <trkpt lat="47.96986" lon="6.76846">
        <ele>730.5</ele>
        <time>2020-08-18T08:47:19Z</time>
      </trkpt>
      <trkpt lat="47.96978" lon="6.76876">
        <ele>727.8</ele>
        <time>2020-08-18T08:47:22Z</time>
      </trkpt>
      <trkpt lat="47.96969" lon="6.76906">
        <ele>724.06</ele>
        <time>2020-08-18T08:47:25Z</time>
      </trkpt>
      <trkpt lat="47.96954" lon="6.76934">
        <ele>722.47</ele>
        <time>2020-08-18T08:47:28Z</time>
      </trkpt>
      <trkpt lat="47.96937" lon="6.76963">
        <ele>721.14</ele>
        <time>2020-08-18T08:47:31Z</time>
      </trkpt>
      <trkpt lat="47.96919" lon="6.76991">
        <ele>719.65</ele>
        <time>2020-08-18T08:47:34Z</time>
      </trkpt>
      <trkpt lat="47.96903" lon="6.77018">
        <ele>718.37</ele>
        <time>2020-08-18T08:47:37Z</time>
      </trkpt>
      <trkpt lat="47.96889" lon="6.77047">
        <ele>717.28</ele>
        <time>2020-08-18T08:47:40Z</time>
      </trkpt>
      <trkpt lat="47.96876" lon="6.77074">
        <ele>714.41</ele>
        <time>2020-08-18T08:47:43Z</time>
      </trkpt>
      <trkpt lat="47.96861" lon="6.77102">
        <ele>711.41</ele>
        <time>2020-08-18T08:47:46Z</time>
      </trkpt>
      <trkpt lat="47.96851" lon="6.77135">
        <ele>709.12</ele>
        <time>2020-08-18T08:47:49Z</time>
      </trkpt>
      <trkpt lat="47.96848" lon="6.77171">
        <ele>708.08</ele>
        <time>2020-08-18T08:47:52Z</time>
      </trkpt>
      <trkpt lat="47.96849" lon="6.77206">
        <ele>708.14</ele>
        <time>2020-08-18T08:47:55Z</time>
      </trkpt>
      <trkpt lat="47.96845" lon="6.77243">
        <ele>708.14</ele>
        <time>2020-08-18T08:47:58Z</time>
      </trkpt>
      <trkpt lat="47.9683" lon="6.7727">
        <ele>706.02</ele>
        <time>2020-08-18T08:48:01Z</time>
      </trkpt>
      <trkpt lat="47.96798" lon="6.77249">
        <ele>702.98</ele>
        <time>2020-08-18T08:48:03Z</time>
      </trkpt>
      <trkpt lat="47.96776" lon="6.77222">
        <ele>700.73</ele>
        <time>2020-08-18T08:48:05Z</time>
      </trkpt>
      <trkpt lat="47.96758" lon="6.77223">
        <ele>698.04</ele>
        <time>2020-08-18T08:48:07Z</time>
      </trkpt>
      <trkpt lat="47.9675" lon="6.7726">
        <ele>695.95</ele>
        <time>2020-08-18T08:48:10Z</time>
      </trkpt>
      <trkpt lat="47.96744" lon="6.77287">
        <ele>693.46</ele>
        <time>2020-08-18T08:48:13Z</time>
      </trkpt>
      <trkpt lat="47.96715" lon="6.77295">
        <ele>690.78</ele>
        <time>2020-08-18T08:48:16Z</time>
      </trkpt>
      <trkpt lat="47.96688" lon="6.77281">
        <ele>688.14</ele>
        <time>2020-08-18T08:48:18Z</time>
      </trkpt>
      <trkpt lat="47.96666" lon="6.77277">
        <ele>687.46</ele>
        <time>2020-08-18T08:48:21Z</time>
      </trkpt>
      <trkpt lat="47.96647" lon="6.77284">
        <ele>689.91</ele>
        <time>2020-08-18T08:48:26Z</time>
      </trkpt>
      <trkpt lat="47.96632" lon="6.77308">
        <ele>691.08</ele>
        <time>2020-08-18T08:48:30Z</time>
      </trkpt>
      <trkpt lat="47.96617" lon="6.77334">
        <ele>694.57</ele>
        <time>2020-08-18T08:48:33Z</time>
      </trkpt>
      <trkpt lat="47.96593" lon="6.77353">
        <ele>700.41</ele>
        <time>2020-08-18T08:48:37Z</time>
      </trkpt>
      <trkpt lat="47.96575" lon="6.77369">
        <ele>703.67</ele>
        <time>2020-08-18T08:48:39Z</time>
      </trkpt>
      <trkpt lat="47.96567" lon="6.774">
        <ele>706.36</ele>
        <time>2020-08-18T08:48:42Z</time>
      </trkpt>
      <trkpt lat="47.9657" lon="6.77434">
        <ele>707.58</ele>
        <time>2020-08-18T08:48:45Z</time>
      </trkpt>
      <trkpt lat="47.96579" lon="6.77464">
        <ele>708.4</ele>
        <time>2020-08-18T08:48:48Z</time>
      </trkpt>
      <trkpt lat="47.96586" lon="6.77496">
        <ele>709.24</ele>
        <time>2020-08-18T08:48:51Z</time>
      </trkpt>
      <trkpt lat="47.96595" lon="6.77523">
        <ele>708.47</ele>
        <time>2020-08-18T08:48:54Z</time>
      </trkpt>
      <trkpt lat="47.96596" lon="6.77553">
        <ele>709.74</ele>
        <time>2020-08-18T08:48:57Z</time>
      </trkpt>
      <trkpt lat="47.96599" lon="6.77581">
        <ele>710.24</ele>
        <time>2020-08-18T08:49:00Z</time>
      </trkpt>
      <trkpt lat="47.96602" lon="6.77613">
        <ele>709.33</ele>
        <time>2020-08-18T08:49:03Z</time>
      </trkpt>
      <trkpt lat="47.966" lon="6.77643">
        <ele>708.53</ele>
        <time>2020-08-18T08:49:06Z</time>
      </trkpt>
      <trkpt lat="47.96583" lon="6.77667">
        <ele>707.81</ele>
        <time>2020-08-18T08:49:09Z</time>
      </trkpt>
      <trkpt lat="47.96568" lon="6.77685">
        <ele>705.61</ele>
        <time>2020-08-18T08:49:11Z</time>
      </trkpt>
      <trkpt lat="47.9655" lon="6.77712">
        <ele>701.46</ele>
        <time>2020-08-18T08:49:14Z</time>
      </trkpt>
      <trkpt lat="47.96533" lon="6.77735">
        <ele>697.33</ele>
        <time>2020-08-18T08:49:17Z</time>
      </trkpt>
      <trkpt lat="47.96522" lon="6.77758">
        <ele>694.25</ele>
        <time>2020-08-18T08:49:20Z</time>
      </trkpt>
      <trkpt lat="47.96521" lon="6.77791">
        <ele>690.21</ele>
        <time>2020-08-18T08:49:23Z</time>
      </trkpt>
      <trkpt lat="47.96535" lon="6.77812">
        <ele>688.87</ele>
        <time>2020-08-18T08:49:26Z</time>
      </trkpt>
      <trkpt lat="47.96558" lon="6.7782">
        <ele>688.58</ele>
        <time>2020-08-18T08:49:29Z</time>
      </trkpt>
      <trkpt lat="47.96584" lon="6.77824">
        <ele>688.35</ele>
        <time>2020-08-18T08:49:32Z</time>
      </trkpt>
      <trkpt lat="47.96607" lon="6.77826">
        <ele>687.51</ele>
        <time>2020-08-18T08:49:35Z</time>
      </trkpt>
      <trkpt lat="47.96625" lon="6.77839">
        <ele>686.55</ele>
        <time>2020-08-18T08:49:38Z</time>
      </trkpt>
      <trkpt lat="47.96637" lon="6.77864">
        <ele>685.72</ele>
        <time>2020-08-18T08:49:41Z</time>
      </trkpt>
      <trkpt lat="47.96651" lon="6.77888">
        <ele>685.06</ele>
        <time>2020-08-18T08:49:44Z</time>
      </trkpt>
      <trkpt lat="47.96658" lon="6.77915">
        <ele>682.67</ele>
        <time>2020-08-18T08:49:50Z</time>
      </trkpt>
      <trkpt lat="47.96643" lon="6.77899">
        <ele>676.15</ele>
        <time>2020-08-18T08:49:55Z</time>
      </trkpt>
      <trkpt lat="47.96623" lon="6.77892">
        <ele>673.5</ele>
        <time>2020-08-18T08:49:58Z</time>
      </trkpt>
      <trkpt lat="47.96602" lon="6.77887">
        <ele>671.12</ele>
        <time>2020-08-18T08:50:01Z</time>
      </trkpt>
      <trkpt lat="47.96579" lon="6.77881">
        <ele>668.19</ele>
        <time>2020-08-18T08:50:04Z</time>
      </trkpt>
      <trkpt lat="47.96555" lon="6.77878">
        <ele>665.43</ele>
        <time>2020-08-18T08:50:07Z</time>
      </trkpt>
      <trkpt lat="47.9653" lon="6.77872">
        <ele>663.79</ele>
        <time>2020-08-18T08:50:10Z</time>
      </trkpt>
      <trkpt lat="47.96504" lon="6.77866">
        <ele>661.54</ele>
        <time>2020-08-18T08:50:13Z</time>
      </trkpt>
      <trkpt lat="47.96481" lon="6.77851">
        <ele>659.06</ele>
        <time>2020-08-18T08:50:16Z</time>
      </trkpt>
      <trkpt lat="47.96458" lon="6.77833">
        <ele>657.13</ele>
        <time>2020-08-18T08:50:19Z</time>
      </trkpt>
      <trkpt lat="47.96436" lon="6.77814">
        <ele>655.83</ele>
        <time>2020-08-18T08:50:22Z</time>
      </trkpt>
      <trkpt lat="47.96414" lon="6.77796">
        <ele>652.85</ele>
        <time>2020-08-18T08:50:25Z</time>
      </trkpt>
      <trkpt lat="47.96397" lon="6.77787">
        <ele>649.55</ele>
        <time>2020-08-18T08:50:27Z</time>
      </trkpt>
      <trkpt lat="47.96379" lon="6.77781">
        <ele>646.86</ele>
        <time>2020-08-18T08:50:29Z</time>
      </trkpt>
      <trkpt lat="47.96353" lon="6.77774">
        <ele>643.17</ele>
        <time>2020-08-18T08:50:32Z</time>
      </trkpt>
      <trkpt lat="47.96327" lon="6.77767">
        <ele>639.52</ele>
        <time>2020-08-18T08:50:35Z</time>
      </trkpt>
      <trkpt lat="47.96306" lon="6.77754">
        <ele>637.03</ele>
        <time>2020-08-18T08:50:38Z</time>
      </trkpt>
      <trkpt lat="47.9629" lon="6.7773">
        <ele>632.05</ele>
        <time>2020-08-18T08:50:41Z</time>
      </trkpt>
      <trkpt lat="47.96271" lon="6.77708">
        <ele>625.99</ele>
        <time>2020-08-18T08:50:44Z</time>
      </trkpt>
      <trkpt lat="47.96253" lon="6.77685">
        <ele>622.14</ele>
        <time>2020-08-18T08:50:47Z</time>
      </trkpt>
      <trkpt lat="47.96237" lon="6.77664">
        <ele>622.95</ele>
        <time>2020-08-18T08:50:50Z</time>
      </trkpt>
      <trkpt lat="47.96215" lon="6.77645">
        <ele>624.09</ele>
        <time>2020-08-18T08:50:53Z</time>
      </trkpt>
      <trkpt lat="47.96196" lon="6.77639">
        <ele>623.32</ele>
        <time>2020-08-18T08:50:55Z</time>
      </trkpt>
      <trkpt lat="47.96176" lon="6.77634">
        <ele>622.01</ele>
        <time>2020-08-18T08:50:57Z</time>
      </trkpt>
      <trkpt lat="47.96151" lon="6.77631">
        <ele>621.97</ele>
        <time>2020-08-18T08:51:00Z</time>
      </trkpt>
      <trkpt lat="47.9613" lon="6.77635">
        <ele>619.21</ele>
        <time>2020-08-18T08:51:03Z</time>
      </trkpt>
      <trkpt lat="47.96108" lon="6.77638">
        <ele>615.4</ele>
        <time>2020-08-18T08:51:06Z</time>
      </trkpt>
      <trkpt lat="47.96086" lon="6.77632">
        <ele>612.51</ele>
        <time>2020-08-18T08:51:09Z</time>
      </trkpt>
      <trkpt lat="47.96067" lon="6.77612">
        <ele>609.78</ele>
        <time>2020-08-18T08:51:12Z</time>
      </trkpt>
      <trkpt lat="47.96052" lon="6.77586">
        <ele>609.06</ele>
        <time>2020-08-18T08:51:15Z</time>
      </trkpt>
      <trkpt lat="47.96034" lon="6.77563">
        <ele>608.36</ele>
        <time>2020-08-18T08:51:18Z</time>
      </trkpt>
      <trkpt lat="47.96011" lon="6.77548">
        <ele>607.06</ele>
        <time>2020-08-18T08:51:21Z</time>
      </trkpt>
      <trkpt lat="47.95989" lon="6.77536">
        <ele>605.32</ele>
        <time>2020-08-18T08:51:24Z</time>
      </trkpt>
      <trkpt lat="47.95966" lon="6.77539">
        <ele>602.9</ele>
        <time>2020-08-18T08:51:27Z</time>
      </trkpt>
      <trkpt lat="47.95943" lon="6.7755">
        <ele>600.63</ele>
        <time>2020-08-18T08:51:30Z</time>
      </trkpt>
      <trkpt lat="47.95919" lon="6.77562">
        <ele>599.08</ele>
        <time>2020-08-18T08:51:33Z</time>
      </trkpt>
      <trkpt lat="47.959" lon="6.77569">
        <ele>597.77</ele>
        <time>2020-08-18T08:51:36Z</time>
      </trkpt>
      <trkpt lat="47.95882" lon="6.77571">
        <ele>596.17</ele>
        <time>2020-08-18T08:51:39Z</time>
      </trkpt>
      <trkpt lat="47.95858" lon="6.77566">
        <ele>594.93</ele>
        <time>2020-08-18T08:51:42Z</time>
      </trkpt>
      <trkpt lat="47.95836" lon="6.77552">
        <ele>592.61</ele>
        <time>2020-08-18T08:51:45Z</time>
      </trkpt>
      <trkpt lat="47.95823" lon="6.77532">
        <ele>590.57</ele>
        <time>2020-08-18T08:51:48Z</time>
      </trkpt>
      <trkpt lat="47.95805" lon="6.77526">
        <ele>588.28</ele>
        <time>2020-08-18T08:51:53Z</time>
      </trkpt>
      <trkpt lat="47.95812" lon="6.77555">
        <ele>587.81</ele>
        <time>2020-08-18T08:51:57Z</time>
      </trkpt>
      <trkpt lat="47.95823" lon="6.77586">
        <ele>588.19</ele>
        <time>2020-08-18T08:52:00Z</time>
      </trkpt>
      <trkpt lat="47.95838" lon="6.77616">
        <ele>587.4</ele>
        <time>2020-08-18T08:52:03Z</time>
      </trkpt>
      <trkpt lat="47.95854" lon="6.77641">
        <ele>576.3</ele>
        <time>2020-08-18T08:52:05Z</time>
      </trkpt>
      <trkpt lat="47.95874" lon="6.77657">
        <ele>561.58</ele>
        <time>2020-08-18T08:52:07Z</time>
      </trkpt>
      <trkpt lat="47.95893" lon="6.77672">
        <ele>569.79</ele>
        <time>2020-08-18T08:52:10Z</time>
      </trkpt>
      <trkpt lat="47.95913" lon="6.77684">
        <ele>568.96</ele>
        <time>2020-08-18T08:52:14Z</time>
      </trkpt>
      <trkpt lat="47.9593" lon="6.77695">
        <ele>566.71</ele>
        <time>2020-08-18T08:52:18Z</time>
      </trkpt>
      <trkpt lat="47.95945" lon="6.77716">
        <ele>566.17</ele>
        <time>2020-08-18T08:52:21Z</time>
      </trkpt>
      <trkpt lat="47.95961" lon="6.77745">
        <ele>565.13</ele>
        <time>2020-08-18T08:52:24Z</time>
      </trkpt>
      <trkpt lat="47.95969" lon="6.7777">
        <ele>565.62</ele>
        <time>2020-08-18T08:52:28Z</time>
      </trkpt>
      <trkpt lat="47.95949" lon="6.77767">
        <ele>565.8</ele>
        <time>2020-08-18T08:52:32Z</time>
      </trkpt>
      <trkpt lat="47.95928" lon="6.77757">
        <ele>566.71</ele>
        <time>2020-08-18T08:52:35Z</time>
      </trkpt>
      <trkpt lat="47.9591" lon="6.77752">
        <ele>565.61</ele>
        <time>2020-08-18T08:52:37Z</time>
      </trkpt>
      <trkpt lat="47.95884" lon="6.77749">
        <ele>563.05</ele>
        <time>2020-08-18T08:52:40Z</time>
      </trkpt>
      <trkpt lat="47.95859" lon="6.77743">
        <ele>559.11</ele>
        <time>2020-08-18T08:52:43Z</time>
      </trkpt>
      <trkpt lat="47.95836" lon="6.77733">
        <ele>555.34</ele>
        <time>2020-08-18T08:52:46Z</time>
      </trkpt>
      <trkpt lat="47.95811" lon="6.77722">
        <ele>551.73</ele>
        <time>2020-08-18T08:52:49Z</time>
      </trkpt>
      <trkpt lat="47.95787" lon="6.77714">
        <ele>548.71</ele>
        <time>2020-08-18T08:52:52Z</time>
      </trkpt>
      <trkpt lat="47.95765" lon="6.77701">
        <ele>546.52</ele>
        <time>2020-08-18T08:52:55Z</time>
      </trkpt>
      <trkpt lat="47.95745" lon="6.77685">
        <ele>543.39</ele>
        <time>2020-08-18T08:52:58Z</time>
      </trkpt>
      <trkpt lat="47.95725" lon="6.77666">
        <ele>537.94</ele>
        <time>2020-08-18T08:53:01Z</time>
      </trkpt>
      <trkpt lat="47.95703" lon="6.77645">
        <ele>535.68</ele>
        <time>2020-08-18T08:53:04Z</time>
      </trkpt>
      <trkpt lat="47.95684" lon="6.7762">
        <ele>531.83</ele>
        <time>2020-08-18T08:53:07Z</time>
      </trkpt>
      <trkpt lat="47.95664" lon="6.77595">
        <ele>526.61</ele>
        <time>2020-08-18T08:53:10Z</time>
      </trkpt>
      <trkpt lat="47.95647" lon="6.7757">
        <ele>525.12</ele>
        <time>2020-08-18T08:53:13Z</time>
      </trkpt>
      <trkpt lat="47.95632" lon="6.77552">
        <ele>524.35</ele>
        <time>2020-08-18T08:53:16Z</time>
      </trkpt>
      <trkpt lat="47.9561" lon="6.7756">
        <ele>522.73</ele>
        <time>2020-08-18T08:53:21Z</time>
      </trkpt>
      <trkpt lat="47.95621" lon="6.77594">
        <ele>524.55</ele>
        <time>2020-08-18T08:53:24Z</time>
      </trkpt>
      <trkpt lat="47.95632" lon="6.7763">
        <ele>523.28</ele>
        <time>2020-08-18T08:53:27Z</time>
      </trkpt>
      <trkpt lat="47.95642" lon="6.77667">
        <ele>521.87</ele>
        <time>2020-08-18T08:53:30Z</time>
      </trkpt>
      <trkpt lat="47.95649" lon="6.77692">
        <ele>520.59</ele>
        <time>2020-08-18T08:53:32Z</time>
      </trkpt>
      <trkpt lat="47.95657" lon="6.77722">
        <ele>519.56</ele>
        <time>2020-08-18T08:53:35Z</time>
      </trkpt>
      <trkpt lat="47.95669" lon="6.77757">
        <ele>518.16</ele>
        <time>2020-08-18T08:53:38Z</time>
      </trkpt>
      <trkpt lat="47.95677" lon="6.77794">
        <ele>517.34</ele>
        <time>2020-08-18T08:53:41Z</time>
      </trkpt>
      <trkpt lat="47.95684" lon="6.7783">
        <ele>517.03</ele>
        <time>2020-08-18T08:53:44Z</time>
      </trkpt>
      <trkpt lat="47.95689" lon="6.77857">
        <ele>514.09</ele>
        <time>2020-08-18T08:53:46Z</time>
      </trkpt>
      <trkpt lat="47.95698" lon="6.77891">
        <ele>505.67</ele>
        <time>2020-08-18T08:53:49Z</time>
      </trkpt>
      <trkpt lat="47.95704" lon="6.77925">
        <ele>504.84</ele>
        <time>2020-08-18T08:53:52Z</time>
      </trkpt>
      <trkpt lat="47.95713" lon="6.77961">
        <ele>501.76</ele>
        <time>2020-08-18T08:53:55Z</time>
      </trkpt>
      <trkpt lat="47.95713" lon="6.77992">
        <ele>496.61</ele>
        <time>2020-08-18T08:53:58Z</time>
      </trkpt>
      <trkpt lat="47.95714" lon="6.78021">
        <ele>491.92</ele>
        <time>2020-08-18T08:54:01Z</time>
      </trkpt>
      <trkpt lat="47.95704" lon="6.78047">
        <ele>488.8</ele>
        <time>2020-08-18T08:54:05Z</time>
      </trkpt>
      <trkpt lat="47.95682" lon="6.78044">
        <ele>485.93</ele>
        <time>2020-08-18T08:54:09Z</time>
      </trkpt>
      <trkpt lat="47.95661" lon="6.78024">
        <ele>483.87</ele>
        <time>2020-08-18T08:54:12Z</time>
      </trkpt>
      <trkpt lat="47.95643" lon="6.77999">
        <ele>481.27</ele>
        <time>2020-08-18T08:54:15Z</time>
      </trkpt>
      <trkpt lat="47.95627" lon="6.77975">
        <ele>479.29</ele>
        <time>2020-08-18T08:54:18Z</time>
      </trkpt>
      <trkpt lat="47.95611" lon="6.7795">
        <ele>476.67</ele>
        <time>2020-08-18T08:54:21Z</time>
      </trkpt>
      <trkpt lat="47.956" lon="6.77924">
        <ele>475.05</ele>
        <time>2020-08-18T08:54:24Z</time>
      </trkpt>
      <trkpt lat="47.95586" lon="6.77902">
        <ele>473.27</ele>
        <time>2020-08-18T08:54:27Z</time>
      </trkpt>
      <trkpt lat="47.95565" lon="6.77891">
        <ele>471.78</ele>
        <time>2020-08-18T08:54:30Z</time>
      </trkpt>
      <trkpt lat="47.95541" lon="6.77891">
        <ele>470.35</ele>
        <time>2020-08-18T08:54:33Z</time>
      </trkpt>
      <trkpt lat="47.9552" lon="6.77888">
        <ele>470.53</ele>
        <time>2020-08-18T08:54:36Z</time>
      </trkpt>
      <trkpt lat="47.955" lon="6.77871">
        <ele>468.82</ele>
        <time>2020-08-18T08:54:39Z</time>
      </trkpt>
      <trkpt lat="47.95483" lon="6.77848">
        <ele>467.04</ele>
        <time>2020-08-18T08:54:42Z</time>
      </trkpt>
      <trkpt lat="47.95467" lon="6.77825">
        <ele>465.11</ele>
        <time>2020-08-18T08:54:45Z</time>
      </trkpt>
      <trkpt lat="47.95449" lon="6.778">
        <ele>462.48</ele>
        <time>2020-08-18T08:54:48Z</time>
      </trkpt>
      <trkpt lat="47.95431" lon="6.77776">
        <ele>460.34</ele>
        <time>2020-08-18T08:54:51Z</time>
      </trkpt>
      <trkpt lat="47.95417" lon="6.77755">
        <ele>456.96</ele>
        <time>2020-08-18T08:54:54Z</time>
      </trkpt>
      <trkpt lat="47.95397" lon="6.77748">
        <ele>451.81</ele>
        <time>2020-08-18T08:54:59Z</time>
      </trkpt>
      <trkpt lat="47.95395" lon="6.77778">
        <ele>450.79</ele>
        <time>2020-08-18T08:55:03Z</time>
      </trkpt>
      <trkpt lat="47.95405" lon="6.77813">
        <ele>448.51</ele>
        <time>2020-08-18T08:55:06Z</time>
      </trkpt>
      <trkpt lat="47.95411" lon="6.77839">
        <ele>446.6</ele>
        <time>2020-08-18T08:55:08Z</time>
      </trkpt>
      <trkpt lat="47.95417" lon="6.77873">
        <ele>444.68</ele>
        <time>2020-08-18T08:55:11Z</time>
      </trkpt>
      <trkpt lat="47.95421" lon="6.77905">
        <ele>443.32</ele>
        <time>2020-08-18T08:55:14Z</time>
      </trkpt>
      <trkpt lat="47.95419" lon="6.77933">
        <ele>441.85</ele>
        <time>2020-08-18T08:55:17Z</time>
      </trkpt>
      <trkpt lat="47.95408" lon="6.77958">
        <ele>438.41</ele>
        <time>2020-08-18T08:55:21Z</time>
      </trkpt>
      <trkpt lat="47.9539" lon="6.77972">
        <ele>435.84</ele>
        <time>2020-08-18T08:55:25Z</time>
      </trkpt>
      <trkpt lat="47.95367" lon="6.77982">
        <ele>433.13</ele>
        <time>2020-08-18T08:55:28Z</time>
      </trkpt>
      <trkpt lat="47.95349" lon="6.77987">
        <ele>429.85</ele>
        <time>2020-08-18T08:55:31Z</time>
      </trkpt>
      <trkpt lat="47.95325" lon="6.77986">
        <ele>426.57</ele>
        <time>2020-08-18T08:55:35Z</time>
      </trkpt>
      <trkpt lat="47.95304" lon="6.77978">
        <ele>424.39</ele>
        <time>2020-08-18T08:55:38Z</time>
      </trkpt>
      <trkpt lat="47.95282" lon="6.77967">
        <ele>424.49</ele>
        <time>2020-08-18T08:55:42Z</time>
      </trkpt>
      <trkpt lat="47.95265" lon="6.77952">
        <ele>423.74</ele>
        <time>2020-08-18T08:55:46Z</time>
      </trkpt>
      <trkpt lat="47.95262" lon="6.77923">
        <ele>422.94</ele>
        <time>2020-08-18T08:55:50Z</time>
      </trkpt>
      <trkpt lat="47.95242" lon="6.77919">
        <ele>427.98</ele>
        <time>2020-08-18T08:55:57Z</time>
      </trkpt>
      <trkpt lat="47.95224" lon="6.77927">
        <ele>428.6</ele>
        <time>2020-08-18T08:56:01Z</time>
      </trkpt>
      <trkpt lat="47.95203" lon="6.77935">
        <ele>431.18</ele>
        <time>2020-08-18T08:56:05Z</time>
      </trkpt>
      <trkpt lat="47.95183" lon="6.77952">
        <ele>432.06</ele>
        <time>2020-08-18T08:56:09Z</time>
      </trkpt>
      <trkpt lat="47.95166" lon="6.77985">
        <ele>432.47</ele>
        <time>2020-08-18T08:56:11Z</time>
      </trkpt>
      <trkpt lat="47.95155" lon="6.78015">
        <ele>430.21</ele>
        <time>2020-08-18T08:56:13Z</time>
      </trkpt>
      <trkpt lat="47.95139" lon="6.78033">
        <ele>428.65</ele>
        <time>2020-08-18T08:56:18Z</time>
      </trkpt>
      <trkpt lat="47.95124" lon="6.78055">
        <ele>421.88</ele>
        <time>2020-08-18T08:56:22Z</time>
      </trkpt>
      <trkpt lat="47.95114" lon="6.78081">
        <ele>417.49</ele>
        <time>2020-08-18T08:56:25Z</time>
      </trkpt>
      <trkpt lat="47.95101" lon="6.7811">
        <ele>414.74</ele>
        <time>2020-08-18T08:56:29Z</time>
      </trkpt>
      <trkpt lat="47.95095" lon="6.78138">
        <ele>413.68</ele>
        <time>2020-08-18T08:56:44Z</time>
      </trkpt>
      <trkpt lat="47.95093" lon="6.78172">
        <ele>415.66</ele>
        <time>2020-08-18T08:56:49Z</time>
      </trkpt>
      <trkpt lat="47.95088" lon="6.78203">
        <ele>417.71</ele>
        <time>2020-08-18T08:56:53Z</time>
      </trkpt>
      <trkpt lat="47.95075" lon="6.78225">
        <ele>421.13</ele>
        <time>2020-08-18T08:56:56Z</time>
      </trkpt>
      <trkpt lat="47.95062" lon="6.78245">
        <ele>424.21</ele>
        <time>2020-08-18T08:56:59Z</time>
      </trkpt>
      <trkpt lat="47.95049" lon="6.78266">
        <ele>426.74</ele>
        <time>2020-08-18T08:57:02Z</time>
      </trkpt>
      <trkpt lat="47.95041" lon="6.78292">
        <ele>428.45</ele>
        <time>2020-08-18T08:57:05Z</time>
      </trkpt>
      <trkpt lat="47.95037" lon="6.78323">
        <ele>429.26</ele>
        <time>2020-08-18T08:57:08Z</time>
      </trkpt>
      <trkpt lat="47.95035" lon="6.78351">
        <ele>429.26</ele>
        <time>2020-08-18T08:57:11Z</time>
      </trkpt>
      <trkpt lat="47.95032" lon="6.7838">
        <ele>429.31</ele>
        <time>2020-08-18T08:57:14Z</time>
      </trkpt>
      <trkpt lat="47.95025" lon="6.78406">
        <ele>426.65</ele>
        <time>2020-08-18T08:57:17Z</time>
      </trkpt>
      <trkpt lat="47.95005" lon="6.78421">
        <ele>422.19</ele>
        <time>2020-08-18T08:57:20Z</time>
      </trkpt>
      <trkpt lat="47.94985" lon="6.78436">
        <ele>420.57</ele>
        <time>2020-08-18T08:57:23Z</time>
      </trkpt>
      <trkpt lat="47.94968" lon="6.78456">
        <ele>421.52</ele>
        <time>2020-08-18T08:57:26Z</time>
      </trkpt>
      <trkpt lat="47.94953" lon="6.78481">
        <ele>422.92</ele>
        <time>2020-08-18T08:57:29Z</time>
      </trkpt>
      <trkpt lat="47.94941" lon="6.78508">
        <ele>423.34</ele>
        <time>2020-08-18T08:57:32Z</time>
      </trkpt>
      <trkpt lat="47.94929" lon="6.78535">
        <ele>423.23</ele>
        <time>2020-08-18T08:57:35Z</time>
      </trkpt>
      <trkpt lat="47.94921" lon="6.78564">
        <ele>423.01</ele>
        <time>2020-08-18T08:57:38Z</time>
      </trkpt>
      <trkpt lat="47.94913" lon="6.78592">
        <ele>424.08</ele>
        <time>2020-08-18T08:57:41Z</time>
      </trkpt>
      <trkpt lat="47.94905" lon="6.78618">
        <ele>423.83</ele>
        <time>2020-08-18T08:57:44Z</time>
      </trkpt>
      <trkpt lat="47.94898" lon="6.78644">
        <ele>423.2</ele>
        <time>2020-08-18T08:57:47Z</time>
      </trkpt>
      <trkpt lat="47.9489" lon="6.78669">
        <ele>423.47</ele>
        <time>2020-08-18T08:57:50Z</time>
      </trkpt>
      <trkpt lat="47.9488" lon="6.78701">
        <ele>423.54</ele>
        <time>2020-08-18T08:57:54Z</time>
      </trkpt>
      <trkpt lat="47.94872" lon="6.78734">
        <ele>422.6</ele>
        <time>2020-08-18T08:57:58Z</time>
      </trkpt>
      <trkpt lat="47.94864" lon="6.78764">
        <ele>421.88</ele>
        <time>2020-08-18T08:58:02Z</time>
      </trkpt>
      <trkpt lat="47.94857" lon="6.78792">
        <ele>419.88</ele>
        <time>2020-08-18T08:58:06Z</time>
      </trkpt>
      <trkpt lat="47.94849" lon="6.78817">
        <ele>417.8</ele>
        <time>2020-08-18T08:58:10Z</time>
      </trkpt>
      <trkpt lat="47.94847" lon="6.78845">
        <ele>418.36</ele>
        <time>2020-08-18T08:58:14Z</time>
      </trkpt>
      <trkpt lat="47.94845" lon="6.78876">
        <ele>418.26</ele>
        <time>2020-08-18T08:58:18Z</time>
      </trkpt>
      <trkpt lat="47.94839" lon="6.78907">
        <ele>416.61</ele>
        <time>2020-08-18T08:58:23Z</time>
      </trkpt>
      <trkpt lat="47.94835" lon="6.78935">
        <ele>416.36</ele>
        <time>2020-08-18T08:58:27Z</time>
      </trkpt>
      <trkpt lat="47.94829" lon="6.78966">
        <ele>418.28</ele>
        <time>2020-08-18T08:58:32Z</time>
      </trkpt>
      <trkpt lat="47.94825" lon="6.78994">
        <ele>419.38</ele>
        <time>2020-08-18T08:58:36Z</time>
      </trkpt>
      <trkpt lat="47.94821" lon="6.79027">
        <ele>420.64</ele>
        <time>2020-08-18T08:58:40Z</time>
      </trkpt>
      <trkpt lat="47.94816" lon="6.7906">
        <ele>421.04</ele>
        <time>2020-08-18T08:58:44Z</time>
      </trkpt>
      <trkpt lat="47.94807" lon="6.79088">
        <ele>416.38</ele>
        <time>2020-08-18T08:58:47Z</time>
      </trkpt>
      <trkpt lat="47.948" lon="6.79113">
        <ele>417.09</ele>
        <time>2020-08-18T08:58:50Z</time>
      </trkpt>
      <trkpt lat="47.94795" lon="6.79146">
        <ele>416.76</ele>
        <time>2020-08-18T08:58:54Z</time>
      </trkpt>
      <trkpt lat="47.9479" lon="6.79178">
        <ele>418.96</ele>
        <time>2020-08-18T08:58:58Z</time>
      </trkpt>
      <trkpt lat="47.94785" lon="6.79212">
        <ele>419.63</ele>
        <time>2020-08-18T08:59:02Z</time>
      </trkpt>
      <trkpt lat="47.94779" lon="6.79246">
        <ele>419.52</ele>
        <time>2020-08-18T08:59:06Z</time>
      </trkpt>
      <trkpt lat="47.94772" lon="6.7928">
        <ele>419.7</ele>
        <time>2020-08-18T08:59:10Z</time>
      </trkpt>
      <trkpt lat="47.94769" lon="6.79307">
        <ele>420</ele>
        <time>2020-08-18T08:59:13Z</time>
      </trkpt>
      <trkpt lat="47.94767" lon="6.79334">
        <ele>421.08</ele>
        <time>2020-08-18T08:59:16Z</time>
      </trkpt>
      <trkpt lat="47.94766" lon="6.79366">
        <ele>423.11</ele>
        <time>2020-08-18T08:59:20Z</time>
      </trkpt>
      <trkpt lat="47.94764" lon="6.79393">
        <ele>424.82</ele>
        <time>2020-08-18T08:59:23Z</time>
      </trkpt>
      <trkpt lat="47.9476" lon="6.79421">
        <ele>426.26</ele>
        <time>2020-08-18T08:59:26Z</time>
      </trkpt>
      <trkpt lat="47.94758" lon="6.79456">
        <ele>427.96</ele>
        <time>2020-08-18T08:59:30Z</time>
      </trkpt>
      <trkpt lat="47.94755" lon="6.79488">
        <ele>431.03</ele>
        <time>2020-08-18T08:59:34Z</time>
      </trkpt>
      <trkpt lat="47.94748" lon="6.79523">
        <ele>432.29</ele>
        <time>2020-08-18T08:59:38Z</time>
      </trkpt>
      <trkpt lat="47.94745" lon="6.7955">
        <ele>432.63</ele>
        <time>2020-08-18T08:59:41Z</time>
      </trkpt>
      <trkpt lat="47.94743" lon="6.79584">
        <ele>431.91</ele>
        <time>2020-08-18T08:59:45Z</time>
      </trkpt>
      <trkpt lat="47.94743" lon="6.79611">
        <ele>431.16</ele>
        <time>2020-08-18T08:59:48Z</time>
      </trkpt>
      <trkpt lat="47.94743" lon="6.79639">
        <ele>430.7</ele>
        <time>2020-08-18T08:59:51Z</time>
      </trkpt>
      <trkpt lat="47.94742" lon="6.79673">
        <ele>430.64</ele>
        <time>2020-08-18T08:59:55Z</time>
      </trkpt>
      <trkpt lat="47.94742" lon="6.79703">
        <ele>430.99</ele>
        <time>2020-08-18T08:59:59Z</time>
      </trkpt>
      <trkpt lat="47.94748" lon="6.79734">
        <ele>433.86</ele>
        <time>2020-08-18T09:00:03Z</time>
      </trkpt>
      <trkpt lat="47.94754" lon="6.7976">
        <ele>434.12</ele>
        <time>2020-08-18T09:00:06Z</time>
      </trkpt>
      <trkpt lat="47.9476" lon="6.79786">
        <ele>433.57</ele>
        <time>2020-08-18T09:00:09Z</time>
      </trkpt>
      <trkpt lat="47.94766" lon="6.79812">
        <ele>432.79</ele>
        <time>2020-08-18T09:00:12Z</time>
      </trkpt>
      <trkpt lat="47.94772" lon="6.79839">
        <ele>432.96</ele>
        <time>2020-08-18T09:00:15Z</time>
      </trkpt>
      <trkpt lat="47.9478" lon="6.79871">
        <ele>435.62</ele>
        <time>2020-08-18T09:00:19Z</time>
      </trkpt>
      <trkpt lat="47.94786" lon="6.79898">
        <ele>436.53</ele>
        <time>2020-08-18T09:00:22Z</time>
      </trkpt>
      <trkpt lat="47.94794" lon="6.79925">
        <ele>436.61</ele>
        <time>2020-08-18T09:00:25Z</time>
      </trkpt>
      <trkpt lat="47.948" lon="6.79953">
        <ele>436.57</ele>
        <time>2020-08-18T09:00:28Z</time>
      </trkpt>
      <trkpt lat="47.94807" lon="6.79982">
        <ele>434.7</ele>
        <time>2020-08-18T09:00:31Z</time>
      </trkpt>
      <trkpt lat="47.94817" lon="6.80013">
        <ele>432.85</ele>
        <time>2020-08-18T09:00:35Z</time>
      </trkpt>
      <trkpt lat="47.94831" lon="6.8003">
        <ele>434.59</ele>
        <time>2020-08-18T09:00:38Z</time>
      </trkpt>
      <trkpt lat="47.94847" lon="6.8005">
        <ele>437.82</ele>
        <time>2020-08-18T09:00:41Z</time>
      </trkpt>
      <trkpt lat="47.94864" lon="6.80068">
        <ele>441.06</ele>
        <time>2020-08-18T09:00:44Z</time>
      </trkpt>
      <trkpt lat="47.94879" lon="6.80085">
        <ele>443.72</ele>
        <time>2020-08-18T09:00:47Z</time>
      </trkpt>
      <trkpt lat="47.94898" lon="6.80106">
        <ele>445.76</ele>
        <time>2020-08-18T09:00:51Z</time>
      </trkpt>
      <trkpt lat="47.94916" lon="6.80123">
        <ele>447.83</ele>
        <time>2020-08-18T09:00:55Z</time>
      </trkpt>
      <trkpt lat="47.94932" lon="6.80141">
        <ele>449.91</ele>
        <time>2020-08-18T09:00:59Z</time>
      </trkpt>
      <trkpt lat="47.94949" lon="6.80167">
        <ele>451.06</ele>
        <time>2020-08-18T09:01:03Z</time>
      </trkpt>
      <trkpt lat="47.94962" lon="6.80187">
        <ele>451.63</ele>
        <time>2020-08-18T09:01:06Z</time>
      </trkpt>
      <trkpt lat="47.94978" lon="6.80214">
        <ele>453.36</ele>
        <time>2020-08-18T09:01:10Z</time>
      </trkpt>
      <trkpt lat="47.94991" lon="6.80244">
        <ele>454.96</ele>
        <time>2020-08-18T09:01:14Z</time>
      </trkpt>
      <trkpt lat="47.95" lon="6.80267">
        <ele>456.72</ele>
        <time>2020-08-18T09:01:17Z</time>
      </trkpt>
      <trkpt lat="47.95011" lon="6.80297">
        <ele>457.03</ele>
        <time>2020-08-18T09:01:21Z</time>
      </trkpt>
      <trkpt lat="47.9502" lon="6.80331">
        <ele>457.06</ele>
        <time>2020-08-18T09:01:25Z</time>
      </trkpt>
      <trkpt lat="47.95028" lon="6.80358">
        <ele>454.67</ele>
        <time>2020-08-18T09:01:28Z</time>
      </trkpt>
      <trkpt lat="47.95035" lon="6.80384">
        <ele>453.8</ele>
        <time>2020-08-18T09:01:31Z</time>
      </trkpt>
      <trkpt lat="47.95044" lon="6.8041">
        <ele>453.13</ele>
        <time>2020-08-18T09:01:34Z</time>
      </trkpt>
      <trkpt lat="47.95052" lon="6.80437">
        <ele>449.82</ele>
        <time>2020-08-18T09:01:37Z</time>
      </trkpt>
      <trkpt lat="47.95058" lon="6.80464">
        <ele>447.66</ele>
        <time>2020-08-18T09:01:40Z</time>
      </trkpt>
      <trkpt lat="47.95065" lon="6.80496">
        <ele>447.16</ele>
        <time>2020-08-18T09:01:44Z</time>
      </trkpt>
      <trkpt lat="47.95073" lon="6.80527">
        <ele>441.9</ele>
        <time>2020-08-18T09:01:48Z</time>
      </trkpt>
      <trkpt lat="47.95084" lon="6.80559">
        <ele>439.43</ele>
        <time>2020-08-18T09:01:52Z</time>
      </trkpt>
      <trkpt lat="47.95096" lon="6.80586">
        <ele>442.62</ele>
        <time>2020-08-18T09:01:56Z</time>
      </trkpt>
      <trkpt lat="47.95103" lon="6.80611">
        <ele>448.69</ele>
        <time>2020-08-18T09:01:59Z</time>
      </trkpt>
      <trkpt lat="47.95104" lon="6.80639">
        <ele>454.04</ele>
        <time>2020-08-18T09:02:02Z</time>
      </trkpt>
      <trkpt lat="47.95101" lon="6.80673">
        <ele>458.48</ele>
        <time>2020-08-18T09:02:06Z</time>
      </trkpt>
      <trkpt lat="47.95099" lon="6.80706">
        <ele>452.72</ele>
        <time>2020-08-18T09:02:09Z</time>
      </trkpt>
      <trkpt lat="47.95104" lon="6.8074">
        <ele>446.74</ele>
        <time>2020-08-18T09:02:12Z</time>
      </trkpt>
      <trkpt lat="47.95112" lon="6.80773">
        <ele>443.37</ele>
        <time>2020-08-18T09:02:15Z</time>
      </trkpt>
      <trkpt lat="47.95122" lon="6.80801">
        <ele>441.75</ele>
        <time>2020-08-18T09:02:18Z</time>
      </trkpt>
      <trkpt lat="47.95136" lon="6.8083">
        <ele>437.52</ele>
        <time>2020-08-18T09:02:22Z</time>
      </trkpt>
      <trkpt lat="47.95147" lon="6.80852">
        <ele>436.17</ele>
        <time>2020-08-18T09:02:25Z</time>
      </trkpt>
      <trkpt lat="47.95157" lon="6.80875">
        <ele>434.53</ele>
        <time>2020-08-18T09:02:28Z</time>
      </trkpt>
      <trkpt lat="47.95169" lon="6.80904">
        <ele>432.76</ele>
        <time>2020-08-18T09:02:32Z</time>
      </trkpt>
      <trkpt lat="47.9518" lon="6.80936">
        <ele>431.5</ele>
        <time>2020-08-18T09:02:36Z</time>
      </trkpt>
      <trkpt lat="47.95187" lon="6.80962">
        <ele>433.03</ele>
        <time>2020-08-18T09:02:39Z</time>
      </trkpt>
      <trkpt lat="47.95193" lon="6.80989">
        <ele>435.27</ele>
        <time>2020-08-18T09:02:42Z</time>
      </trkpt>
      <trkpt lat="47.95196" lon="6.81018">
        <ele>435.51</ele>
        <time>2020-08-18T09:02:45Z</time>
      </trkpt>
      <trkpt lat="47.95196" lon="6.81047">
        <ele>437.05</ele>
        <time>2020-08-18T09:02:48Z</time>
      </trkpt>
      <trkpt lat="47.95196" lon="6.81076">
        <ele>437.66</ele>
        <time>2020-08-18T09:02:51Z</time>
      </trkpt>
      <trkpt lat="47.95196" lon="6.81105">
        <ele>437.88</ele>
        <time>2020-08-18T09:02:54Z</time>
      </trkpt>
      <trkpt lat="47.95197" lon="6.81133">
        <ele>439.49</ele>
        <time>2020-08-18T09:02:57Z</time>
      </trkpt>
      <trkpt lat="47.95201" lon="6.81168">
        <ele>441.19</ele>
        <time>2020-08-18T09:03:01Z</time>
      </trkpt>
      <trkpt lat="47.95206" lon="6.812">
        <ele>443.39</ele>
        <time>2020-08-18T09:03:05Z</time>
      </trkpt>
      <trkpt lat="47.95211" lon="6.81226">
        <ele>445.7</ele>
        <time>2020-08-18T09:03:09Z</time>
      </trkpt>
      <trkpt lat="47.95217" lon="6.81255">
        <ele>446.93</ele>
        <time>2020-08-18T09:03:13Z</time>
      </trkpt>
      <trkpt lat="47.95223" lon="6.81283">
        <ele>447.55</ele>
        <time>2020-08-18T09:03:18Z</time>
      </trkpt>
      <trkpt lat="47.95225" lon="6.81314">
        <ele>447.67</ele>
        <time>2020-08-18T09:03:24Z</time>
      </trkpt>
      <trkpt lat="47.95223" lon="6.81341">
        <ele>445.07</ele>
        <time>2020-08-18T09:03:29Z</time>
      </trkpt>
      <trkpt lat="47.95219" lon="6.81369">
        <ele>445.7</ele>
        <time>2020-08-18T09:03:34Z</time>
      </trkpt>
      <trkpt lat="47.95218" lon="6.81398">
        <ele>446.1</ele>
        <time>2020-08-18T09:03:40Z</time>
      </trkpt>
      <trkpt lat="47.95232" lon="6.8142">
        <ele>449.77</ele>
        <time>2020-08-18T09:03:48Z</time>
      </trkpt>
      <trkpt lat="47.95244" lon="6.81442">
        <ele>448.08</ele>
        <time>2020-08-18T09:03:53Z</time>
      </trkpt>
      <trkpt lat="47.95255" lon="6.81466">
        <ele>446.36</ele>
        <time>2020-08-18T09:03:57Z</time>
      </trkpt>
      <trkpt lat="47.95267" lon="6.81491">
        <ele>446.72</ele>
        <time>2020-08-18T09:04:02Z</time>
      </trkpt>
      <trkpt lat="47.95285" lon="6.81509">
        <ele>447.9</ele>
        <time>2020-08-18T09:04:07Z</time>
      </trkpt>
      <trkpt lat="47.95301" lon="6.81526">
        <ele>448.83</ele>
        <time>2020-08-18T09:04:11Z</time>
      </trkpt>
      <trkpt lat="47.95318" lon="6.81543">
        <ele>448.94</ele>
        <time>2020-08-18T09:04:15Z</time>
      </trkpt>
      <trkpt lat="47.95336" lon="6.81561">
        <ele>449.6</ele>
        <time>2020-08-18T09:04:19Z</time>
      </trkpt>
      <trkpt lat="47.95353" lon="6.81581">
        <ele>450.41</ele>
        <time>2020-08-18T09:04:23Z</time>
      </trkpt>
      <trkpt lat="47.95368" lon="6.81601">
        <ele>451.51</ele>
        <time>2020-08-18T09:04:27Z</time>
      </trkpt>
      <trkpt lat="47.95383" lon="6.8162">
        <ele>453.87</ele>
        <time>2020-08-18T09:04:31Z</time>
      </trkpt>
      <trkpt lat="47.95399" lon="6.81639">
        <ele>456.84</ele>
        <time>2020-08-18T09:04:35Z</time>
      </trkpt>
      <trkpt lat="47.95414" lon="6.81661">
        <ele>461.37</ele>
        <time>2020-08-18T09:04:39Z</time>
      </trkpt>
      <trkpt lat="47.95427" lon="6.81686">
        <ele>463.73</ele>
        <time>2020-08-18T09:04:42Z</time>
      </trkpt>
      <trkpt lat="47.95439" lon="6.81709">
        <ele>465.54</ele>
        <time>2020-08-18T09:04:45Z</time>
      </trkpt>
      <trkpt lat="47.95451" lon="6.81732">
        <ele>465.14</ele>
        <time>2020-08-18T09:04:48Z</time>
      </trkpt>
      <trkpt lat="47.95462" lon="6.81765">
        <ele>463.58</ele>
        <time>2020-08-18T09:05:00Z</time>
      </trkpt>
      <trkpt lat="47.95473" lon="6.8179">
        <ele>463.98</ele>
        <time>2020-08-18T09:05:04Z</time>
      </trkpt>
      <trkpt lat="47.95483" lon="6.81819">
        <ele>465.38</ele>
        <time>2020-08-18T09:05:08Z</time>
      </trkpt>
      <trkpt lat="47.95491" lon="6.81847">
        <ele>466.22</ele>
        <time>2020-08-18T09:05:11Z</time>
      </trkpt>
      <trkpt lat="47.95499" lon="6.81878">
        <ele>463.65</ele>
        <time>2020-08-18T09:05:14Z</time>
      </trkpt>
      <trkpt lat="47.95505" lon="6.81909">
        <ele>461.59</ele>
        <time>2020-08-18T09:05:18Z</time>
      </trkpt>
      <trkpt lat="47.95513" lon="6.81941">
        <ele>461.18</ele>
        <time>2020-08-18T09:05:22Z</time>
      </trkpt>
      <trkpt lat="47.95518" lon="6.81974">
        <ele>460.79</ele>
        <time>2020-08-18T09:05:26Z</time>
      </trkpt>
      <trkpt lat="47.95525" lon="6.82006">
        <ele>459.13</ele>
        <time>2020-08-18T09:05:30Z</time>
      </trkpt>
      <trkpt lat="47.95532" lon="6.82039">
        <ele>458.52</ele>
        <time>2020-08-18T09:05:35Z</time>
      </trkpt>
      <trkpt lat="47.95539" lon="6.82065">
        <ele>458.43</ele>
        <time>2020-08-18T09:05:38Z</time>
      </trkpt>
      <trkpt lat="47.95546" lon="6.82094">
        <ele>456.95</ele>
        <time>2020-08-18T09:05:43Z</time>
      </trkpt>
      <trkpt lat="47.95552" lon="6.8212">
        <ele>456.2</ele>
        <time>2020-08-18T09:05:47Z</time>
      </trkpt>
      <trkpt lat="47.95559" lon="6.82148">
        <ele>456.74</ele>
        <time>2020-08-18T09:05:51Z</time>
      </trkpt>
      <trkpt lat="47.95566" lon="6.82174">
        <ele>458.4</ele>
        <time>2020-08-18T09:05:55Z</time>
      </trkpt>
      <trkpt lat="47.95576" lon="6.82203">
        <ele>461.09</ele>
        <time>2020-08-18T09:05:59Z</time>
      </trkpt>
      <trkpt lat="47.95586" lon="6.82233">
        <ele>462.3</ele>
        <time>2020-08-18T09:06:03Z</time>
      </trkpt>
      <trkpt lat="47.95598" lon="6.82264">
        <ele>463.88</ele>
        <time>2020-08-18T09:06:07Z</time>
      </trkpt>
      <trkpt lat="47.95605" lon="6.8229">
        <ele>463.35</ele>
        <time>2020-08-18T09:06:10Z</time>
      </trkpt>
      <trkpt lat="47.95615" lon="6.82317">
        <ele>465.32</ele>
        <time>2020-08-18T09:06:14Z</time>
      </trkpt>
      <trkpt lat="47.95624" lon="6.82343">
        <ele>465.75</ele>
        <time>2020-08-18T09:06:17Z</time>
      </trkpt>
      <trkpt lat="47.95631" lon="6.82369">
        <ele>466.55</ele>
        <time>2020-08-18T09:06:20Z</time>
      </trkpt>
      <trkpt lat="47.95644" lon="6.82399">
        <ele>467.25</ele>
        <time>2020-08-18T09:06:24Z</time>
      </trkpt>
      <trkpt lat="47.95651" lon="6.82423">
        <ele>466.62</ele>
        <time>2020-08-18T09:06:27Z</time>
      </trkpt>
      <trkpt lat="47.95653" lon="6.82458">
        <ele>464.56</ele>
        <time>2020-08-18T09:06:31Z</time>
      </trkpt>
      <trkpt lat="47.95666" lon="6.82479">
        <ele>462.86</ele>
        <time>2020-08-18T09:06:35Z</time>
      </trkpt>
      <trkpt lat="47.95685" lon="6.82491">
        <ele>462.88</ele>
        <time>2020-08-18T09:06:40Z</time>
      </trkpt>
      <trkpt lat="47.95705" lon="6.82488">
        <ele>462.03</ele>
        <time>2020-08-18T09:06:44Z</time>
      </trkpt>
      <trkpt lat="47.95727" lon="6.82491">
        <ele>462.42</ele>
        <time>2020-08-18T09:06:48Z</time>
      </trkpt>
      <trkpt lat="47.95743" lon="6.82505">
        <ele>463.38</ele>
        <time>2020-08-18T09:06:52Z</time>
      </trkpt>
      <trkpt lat="47.95749" lon="6.82536">
        <ele>462.89</ele>
        <time>2020-08-18T09:06:56Z</time>
      </trkpt>
      <trkpt lat="47.95756" lon="6.82567">
        <ele>462.24</ele>
        <time>2020-08-18T09:07:00Z</time>
      </trkpt>
      <trkpt lat="47.95764" lon="6.82596">
        <ele>463.14</ele>
        <time>2020-08-18T09:07:04Z</time>
      </trkpt>
      <trkpt lat="47.95772" lon="6.82624">
        <ele>462.4</ele>
        <time>2020-08-18T09:07:08Z</time>
      </trkpt>
      <trkpt lat="47.95779" lon="6.82655">
        <ele>460.57</ele>
        <time>2020-08-18T09:07:12Z</time>
      </trkpt>
      <trkpt lat="47.95786" lon="6.82682">
        <ele>457.8</ele>
        <time>2020-08-18T09:07:16Z</time>
      </trkpt>
      <trkpt lat="47.95792" lon="6.82709">
        <ele>455.7</ele>
        <time>2020-08-18T09:07:19Z</time>
      </trkpt>
      <trkpt lat="47.95806" lon="6.82731">
        <ele>451.98</ele>
        <time>2020-08-18T09:07:26Z</time>
      </trkpt>
      <trkpt lat="47.95823" lon="6.82721">
        <ele>452.03</ele>
        <time>2020-08-18T09:07:30Z</time>
      </trkpt>
      <trkpt lat="47.95841" lon="6.82701">
        <ele>453.71</ele>
        <time>2020-08-18T09:07:34Z</time>
      </trkpt>
      <trkpt lat="47.95859" lon="6.82678">
        <ele>456.59</ele>
        <time>2020-08-18T09:07:38Z</time>
      </trkpt>
      <trkpt lat="47.95874" lon="6.8266">
        <ele>459.46</ele>
        <time>2020-08-18T09:07:41Z</time>
      </trkpt>
      <trkpt lat="47.95893" lon="6.82642">
        <ele>460.76</ele>
        <time>2020-08-18T09:07:44Z</time>
      </trkpt>
      <trkpt lat="47.95911" lon="6.82625">
        <ele>459.79</ele>
        <time>2020-08-18T09:07:47Z</time>
      </trkpt>
      <trkpt lat="47.95929" lon="6.82614">
        <ele>457.41</ele>
        <time>2020-08-18T09:07:50Z</time>
      </trkpt>
      <trkpt lat="47.95946" lon="6.82627">
        <ele>455.79</ele>
        <time>2020-08-18T09:07:54Z</time>
      </trkpt>
      <trkpt lat="47.95956" lon="6.82653">
        <ele>456.84</ele>
        <time>2020-08-18T09:07:58Z</time>
      </trkpt>
      <trkpt lat="47.95958" lon="6.82684">
        <ele>458.2</ele>
        <time>2020-08-18T09:08:02Z</time>
      </trkpt>
      <trkpt lat="47.95961" lon="6.82715">
        <ele>458.22</ele>
        <time>2020-08-18T09:08:06Z</time>
      </trkpt>
      <trkpt lat="47.95965" lon="6.82744">
        <ele>453.28</ele>
        <time>2020-08-18T09:08:09Z</time>
      </trkpt>
      <trkpt lat="47.95967" lon="6.82772">
        <ele>449.48</ele>
        <time>2020-08-18T09:08:12Z</time>
      </trkpt>
      <trkpt lat="47.95973" lon="6.82805">
        <ele>446.53</ele>
        <time>2020-08-18T09:08:16Z</time>
      </trkpt>
      <trkpt lat="47.9598" lon="6.82835">
        <ele>444.15</ele>
        <time>2020-08-18T09:08:20Z</time>
      </trkpt>
      <trkpt lat="47.95986" lon="6.82864">
        <ele>443.43</ele>
        <time>2020-08-18T09:08:24Z</time>
      </trkpt>
      <trkpt lat="47.95991" lon="6.82893">
        <ele>442.17</ele>
        <time>2020-08-18T09:08:28Z</time>
      </trkpt>
      <trkpt lat="47.95978" lon="6.82917">
        <ele>445.02</ele>
        <time>2020-08-18T09:08:35Z</time>
      </trkpt>
      <trkpt lat="47.95971" lon="6.82945">
        <ele>446.81</ele>
        <time>2020-08-18T09:08:40Z</time>
      </trkpt>
      <trkpt lat="47.95976" lon="6.82978">
        <ele>447.87</ele>
        <time>2020-08-18T09:08:44Z</time>
      </trkpt>
      <trkpt lat="47.95983" lon="6.83009">
        <ele>450.7</ele>
        <time>2020-08-18T09:08:48Z</time>
      </trkpt>
      <trkpt lat="47.95987" lon="6.83039">
        <ele>453.47</ele>
        <time>2020-08-18T09:08:52Z</time>
      </trkpt>
      <trkpt lat="47.95994" lon="6.83068">
        <ele>455.09</ele>
        <time>2020-08-18T09:08:56Z</time>
      </trkpt>
      <trkpt lat="47.95999" lon="6.83099">
        <ele>456.21</ele>
        <time>2020-08-18T09:08:59Z</time>
      </trkpt>
      <trkpt lat="47.95993" lon="6.83125">
        <ele>455.76</ele>
        <time>2020-08-18T09:09:03Z</time>
      </trkpt>
      <trkpt lat="47.95994" lon="6.83153">
        <ele>456.47</ele>
        <time>2020-08-18T09:09:08Z</time>
      </trkpt>
      <trkpt lat="47.95999" lon="6.83182">
        <ele>458.06</ele>
        <time>2020-08-18T09:09:13Z</time>
      </trkpt>
      <trkpt lat="47.96008" lon="6.83212">
        <ele>458.72</ele>
        <time>2020-08-18T09:09:18Z</time>
      </trkpt>
      <trkpt lat="47.96025" lon="6.83236">
        <ele>459.14</ele>
        <time>2020-08-18T09:09:22Z</time>
      </trkpt>
      <trkpt lat="47.9604" lon="6.83258">
        <ele>459.72</ele>
        <time>2020-08-18T09:09:26Z</time>
      </trkpt>
      <trkpt lat="47.96053" lon="6.83277">
        <ele>459.55</ele>
        <time>2020-08-18T09:09:30Z</time>
      </trkpt>
      <trkpt lat="47.96053" lon="6.83306">
        <ele>457.5</ele>
        <time>2020-08-18T09:09:36Z</time>
      </trkpt>
      <trkpt lat="47.96044" lon="6.83331">
        <ele>458.53</ele>
        <time>2020-08-18T09:09:42Z</time>
      </trkpt>
      <trkpt lat="47.96023" lon="6.83343">
        <ele>456.95</ele>
        <time>2020-08-18T09:09:47Z</time>
      </trkpt>
      <trkpt lat="47.96003" lon="6.83365">
        <ele>456.19</ele>
        <time>2020-08-18T09:09:50Z</time>
      </trkpt>
      <trkpt lat="47.9599" lon="6.83335">
        <ele>454.51</ele>
        <time>2020-08-18T09:09:53Z</time>
      </trkpt>
      <trkpt lat="47.96009" lon="6.83349">
        <ele>451.35</ele>
        <time>2020-08-18T09:10:00Z</time>
      </trkpt>
      <trkpt lat="47.9599" lon="6.83362">
        <ele>453.61</ele>
        <time>2020-08-18T09:10:45Z</time>
      </trkpt>
      <trkpt lat="47.95973" lon="6.83375">
        <ele>457.56</ele>
        <time>2020-08-18T09:10:56Z</time>
      </trkpt>
      <trkpt lat="47.95957" lon="6.83388">
        <ele>462.65</ele>
        <time>2020-08-18T09:11:05Z</time>
      </trkpt>
      <trkpt lat="47.95947" lon="6.83416">
        <ele>465.35</ele>
        <time>2020-08-18T09:11:16Z</time>
      </trkpt>
      <trkpt lat="47.95954" lon="6.83442">
        <ele>462.7</ele>
        <time>2020-08-18T09:11:18Z</time>
      </trkpt>
      <trkpt lat="47.95965" lon="6.83464">
        <ele>460.09</ele>
        <time>2020-08-18T09:11:40Z</time>
      </trkpt>
      <trkpt lat="47.95981" lon="6.83478">
        <ele>476.59</ele>
        <time>2020-08-18T09:13:53Z</time>
      </trkpt>
      <trkpt lat="47.95986" lon="6.83504">
        <ele>482.91</ele>
        <time>2020-08-18T09:14:03Z</time>
      </trkpt>
      <trkpt lat="47.95968" lon="6.83516">
        <ele>486.84</ele>
        <time>2020-08-18T09:14:19Z</time>
      </trkpt>
      <trkpt lat="47.95949" lon="6.8352">
        <ele>484.78</ele>
        <time>2020-08-18T09:14:31Z</time>
      </trkpt>
      <trkpt lat="47.95931" lon="6.83518">
        <ele>487.35</ele>
        <time>2020-08-18T09:14:45Z</time>
      </trkpt>
      <trkpt lat="47.95913" lon="6.83511">
        <ele>482.5</ele>
        <time>2020-08-18T09:14:54Z</time>
      </trkpt>
      <trkpt lat="47.95895" lon="6.83507">
        <ele>476.95</ele>
        <time>2020-08-18T09:15:04Z</time>
      </trkpt>
      <trkpt lat="47.95879" lon="6.83493">
        <ele>479.19</ele>
        <time>2020-08-18T09:15:17Z</time>
      </trkpt>
      <trkpt lat="47.95865" lon="6.83475">
        <ele>484.56</ele>
        <time>2020-08-18T09:15:32Z</time>
      </trkpt>
      <trkpt lat="47.9585" lon="6.83459">
        <ele>486.41</ele>
        <time>2020-08-18T09:15:45Z</time>
      </trkpt>
      <trkpt lat="47.95832" lon="6.83444">
        <ele>491.28</ele>
        <time>2020-08-18T09:16:01Z</time>
      </trkpt>
      <trkpt lat="47.95816" lon="6.8343">
        <ele>497.98</ele>
        <time>2020-08-18T09:16:14Z</time>
      </trkpt>
      <trkpt lat="47.95799" lon="6.83419">
        <ele>504.43</ele>
        <time>2020-08-18T09:16:29Z</time>
      </trkpt>
      <trkpt lat="47.95781" lon="6.83406">
        <ele>505.34</ele>
        <time>2020-08-18T09:16:40Z</time>
      </trkpt>
      <trkpt lat="47.95767" lon="6.83384">
        <ele>505.81</ele>
        <time>2020-08-18T09:16:45Z</time>
      </trkpt>
      <trkpt lat="47.95758" lon="6.83359">
        <ele>506.36</ele>
        <time>2020-08-18T09:16:49Z</time>
      </trkpt>
      <trkpt lat="47.95749" lon="6.83335">
        <ele>504.77</ele>
        <time>2020-08-18T09:16:53Z</time>
      </trkpt>
      <trkpt lat="47.9574" lon="6.83311">
        <ele>501.31</ele>
        <time>2020-08-18T09:16:57Z</time>
      </trkpt>
      <trkpt lat="47.95731" lon="6.83285">
        <ele>500.67</ele>
        <time>2020-08-18T09:17:03Z</time>
      </trkpt>
      <trkpt lat="47.95734" lon="6.83258">
        <ele>501.21</ele>
        <time>2020-08-18T09:17:09Z</time>
      </trkpt>
      <trkpt lat="47.95738" lon="6.83232">
        <ele>501.84</ele>
        <time>2020-08-18T09:17:17Z</time>
      </trkpt>
      <trkpt lat="47.95731" lon="6.83198">
        <ele>492.51</ele>
        <time>2020-08-18T09:17:47Z</time>
      </trkpt>
    </trkseg>
  </trk>
</gpx>